Date StartTime U_cm/s V_cm/s W_cm/s Ustd_cm/s Vstd_cm/s Wstd_cm/s Uvar_(cm/s)^2 Vvar_(cm/s)^2 Wvar_(cm/s)^2 KE_(m/s)^2 TurbulentKE_(m/s)^2 HorizWindSpeed_cm/s FrictionSpeec_cm/s DragCoef SpeedOfSound_m/s SonicTemperature_C Pressure_mb 
03/21/2014  00:00:00     -170.679      -37.539       -2.311       64.062       76.860       45.908     4103.878     5907.418     2107.540        2.133        0.606      174.758       41.909        0.058      337.348        9.260      860.162
03/21/2014  00:01:00     -161.398      -41.928      -10.509       57.239       75.987       33.577     3276.358     5774.013     1127.425        1.905        0.509      166.755       26.005        0.024      337.324        9.219      860.168
03/21/2014  00:02:00     -215.390       -8.422      -11.295      112.184       68.966       48.588    12585.298     4756.309     2360.792        3.314        0.985      215.554       50.228        0.054      337.233        9.065      860.181
03/21/2014  00:03:00     -115.576      -14.117      -11.211       67.796       50.275       35.669     4596.292     2527.621     1272.251        1.104        0.420      116.435       32.335        0.077      337.136        8.905      860.179
03/21/2014  00:04:00     -179.093      -73.603        0.822       83.576       48.500       37.317     6984.903     2352.217     1392.545        2.411        0.536      193.627       33.503        0.030      337.187        8.989      860.174
03/21/2014  00:05:00     -153.753      -26.810      -14.530      102.835       69.033       31.526    10574.955     4765.557      993.870        2.045        0.817      156.073       25.924        0.028      337.319        9.212      860.173
03/21/2014  00:06:00     -115.765       28.330      -12.799       54.562       37.197       29.278     2977.010     1383.582      857.204        0.979        0.261      119.181       23.806        0.040      337.383        9.320      860.182
03/21/2014  00:07:00     -127.759      -33.093       -1.627       72.601       52.551       28.980     5270.863     2761.591      839.844        1.314        0.444      131.976       26.882        0.041      337.390        9.330      860.174
03/21/2014  00:08:00     -103.100       -4.692       -5.555       73.358       54.256       32.761     5381.353     2943.673     1073.260        1.004        0.470      103.207       37.498        0.132      337.623        9.722      860.173
03/21/2014  00:09:00     -184.334       16.409      -28.047      104.935       74.088       39.159    11011.445     5488.983     1533.434        2.653        0.902      185.063       44.709        0.058      337.514        9.537      860.162
03/21/2014  00:10:00     -122.177       33.642       -8.525       80.160       48.623       38.382     6425.576     2364.168     1473.198        1.320        0.513      126.724       41.659        0.108      337.593        9.670      860.162
03/21/2014  00:11:00     -109.392      -17.080       -9.284       54.359       71.431       34.937     2954.913     5102.384     1220.605        1.081        0.464      110.717       35.926        0.105      337.631        9.735      860.159
03/21/2014  00:12:00      -84.060       32.664       -3.760       48.480       40.489       28.815     2350.263     1639.323      830.331        0.648        0.241       90.184       24.274        0.072      337.696        9.844      860.149
03/21/2014  00:13:00     -111.788       22.844       -5.463       80.030       57.712       36.365     6404.860     3330.701     1322.407        1.205        0.553      114.098       48.709        0.182      337.737        9.911      860.149
03/21/2014  00:14:00     -112.656       16.220       -7.557       56.558       41.268       38.144     3198.801     1703.057     1454.994        0.968        0.318      113.817       31.368        0.076      337.729        9.900      860.155
03/21/2014  00:15:00     -102.656      -58.902      -15.419       53.675       38.035       29.331     2881.027     1446.660      860.308        0.972        0.259      118.354       16.121        0.019      337.458        9.445      860.140
03/21/2014  00:16:00     -102.720      -11.573       -1.652       45.112       37.064       26.180     2035.109     1373.754      685.389        0.739        0.205      103.370       19.809        0.037      337.488        9.496      860.137
03/21/2014  00:17:00     -110.572        0.188      -19.749       52.649       39.421       29.189     2771.946     1554.003      852.010        0.890        0.259      110.572       18.299        0.027      337.636        9.743      860.140
03/21/2014  00:18:00     -148.726       -5.898      -30.895       55.645       50.619       34.438     3096.400     2562.264     1185.991        1.498        0.342      148.842       15.707        0.011      337.588        9.662      860.134
03/21/2014  00:19:00      -84.989        7.171       -2.026       47.088       45.931       24.049     2217.263     2109.692      578.346        0.609        0.245       85.291       17.947        0.044      337.693        9.839      860.122
03/21/2014  00:20:00      -91.102        5.520      -14.398       48.965       42.207       32.139     2397.608     1781.389     1032.918        0.687        0.261       91.269       30.608        0.112      337.793       10.008      860.112
03/21/2014  00:21:00      -69.138       -1.190       -8.106       42.027       63.371       29.084     1766.233     4015.873      845.869        0.574        0.331       69.149       26.590        0.148      337.737        9.913      860.099
03/21/2014  00:22:00      -86.106       59.807      -11.349       69.328       77.633       44.688     4806.357     6026.896     1997.028        1.197        0.642      104.838       50.715        0.234      337.845       10.093      860.094
03/21/2014  00:23:00     -138.063      147.788      -31.052       58.575       91.640       42.938     3431.064     8397.890     1843.708        2.777        0.684      202.244       34.859        0.030      337.932       10.239      860.100
03/21/2014  00:24:00      -57.737       51.734        5.477       49.093       52.071       33.254     2410.127     2711.384     1105.835        0.613        0.311       77.524       21.535        0.077      337.882       10.155      860.091
03/21/2014  00:25:00     -139.058      126.211      -31.445       59.894       56.895       32.212     3587.271     3236.986     1037.622        2.206        0.393      187.794       32.509        0.030      337.989       10.334      860.089
03/21/2014  00:26:00      -88.799       50.660      -15.404       63.681       46.935       25.526     4055.289     2202.933      651.555        0.880        0.345      102.234       30.533        0.089      338.011       10.374      860.083
03/21/2014  00:27:00     -129.667       22.136       -2.522       75.315       55.487       37.636     5672.335     3078.788     1416.431        1.374        0.508      131.543       41.712        0.101      338.042       10.425      860.078
03/21/2014  00:28:00     -114.990       80.941      -18.030       70.705       81.803       41.384     4999.197     6691.708     1712.657        1.675        0.670      140.621       49.189        0.122      338.032       10.406      860.085
03/21/2014  00:29:00     -110.173       37.100      -26.379       37.185       51.329       23.399     1382.738     2634.673      547.524        0.939        0.228      116.252       19.043        0.027      338.051       10.441      860.091
03/21/2014  00:30:00      -85.442       -7.527      -10.367       46.167       42.937       23.059     2131.429     1843.565      531.729        0.598        0.225       85.773       18.661        0.047      338.163       10.627      860.089
03/21/2014  00:31:00     -112.454       44.483       -8.082       65.975       38.824       27.188     4352.637     1507.317      739.200        1.064        0.330      120.932       18.054        0.022      338.105       10.530      860.090
03/21/2014  00:32:00     -105.982       33.734      -21.374       32.856       45.372       23.203     1079.486     2058.657      538.371        0.825        0.184      111.221       15.001        0.018      338.104       10.529      860.086
03/21/2014  00:33:00     -137.059      -16.827      -14.125       38.578       44.904       28.931     1488.296     2016.390      837.008        1.180        0.217      138.088       18.147        0.017      337.924       10.227      860.088
03/21/2014  00:34:00      -97.647       13.619      -20.490       53.124       44.525       24.870     2822.114     1982.440      618.502        0.778        0.271       98.592       22.737        0.053      337.915       10.212      860.086
03/21/2014  00:35:00      -96.710        8.115        6.915       69.719       79.676       39.046     4860.792     6348.246     1524.555        1.110        0.637       97.050       30.453        0.098      337.821       10.054      860.098
03/21/2014  00:36:00      -62.799       40.377       -9.087       40.300       66.537       26.869     1624.079     4427.141      721.930        0.621        0.339       74.660       15.185        0.041      337.929       10.234      860.095
03/21/2014  00:37:00     -118.596      111.416      -26.731       52.145       57.396       39.115     2719.129     3294.356     1529.950        1.737        0.377      162.723       32.143        0.039      337.964       10.291      860.093
03/21/2014  00:38:00     -136.631       88.912      -18.775       46.499       51.538       33.805     2162.138     2656.184     1142.796        1.644        0.298      163.014       29.544        0.033      337.904       10.192      860.078
03/21/2014  00:39:00     -101.954       16.367       -3.380       44.725       61.209       28.946     2000.297     3746.597      837.893        0.863        0.329      103.259       19.078        0.034      337.916       10.215      860.064
03/21/2014  00:40:00     -111.633      -47.175      -12.626       49.850       44.840       28.441     2485.055     2010.604      808.912        1.007        0.265      121.192       24.539        0.041      337.816       10.047      860.052
03/21/2014  00:41:00      -93.509        9.963       -4.294       51.348       46.567       28.737     2636.588     2168.443      825.820        0.725        0.282       94.038       29.844        0.101      337.846       10.097      860.050
03/21/2014  00:42:00     -125.037       -2.592      -13.241       73.858       38.642       33.060     5454.942     1493.177     1092.954        1.193        0.402      125.063       37.455        0.090      337.756        9.945      860.060
03/21/2014  00:43:00     -114.026        4.281      -12.972       59.242       52.416       42.212     3509.641     2747.421     1781.852        1.061        0.402      114.106       31.646        0.077      337.779        9.983      860.069
03/21/2014  00:44:00      -73.410       24.212        5.557       51.141       51.201       29.686     2615.405     2621.575      881.277        0.606        0.306       77.299       26.731        0.120      337.899       10.183      860.075
03/21/2014  00:45:00     -140.310        5.749      -17.064       60.288       83.953       36.611     3634.677     7048.164     1340.399        1.602        0.601      140.428       30.406        0.047      337.833       10.074      860.079
03/21/2014  00:46:00      -90.010      -42.375       -1.575       71.862       65.487       31.262     5164.081     4288.590      977.300        1.016        0.521       99.486       28.612        0.083      337.788        9.997      860.081
03/21/2014  00:47:00     -105.215      -23.282      -18.112       39.037       40.998       20.644     1523.912     1680.846      426.160        0.779        0.182      107.760       18.188        0.028      337.833       10.075      860.084
03/21/2014  00:48:00     -115.569        9.899       -8.542       42.877       38.227       29.823     1838.409     1461.288      889.394        0.886        0.209      115.992       23.933        0.043      337.796       10.012      860.092
03/21/2014  00:49:00      -73.248      -41.096       -4.374       65.924       47.240       25.134     4345.924     2231.602      631.704        0.714        0.360       83.989       16.182        0.037      337.759        9.950      860.095
03/21/2014  00:50:00      -93.089      -35.495       -5.467       33.798       47.680       22.586     1142.298     2273.370      510.113        0.694        0.196       99.626       14.343        0.021      337.727        9.897      860.093
03/21/2014  00:51:00      -18.770       -4.681        4.353       29.734       29.439       18.154      884.085      866.648      329.561        0.124        0.104       19.345       14.278        0.545      337.589        9.665      860.098
03/21/2014  00:52:00     -107.322      -26.150      -15.729       31.846       26.648       16.460     1014.154      710.140      270.928        0.722        0.100      110.462       14.050        0.016      337.584        9.657      860.106
03/21/2014  00:53:00     -117.436      -26.509      -11.289       26.700       33.500       20.549      712.885     1122.263      422.278        0.844        0.113      120.390       12.156        0.010      337.507        9.529      860.120
03/21/2014  00:54:00     -111.051      -30.232      -13.563       26.576       30.262       16.541      706.263      915.772      273.608        0.766        0.095      115.093       11.320        0.010      337.546        9.592      860.124
03/21/2014  00:55:00     -131.945      -32.967      -19.642       32.071       33.138       22.659     1028.549     1098.138      513.438        1.076        0.132      136.001       16.152        0.014      337.560        9.617      860.123
03/21/2014  00:56:00      -34.365      -40.370        7.921       36.379       50.641       22.027     1323.465     2564.499      485.196        0.362        0.219       53.016       23.414        0.195      337.553        9.604      860.119
03/21/2014  00:57:00     -111.797      -12.552       -9.159       30.167       27.971       19.332      910.031      782.351      373.730        0.740        0.103      112.500       17.088        0.023      337.514        9.539      860.125
03/21/2014  00:58:00      -48.024      -42.534        6.054       43.385       39.587       21.925     1882.289     1567.110      480.696        0.404        0.197       64.152       20.458        0.102      337.554        9.607      860.127
03/21/2014  00:59:00       -2.629      -16.980       13.916       32.055       21.252       18.288     1027.504      451.637      334.458        0.115        0.091       17.182       11.244        0.428      337.502        9.519      860.134
03/21/2014  01:00:00      -71.883      -28.008       -2.199       28.048       19.769       15.297      786.673      390.815      234.010        0.368        0.071       77.147       15.170        0.039      337.485        9.492      860.138
03/21/2014  01:01:00       -5.430        6.363        5.235       11.086       13.283        9.441      122.893      176.432       89.124        0.024        0.019        8.365        6.073        0.527      337.432        9.401      860.141
03/21/2014  01:02:00      -14.072      -24.957       -2.563       33.634       29.211       13.930     1131.244      853.263      194.040        0.150        0.109       28.651       12.445        0.189      337.627        9.730      860.144
03/21/2014  01:03:00      -33.844      -15.886        0.318       21.470       13.266       14.003      460.964      175.989      196.084        0.112        0.042       37.387       11.684        0.098      337.628        9.730      860.147
03/21/2014  01:04:00      -12.783      -43.898       -5.224       14.915       17.365       11.039      222.454      301.550      121.857        0.138        0.032       45.722        8.559        0.035      337.754        9.942      860.148
03/21/2014  01:05:00      -35.757       -6.455       13.368       20.448       22.395       20.704      418.119      501.541      428.659        0.142        0.067       36.335       16.535        0.207      337.593        9.672      860.141
03/21/2014  01:06:00       -0.316      -47.185      -11.455       29.895       40.188       26.593      893.699     1615.086      707.186        0.279        0.161       47.186       12.705        0.072      337.394        9.338      860.132
03/21/2014  01:07:00        1.597      -55.901      -13.362       24.887       40.517       21.224      619.366     1641.623      450.455        0.301        0.136       55.923       16.253        0.084      337.254        9.104      860.136
03/21/2014  01:08:00      -15.592      -46.496      -12.039       30.451       30.734       21.569      927.272      944.576      465.203        0.244        0.117       49.041       20.328        0.172      337.106        8.855      860.136
03/21/2014  01:09:00        4.787      -15.085       -2.215       18.721       21.960       14.274      350.479      482.254      203.741        0.065        0.052       15.826        7.724        0.238      337.117        8.874      860.131
03/21/2014  01:10:00      -30.081      -67.157      -19.262       36.659       32.808       23.391     1343.879     1076.393      547.119        0.438        0.148       73.587       14.899        0.041      337.059        8.776      860.135
03/21/2014  01:11:00      -41.874      -47.702       11.623       57.396       42.660       29.633     3294.280     1819.846      878.137        0.508        0.300       63.474       18.449        0.084      336.982        8.649      860.134
03/21/2014  01:12:00      -47.007      -56.495       11.725       53.265       41.244       35.866     2837.143     1701.050     1286.370        0.568        0.291       73.493       27.341        0.138      336.919        8.544      860.137
03/21/2014  01:13:00      -61.889      -78.425        7.234       55.073       58.584       34.375     3033.045     3432.030     1181.632        0.884        0.382       99.904       30.727        0.095      336.835        8.403      860.138
03/21/2014  01:14:00      -94.541      -62.869        6.980       65.236       43.716       31.292     4255.749     1911.081      979.160        1.004        0.357      113.536       22.804        0.040      336.706        8.188      860.150
03/21/2014  01:15:00      -95.318      -97.462      -13.510       23.693       34.834       17.941      561.360     1213.406      321.879        1.043        0.105      136.325       10.053        0.005      336.633        8.068      860.167
03/21/2014  01:16:00      -91.747      -76.318       -0.602       51.721       39.012       29.350     2675.058     1521.953      861.411        0.965        0.253      119.340       25.043        0.044      336.607        8.022      860.175
03/21/2014  01:17:00      -63.462      -61.996        2.959       47.434       39.358       28.735     2249.989     1549.018      825.686        0.625        0.231       88.718       22.384        0.064      336.541        7.914      860.178
03/21/2014  01:18:00      -91.237      -74.461       -2.141       63.708       41.487       29.148     4058.747     1721.146      849.631        1.025        0.331      117.765       28.501        0.059      336.577        7.973      860.186
03/21/2014  01:19:00      -81.319      -93.996        0.798       74.726       49.216       32.063     5583.947     2422.218     1028.027        1.224        0.452      124.290       32.595        0.069      336.596        8.005      860.187
03/21/2014  01:20:00      -95.251      -92.450       -0.147       61.589       45.310       28.992     3793.238     2052.961      840.563        1.215        0.334      132.739       32.803        0.061      336.594        8.002      860.195
03/21/2014  01:21:00      -51.479      -47.321        9.495       57.794       50.641       31.963     3340.154     2564.528     1021.623        0.595        0.346       69.924       34.752        0.247      336.574        7.966      860.206
03/21/2014  01:22:00     -103.239      -60.706        6.345       53.682       41.847       24.840     2881.760     1751.173      617.018        0.982        0.262      119.764       14.552        0.015      336.497        7.839      860.206
03/21/2014  01:23:00      -45.875      -53.867        6.985       57.380       47.668       30.795     3292.497     2272.236      948.327        0.578        0.326       70.755       18.932        0.072      336.548        7.923      860.219
03/21/2014  01:24:00      -56.267      -29.379       -6.609       48.080       34.006       19.561     2311.674     1156.438      382.649        0.396        0.193       63.475       17.362        0.075      336.494        7.835      860.228
03/21/2014  01:25:00      -61.750      -58.534        4.387       38.468       24.638       21.189     1479.805      607.037      448.961        0.490        0.127       85.084       12.318        0.021      336.433        7.732      860.233
03/21/2014  01:26:00      -77.234      -46.935       -7.322       26.887       30.770       18.768      722.886      946.808      352.220        0.512        0.101       90.377       14.119        0.024      336.429        7.724      860.232
03/21/2014  01:27:00      -56.162      -47.741        2.482       33.023       17.429       18.625     1090.498      303.765      346.886        0.359        0.087       73.712       17.143        0.054      336.510        7.862      860.225
03/21/2014  01:28:00      -32.591      -49.028       -5.375       39.969       24.810       20.043     1597.543      615.544      401.719        0.305        0.131       58.872       11.053        0.035      336.516        7.871      860.214
03/21/2014  01:29:00      -32.247      -73.227       -3.029       26.578       26.324       17.824      706.389      692.933      317.680        0.406        0.086       80.013       11.337        0.020      336.461        7.780      860.206
03/21/2014  01:30:00      -25.493      -22.184        8.506       23.307       34.097       20.562      543.230     1162.610      422.808        0.167        0.106       33.794       19.835        0.344      336.450        7.760      860.197
03/21/2014  01:31:00      -25.885      -17.909        3.083       15.786       25.950       12.804      249.204      673.405      163.954        0.104        0.054       31.476       13.764        0.191      336.590        7.994      860.192
03/21/2014  01:32:00      -22.206        1.651        9.499       15.592       20.601       12.956      243.103      424.415      167.857        0.071        0.042       22.268       12.159        0.298      336.572        7.966      860.204
03/21/2014  01:33:00       20.074       24.286       -2.356       27.477       19.527       13.979      754.998      381.320      195.403        0.116        0.067       31.509       11.674        0.137      336.418        7.707      860.212
03/21/2014  01:34:00       38.841       23.863        2.974       28.379       31.169       24.436      805.360      971.492      597.116        0.223        0.119       45.586       18.109        0.158      336.334        7.566      860.221
03/21/2014  01:35:00       18.006       14.468       -0.227       27.634       39.489       19.473      763.653     1559.347      379.185        0.162        0.135       23.099       22.009        0.908      336.216        7.368      860.226
03/21/2014  01:36:00       32.225       12.908       -5.821       12.470       15.140       13.495      155.500      229.218      182.124        0.090        0.028       34.714        4.679        0.018      336.239        7.406      860.232
03/21/2014  01:37:00       13.998        6.429       -0.217       11.130       17.071       13.718      123.873      291.408      188.173        0.042        0.030       15.403       10.625        0.476      336.315        7.533      860.231
03/21/2014  01:38:00       14.475       19.249       -1.165       13.709       14.727       11.894      187.923      216.897      141.474        0.056        0.027       24.085        7.294        0.092      336.306        7.518      860.225
03/21/2014  01:39:00        0.532       31.700       -5.770        5.856        9.231        4.813       34.297       85.213       23.166        0.059        0.007       31.704        4.828        0.023      336.389        7.656      860.211
03/21/2014  01:40:00        1.497       17.579       -1.054        3.461        8.649        4.157       11.977       74.797       17.281        0.021        0.005       17.643        3.056        0.030      336.447        7.758      860.204
03/21/2014  01:41:00        6.746       23.440        1.369       12.269       14.322       10.989      150.517      205.132      120.758        0.054        0.024       24.392        8.035        0.109      336.444        7.749      860.189
03/21/2014  01:42:00      -20.939       -4.582        1.827       22.455       16.004       13.575      504.238      256.116      184.268        0.070        0.047       21.435       12.630        0.347      336.524        7.884      860.194
03/21/2014  01:43:00      -47.673        3.578       -3.890       28.406       22.222       13.714      806.908      493.814      188.075        0.189        0.074       47.807       14.175        0.088      336.656        8.106      860.194
03/21/2014  01:44:00      -72.334      -15.262       -5.883       29.575       20.125       19.504      874.683      405.003      380.399        0.358        0.083       73.927       16.025        0.047      336.475        7.802      860.191
03/21/2014  01:45:00      -99.785       -0.649      -12.938       54.051       28.092       19.973     2921.516      789.140      398.902        0.712        0.205       99.787       27.471        0.076      336.500        7.845      860.183
03/21/2014  01:46:00     -124.517      -13.903       -9.814       43.964       27.644       18.565     1932.795      764.209      344.663        0.942        0.152      125.291       21.823        0.030      336.260        7.443      860.166
03/21/2014  01:47:00      -76.859      -15.763       -0.291       50.387       33.915       23.626     2538.874     1150.204      558.194        0.520        0.212       78.458       26.597        0.115      336.278        7.473      860.152
03/21/2014  01:48:00      -64.973       -3.821        3.615       43.598       32.050       24.639     1900.764     1027.175      607.077        0.389        0.177       65.085       24.042        0.136      336.350        7.594      860.141
03/21/2014  01:49:00      -62.609       -8.962       -0.604       34.257       29.143       18.789     1173.575      849.335      353.040        0.319        0.119       63.247       16.586        0.069      336.429        7.724      860.141
03/21/2014  01:50:00      -45.467      -12.030       -4.529       31.281       27.516       18.035      978.503      757.126      325.265        0.215        0.103       47.032       14.423        0.094      336.442        7.747      860.139
03/21/2014  01:51:00      -92.378      -23.580       -6.892       25.630       21.399       16.165      656.901      457.927      261.293        0.526        0.069       95.340       13.213        0.019      336.283        7.481      860.137
03/21/2014  01:52:00      -69.013      -34.922       -2.558       36.637       19.542       18.906     1342.291      381.898      357.419        0.403        0.104       77.346       14.954        0.037      336.220        7.375      860.130
03/21/2014  01:53:00      -71.156      -25.582       -3.298       39.782       31.288       19.745     1582.611      978.945      389.857        0.434        0.148       75.615       20.373        0.073      336.188        7.321      860.126
03/21/2014  01:54:00      -88.179      -22.537       -5.527       45.808       36.490       26.847     2098.345     1331.547      720.783        0.623        0.208       91.014       28.150        0.096      336.209        7.358      860.121
03/21/2014  01:55:00     -106.271      -13.917       -8.612       59.265       41.551       27.478     3512.322     1726.475      755.019        0.878        0.300      107.179       19.737        0.034      336.198        7.339      860.111
03/21/2014  01:56:00     -115.355       31.486      -18.190       51.235       39.195       27.781     2625.045     1536.257      771.792        0.978        0.247      119.575        7.092        0.004      336.200        7.342      860.107
03/21/2014  01:57:00     -108.170       23.749      -12.888       43.892       36.399       23.116     1926.486     1324.853      534.341        0.811        0.189      110.747       11.216        0.010      336.313        7.531      860.090
03/21/2014  01:58:00     -119.225        5.936      -16.740       58.856       45.383       27.904     3464.051     2059.576      778.641        1.042        0.315      119.373       23.604        0.039      336.243        7.413      860.078
03/21/2014  01:59:00      -93.485       38.480      -11.696       67.108       41.968       30.478     4503.506     1761.279      928.930        0.877        0.360      101.094       33.335        0.109      336.350        7.592      860.065
03/21/2014  02:00:00      -54.114        8.348       -4.442       30.632       22.886       16.793      938.299      523.747      282.001        0.238        0.087       54.754       14.987        0.075      336.597        8.006      860.050
03/21/2014  02:01:00     -101.594       12.528      -11.595       51.233       28.158       17.014     2624.781      792.848      289.474        0.716        0.185      102.363       20.571        0.040      336.639        8.076      860.055
03/21/2014  02:02:00     -123.776        3.322      -10.129       50.501       38.628       30.205     2550.311     1492.099      912.359        1.019        0.248      123.821       32.965        0.071      336.373        7.632      860.049
03/21/2014  02:03:00     -155.921       17.070      -13.178       27.616       34.278       21.030      762.626     1175.002      442.280        1.358        0.119      156.852       19.139        0.015      336.138        7.238      860.044
03/21/2014  02:04:00     -112.986      -19.954      -14.505       16.807       19.295       11.174      282.464      372.307      124.867        0.708        0.039      114.734        9.671        0.007      336.017        7.036      860.033
03/21/2014  02:05:00     -127.153       -1.918      -13.176       31.699       22.730       16.833     1004.815      516.667      283.335        0.907        0.090      127.168       15.475        0.015      336.158        7.271      860.022
03/21/2014  02:06:00      -99.749      -18.625       -7.655       20.913       17.985       15.015      437.344      323.448      225.452        0.567        0.049      101.473       14.297        0.020      336.134        7.231      860.029
03/21/2014  02:07:00      -86.550      -32.909       -5.993       15.824        9.214       10.094      250.395       84.890      101.889        0.452        0.022       92.595        7.985        0.007      336.316        7.535      860.026
03/21/2014  02:08:00      -61.109      -33.777        2.359       27.426       15.262       11.588      752.197      232.922      134.283        0.300        0.056       69.823        9.857        0.020      336.345        7.583      860.021
03/21/2014  02:09:00      -89.382      -39.989       -7.993       12.406       16.200        9.764      153.916      262.434       95.335        0.508        0.026       97.919        6.591        0.005      336.336        7.570      860.020
03/21/2014  02:10:00      -67.334      -59.778       -3.124       37.771       17.776       16.451     1426.625      315.999      270.646        0.506        0.101       90.040       15.135        0.028      336.387        7.653      860.023
03/21/2014  02:11:00      -12.134      -34.093       10.241       25.369       18.188       14.771      643.583      330.821      218.191        0.130        0.060       36.188       11.021        0.093      336.488        7.823      860.036
03/21/2014  02:12:00      -14.454      -35.275        4.454       19.267       22.908       14.154      371.206      524.783      200.350        0.128        0.055       38.121       12.617        0.110      336.435        7.734      860.059
03/21/2014  02:13:00      -16.583      -21.158       -8.625       11.978       15.171        8.195      143.463      230.148       67.162        0.062        0.022       26.882        6.260        0.054      336.517        7.873      860.072
03/21/2014  02:14:00      -12.607       15.295        3.592        8.010       11.530        7.378       64.154      132.936       54.439        0.033        0.013       19.821        5.843        0.087      336.584        7.984      860.084
03/21/2014  02:15:00      -28.860      -41.200       -1.662       21.169       31.376       20.072      448.132      984.472      402.893        0.218        0.092       50.303        8.200        0.027      336.438        7.740      860.093
03/21/2014  02:16:00      -52.194      -32.382        3.259       30.294       31.448       19.365      917.716      988.970      375.022        0.303        0.114       61.423       14.504        0.056      336.393        7.665      860.104
03/21/2014  02:17:00      -51.853      -20.572        0.918       31.774       20.111       15.907     1009.593      404.452      253.032        0.239        0.083       55.785        4.616        0.007      336.322        7.546      860.115
03/21/2014  02:18:00      -52.077      -18.844        1.134       32.119       30.699       19.858     1031.613      942.451      394.351        0.272        0.118       55.381       17.580        0.101      336.120        7.209      860.123
03/21/2014  02:19:00      -25.361        5.289       11.541       34.825       28.892       19.354     1212.748      834.728      374.564        0.161        0.121       25.907       19.223        0.551      336.089        7.156      860.131
03/21/2014  02:20:00      -90.921      -71.301       -0.322       51.829       37.224       24.744     2686.289     1385.621      612.281        0.902        0.234      115.544       25.183        0.048      335.947        6.919      860.124
03/21/2014  02:21:00      -79.449      -71.013        2.474       38.518       33.504       22.832     1483.614     1122.515      521.321        0.724        0.156      106.559       24.166        0.051      335.856        6.768      860.123
03/21/2014  02:22:00      -76.466      -70.731        8.888       54.220       40.818       31.172     2939.841     1666.090      971.724        0.825        0.279      104.163       30.847        0.088      335.883        6.814      860.116
03/21/2014  02:23:00      -71.989      -67.087        2.174       50.520       32.945       27.273     2552.272     1085.343      743.789        0.703        0.219       98.403       25.369        0.066      335.835        6.733      860.117
03/21/2014  02:24:00      -85.225      -49.951       -8.274       28.916       21.436       22.060      836.155      459.498      486.651        0.580        0.089       98.785       17.300        0.031      335.931        6.892      860.117
03/21/2014  02:25:00      -76.909      -51.478       -7.646       19.523       20.594       14.672      381.154      424.118      215.262        0.482        0.051       92.547        3.077        0.001      335.888        6.821      860.116
03/21/2014  02:26:00      -83.968      -46.727       -4.042       35.471       23.637       18.210     1258.177      558.727      331.610        0.570        0.107       96.094       14.462        0.023      335.858        6.771      860.122
03/21/2014  02:27:00      -82.174      -49.766        1.787       43.042       22.185       21.698     1852.590      492.189      470.820        0.602        0.141       96.069       18.933        0.039      335.901        6.843      860.116
03/21/2014  02:28:00      -93.298      -72.688       -2.638       32.650       31.757       21.478     1066.053     1008.530      461.289        0.827        0.127      118.271       21.164        0.032      335.923        6.880      860.100
03/21/2014  02:29:00     -102.116      -89.896       -4.597       28.563       27.469       21.420      815.864      754.521      458.836        1.028        0.101      136.047       13.570        0.010      335.982        6.977      860.069
03/21/2014  02:30:00      -65.882      -40.966        0.662       45.362       26.954       19.402     2057.673      726.534      376.430        0.459        0.158       77.580       20.192        0.068      336.051        7.093      860.049
03/21/2014  02:31:00      -97.652      -41.272        0.341       32.623       26.340       15.574     1064.286      693.802      242.542        0.662        0.100      106.015       13.182        0.015      336.039        7.072      860.033
03/21/2014  02:32:00     -114.186      -45.791       -7.354       26.389       20.715       13.357      696.391      429.131      178.421        0.825        0.065      123.025        6.198        0.003      336.016        7.034      860.013
03/21/2014  02:33:00      -88.919      -49.945        2.115       28.282       21.371       12.232      799.894      456.712      149.619        0.591        0.070      101.986        6.781        0.004      336.059        7.107      860.002
03/21/2014  02:34:00     -103.330       -6.024      -11.457       29.985       25.714       16.800      899.128      661.198      282.225        0.634        0.092      103.505       14.853        0.021      335.956        6.935      860.003
03/21/2014  02:35:00      -63.249      -18.305        1.817       26.486       19.505       15.520      701.483      380.426      240.880        0.283        0.066       65.845       14.764        0.050      335.871        6.792      860.010
03/21/2014  02:36:00      -72.636      -23.054        2.479       26.602       20.194       15.765      707.658      407.796      248.550        0.359        0.068       76.207       15.402        0.041      335.819        6.707      860.029
03/21/2014  02:37:00      -75.103      -12.675       -5.670       27.131       24.268       13.475      736.078      588.951      181.587        0.367        0.075       76.165       10.061        0.017      335.813        6.698      860.048
03/21/2014  02:38:00      -72.308      -48.264       -9.122       27.652       20.202        8.557      764.642      408.118       73.223        0.444        0.062       86.936        6.990        0.006      335.922        6.877      860.051
03/21/2014  02:39:00      -63.238      -27.159       -0.515       27.184       21.899       14.323      738.959      479.585      205.135        0.308        0.071       68.823       12.818        0.035      335.905        6.850      860.052
03/21/2014  02:40:00      -79.588      -16.599       -2.651       32.874       15.130       16.430     1080.685      228.917      269.945        0.410        0.079       81.301       20.056        0.061      335.763        6.616      860.061
03/21/2014  02:41:00      -63.409      -39.474       10.947       35.109       23.447       21.679     1232.647      549.746      470.001        0.398        0.113       74.692       21.610        0.084      335.785        6.651      860.061
03/21/2014  02:42:00      -19.814      -38.354       10.495       41.312       38.481       22.745     1706.719     1480.781      517.354        0.284        0.185       43.170       22.320        0.267      335.776        6.634      860.050
03/21/2014  02:43:00      -65.776      -45.296        4.857       42.110       28.300       18.031     1773.287      800.884      325.116        0.465        0.145       79.864       15.326        0.037      335.693        6.496      860.042
03/21/2014  02:44:00      -77.243      -46.103        7.242       53.011       25.203       23.306     2810.117      635.186      543.189        0.607        0.199       89.955       24.892        0.077      335.816        6.701      860.040
03/21/2014  02:45:00      -99.558      -93.112       -1.614       42.281       35.462       25.302     1787.690     1257.582      640.215        1.113        0.184      136.315       26.507        0.038      335.676        6.468      860.027
03/21/2014  02:46:00      -73.933      -86.202       -5.425       27.747       38.154       22.815      769.882     1455.691      520.520        0.784        0.137      113.565       19.778        0.030      335.715        6.534      860.013
03/21/2014  02:47:00      -68.171      -54.298        7.467       40.581       29.715       23.312     1646.813      882.952      543.446        0.536        0.154       87.153       23.809        0.075      335.718        6.539      860.016
03/21/2014  02:48:00      -25.638      -18.581       12.270       29.225       19.795       17.537      854.122      391.837      307.554        0.135        0.078       31.663       17.941        0.321      335.684        6.483      860.029
03/21/2014  02:49:00      -74.409      -40.600       -5.459       19.023       26.318       11.521      361.887      692.633      132.743        0.420        0.059       84.765        8.471        0.010      335.590        6.326      860.033
03/21/2014  02:50:00      -79.612      -38.434       -5.402       25.131       15.614       11.493      631.561      243.810      132.100        0.443        0.050       88.404       11.586        0.017      335.509        6.191      860.027
03/21/2014  02:51:00      -67.487      -24.289       -3.525       16.938       15.404       11.662      286.912      237.271      135.996        0.291        0.033       71.725        8.338        0.014      335.505        6.184      860.017
03/21/2014  02:52:00      -79.673      -39.961        0.219       27.808       27.267       18.120      773.259      743.499      328.348        0.489        0.092       89.133       17.766        0.040      335.453        6.097      860.011
03/21/2014  02:53:00      -64.474      -65.470       10.674       60.745       43.048       20.430     3689.958     1853.110      417.369        0.726        0.298       91.887       27.059        0.087      335.494        6.165      860.007
03/21/2014  02:54:00      -74.908      -56.567        3.332       40.498       31.940       23.485     1640.128     1020.176      551.531        0.602        0.161       93.867       20.511        0.048      335.548        6.254      860.006
03/21/2014  02:55:00      -98.946      -51.835        1.937       35.859       31.423       22.252     1285.834      987.391      495.164        0.762        0.138      111.701       20.330        0.033      335.580        6.309      860.000
03/21/2014  02:56:00      -67.404      -48.859        2.116       39.584       28.503       20.208     1566.916      812.431      408.361        0.486        0.139       83.250       17.034        0.042      335.509        6.191      859.991
03/21/2014  02:57:00      -61.465      -35.609       -0.661       43.673       24.367       19.068     1907.373      593.768      363.574        0.396        0.143       71.035       22.837        0.103      335.436        6.068      859.995
03/21/2014  02:58:00      -20.747      -58.812       12.350       26.131       40.968       20.545      682.828     1678.395      422.116        0.341        0.139       62.364       23.136        0.138      335.453        6.097      859.988
03/21/2014  02:59:00      -54.356      -44.690       -8.442       14.343       24.845        9.742      205.732      617.271       94.915        0.297        0.046       70.369        7.280        0.011      335.457        6.106      859.986
03/21/2014  03:00:00      -49.527      -48.713       -6.145       23.375       17.696       13.987      546.384      313.162      195.628        0.296        0.053       69.469       11.439        0.027      335.521        6.210      859.987
03/21/2014  03:01:00      -17.614      -28.469        1.360       26.615       20.005       19.119      708.361      400.212      365.532        0.130        0.074       33.477       17.638        0.278      335.505        6.184      859.983
03/21/2014  03:02:00      -78.850      -71.765       -4.733       45.598       21.177       19.496     2079.179      448.485      380.077        0.715        0.145      106.619       22.275        0.044      335.446        6.085      859.960
03/21/2014  03:03:00      -79.357      -72.533        4.309       44.404       28.157       22.225     1971.672      792.815      493.942        0.742        0.163      107.511       20.163        0.035      335.383        5.980      859.951
03/21/2014  03:04:00      -93.602      -67.718       -4.401       20.288       25.854       13.842      411.606      668.432      191.595        0.732        0.064      115.529        8.740        0.006      335.337        5.904      859.950
03/21/2014  03:05:00      -54.266      -46.888        1.378       42.119       26.083       20.632     1773.980      680.321      425.698        0.401        0.144       71.717       20.257        0.080      335.337        5.902      859.930
03/21/2014  03:06:00      -66.248      -46.991       -2.563       28.788       22.156       16.485      828.750      490.889      271.760        0.410        0.080       81.222       13.757        0.029      335.342        5.911      859.914
03/21/2014  03:07:00      -34.957      -49.770        0.459       15.002       11.925       11.634      225.053      142.216      135.351        0.210        0.025       60.820        9.054        0.022      335.524        6.214      859.917
03/21/2014  03:08:00      -48.949      -25.116       -6.562       20.805       15.087       11.992      432.835      227.617      143.797        0.194        0.040       55.016       11.071        0.040      335.582        6.313      859.907
03/21/2014  03:09:00      -50.323       -6.300       -6.105       12.320        7.614        9.353      151.779       57.973       87.475        0.145        0.015       50.716        6.558        0.017      335.527        6.220      859.911
03/21/2014  03:10:00      -71.250      -30.566       -6.472       21.655       14.865       15.383      468.923      220.962      236.641        0.349        0.046       77.530       10.537        0.018      335.380        5.976      859.922
03/21/2014  03:11:00      -69.804      -30.311        5.736       21.836       16.335       15.668      476.812      266.825      245.498        0.341        0.049       76.101       14.678        0.037      335.334        5.897      859.924
03/21/2014  03:12:00      -23.010      -34.881        5.544       31.582       14.840       15.739      997.450      220.234      247.702        0.162        0.073       41.787        9.283        0.049      335.432        6.062      859.918
03/21/2014  03:13:00       -9.259      -24.739        7.815       17.170       18.898       13.906      294.825      357.142      193.376        0.080        0.042       26.415        9.360        0.126      335.536        6.234      859.914
03/21/2014  03:14:00      -14.764      -14.999        5.333       26.910       15.870       12.450      724.160      251.864      155.008        0.080        0.057       21.046       13.102        0.388      335.400        6.008      859.915
03/21/2014  03:15:00      -62.312      -36.041        6.622       35.540       24.319       23.274     1263.060      591.393      541.668        0.381        0.120       71.984       16.864        0.055      335.440        6.073      859.917
03/21/2014  03:16:00      -60.334      -36.098        4.175       26.951       29.407       15.781      726.369      864.755      249.048        0.340        0.092       70.308       14.305        0.041      335.536        6.236      859.913
03/21/2014  03:17:00      -67.248      -43.690        1.589       36.576       25.596       14.651     1337.796      655.181      214.662        0.432        0.110       80.194        6.993        0.008      335.585        6.317      859.913
03/21/2014  03:18:00      -39.767      -26.929        3.507       30.961       23.437       17.199      958.596      549.271      295.799        0.206        0.090       48.027        9.885        0.042      335.514        6.199      859.901
03/21/2014  03:19:00      -36.709      -29.934       -1.818       21.243       24.228       12.440      451.276      587.004      154.765        0.172        0.060       47.367        9.490        0.040      335.478        6.139      859.893
03/21/2014  03:20:00      -12.875      -17.294        0.543       20.471       15.404       12.028      419.051      237.276      144.679        0.063        0.040       21.561        7.511        0.121      335.528        6.222      859.881
03/21/2014  03:21:00       -3.581       -6.963       -0.740       12.283       13.446        5.316      150.868      180.806       28.265        0.021        0.018        7.829        5.611        0.514      335.560        6.275      859.874
03/21/2014  03:22:00      -18.426      -22.968       -0.350       19.824       11.106        8.912      392.972      123.350       79.421        0.073        0.030       29.446        6.867        0.054      335.594        6.331      859.853
03/21/2014  03:23:00      -11.264      -14.821        4.376       19.681       13.942       10.832      387.333      194.391      117.332        0.053        0.035       18.616       11.282        0.367      335.512        6.194      859.835
03/21/2014  03:24:00      -46.615      -10.956       -3.005       16.714       13.140        6.746      279.346      172.655       45.513        0.140        0.025       47.885        3.513        0.005      335.306        5.850      859.820
03/21/2014  03:25:00      -29.671      -22.240        2.450       14.056       11.813        9.542      197.579      139.555       91.056        0.090        0.021       37.081        8.525        0.053      335.248        5.754      859.818
03/21/2014  03:26:00      -61.568      -26.796      -14.117       13.623        8.458        7.170      185.580       71.543       51.415        0.251        0.015       67.146        7.671        0.013      335.262        5.776      859.807
03/21/2014  03:27:00      -79.190      -42.191      -12.435       12.019        7.176        6.721      144.465       51.497       45.171        0.422        0.012       89.728        2.483        0.001      335.217        5.702      859.791
03/21/2014  03:28:00      -65.050      -16.219       -8.194       15.133       16.248        9.813      229.013      264.013       96.304        0.258        0.029       67.041        9.187        0.019      335.158        5.606      859.787
03/21/2014  03:29:00      -76.035       -8.668       -5.656       25.195       12.801       14.191      634.787      163.858      201.373        0.344        0.050       76.528       13.556        0.031      335.103        5.514      859.796
03/21/2014  03:30:00      -94.581      -13.063      -10.019       15.313       11.961       10.654      234.498      143.062      113.518        0.485        0.025       95.479        4.967        0.003      335.124        5.550      859.792
03/21/2014  03:31:00      -83.392       -9.750       -0.764       32.382       20.563       17.728     1048.585      422.827      314.283        0.442        0.089       83.960       19.480        0.054      335.007        5.355      859.785
03/21/2014  03:32:00      -21.428      -30.682       -1.594       23.514       16.418       13.768      552.901      269.563      189.559        0.121        0.051       37.424       12.089        0.104      335.005        5.353      859.779
03/21/2014  03:33:00      -19.308      -16.194       -7.107       18.668       12.943       11.603      348.507      167.512      134.634        0.067        0.033       25.200       10.665        0.179      335.090        5.493      859.778
03/21/2014  03:34:00      -79.946      -24.494      -11.218       13.802        9.282       12.038      190.491       86.156      144.925        0.377        0.021       83.614        8.782        0.011      335.343        5.912      859.770
03/21/2014  03:35:00      -62.837      -27.835       -8.454       21.298       14.444       10.276      453.609      208.629      105.591        0.278        0.038       68.726        7.034        0.010      335.194        5.665      859.772
03/21/2014  03:36:00      -85.976      -32.432      -13.437       19.045       14.883       10.870      362.697      221.494      118.162        0.466        0.035       91.889        8.149        0.008      335.058        5.441      859.768
03/21/2014  03:37:00     -102.801      -18.817      -10.895       23.065       15.675       13.012      532.006      245.693      169.302        0.599        0.047      104.509       12.045        0.013      334.894        5.167      859.761
03/21/2014  03:38:00     -124.478      -31.916       -8.760       20.703       17.495       10.921      428.598      306.076      119.273        0.872        0.043      128.505        9.616        0.006      334.847        5.089      859.752
03/21/2014  03:39:00      -88.938      -14.597        0.160       41.469       21.166       21.758     1719.682      447.980      473.400        0.538        0.132       90.128       21.204        0.055      334.726        4.888      859.748
03/21/2014  03:40:00     -126.063      -20.555      -17.700       24.719       15.955       16.393      611.025      254.550      268.725        0.888        0.057      127.728        8.106        0.004      334.557        4.608      859.752
03/21/2014  03:41:00     -143.881      -17.750      -13.371       15.306       15.327       13.227      234.264      234.906      174.965        1.092        0.032      144.972        6.128        0.002      334.529        4.561      859.749
03/21/2014  03:42:00     -115.909      -10.409       -0.566       41.329       26.677       21.499     1708.057      711.672      462.228        0.821        0.144      116.376       22.365        0.037      334.565        4.622      859.741
03/21/2014  03:43:00      -85.107      -33.611        7.515       32.920       22.402       16.902     1083.757      501.840      285.693        0.515        0.094       91.504       17.393        0.036      334.656        4.772      859.733
03/21/2014  03:44:00      -83.662      -36.653       -7.332       16.917       18.085       10.994      286.196      327.081      120.858        0.457        0.037       91.339        4.935        0.003      334.952        5.264      859.733
03/21/2014  03:45:00      -64.384      -18.502       -1.543       22.746       16.220       11.085      517.379      263.075      122.875        0.270        0.045       66.990        9.843        0.022      334.863        5.116      859.728
03/21/2014  03:46:00      -64.855      -23.030        0.875       27.449       18.701       14.274      753.442      349.713      203.741        0.302        0.065       68.823       14.936        0.047      334.910        5.195      859.728
03/21/2014  03:47:00      -80.165      -30.544        4.345       42.290       23.578       13.639     1788.436      555.901      186.032        0.495        0.127       85.786       15.328        0.032      334.974        5.301      859.728
03/21/2014  03:48:00      -90.584      -34.284        1.737       33.873       25.813       18.817     1147.360      666.306      354.061        0.578        0.108       96.855       18.436        0.036      334.928        5.223      859.743
03/21/2014  03:49:00     -103.377      -25.986        1.513       36.139       24.860       17.477     1306.052      617.997      305.457        0.680        0.111      106.593       18.226        0.029      334.803        5.016      859.746
03/21/2014  03:50:00     -134.495      -44.617        1.256       41.863       37.732       24.550     1752.512     1423.684      602.705        1.193        0.189      141.703       26.542        0.035      334.710        4.861      859.732
03/21/2014  03:51:00     -149.478      -46.014        0.100       37.202       35.651       21.923     1383.989     1270.976      480.633        1.380        0.157      156.400       15.832        0.010      334.801        5.013      859.736
03/21/2014  03:52:00     -115.515      -45.532        6.627       35.244       39.650       20.153     1242.121     1572.111      406.135        0.934        0.161      124.165       19.279        0.024      334.716        4.873      859.730
03/21/2014  03:53:00     -157.144      -63.440       -2.341       33.512       24.375       22.896     1123.075      594.125      524.227        1.548        0.112      169.467       20.430        0.015      334.646        4.756      859.724
03/21/2014  03:54:00     -136.260      -60.244       -0.702       33.518       29.639       17.312     1123.424      878.470      299.719        1.225        0.115      148.984       16.936        0.013      334.650        4.762      859.733
03/21/2014  03:55:00     -103.992      -50.022        4.114       40.410       31.820       22.144     1632.979     1012.486      490.347        0.823        0.157      115.397       22.603        0.038      334.610        4.696      859.743
03/21/2014  03:56:00     -141.592      -67.570       -5.098       27.738       22.496       18.857      769.375      506.078      355.578        1.314        0.082      156.889       14.499        0.009      334.656        4.773      859.747
03/21/2014  03:57:00      -98.496      -45.628        3.516       40.598       26.427       23.652     1648.195      698.407      559.428        0.735        0.145      108.551       22.322        0.042      334.723        4.883      859.753
03/21/2014  03:58:00      -84.930      -59.533        1.036       50.552       31.907       29.470     2555.552     1018.054      868.506        0.760        0.222      103.717       28.754        0.077      334.781        4.980      859.754
03/21/2014  03:59:00     -102.805      -79.973        3.375       42.905       37.063       26.585     1840.868     1373.647      706.751        1.045        0.196      130.248       22.317        0.029      334.785        4.986      859.753
03/21/2014  04:00:00     -117.804      -66.073       -0.940       37.096       37.818       21.852     1376.100     1430.224      477.515        1.076        0.164      135.068       17.966        0.018      334.746        4.920      859.749
03/21/2014  04:01:00     -120.441      -82.790       -4.491       42.763       28.163       23.949     1828.675      793.128      573.575        1.229        0.160      146.152       12.224        0.007      334.746        4.921      859.745
03/21/2014  04:02:00      -97.147      -48.204        1.276       42.176       38.670       27.736     1778.786     1495.399      769.272        0.790        0.202      108.449       26.083        0.058      334.746        4.922      859.735
03/21/2014  04:03:00     -132.010      -68.130       -8.391       30.581       28.231       17.255      935.199      797.012      297.749        1.208        0.101      148.554       15.166        0.010      334.758        4.941      859.727
03/21/2014  04:04:00     -135.412      -43.025       -1.330       24.230       24.780       15.814      587.074      614.060      250.083        1.082        0.073      142.083       12.359        0.008      334.652        4.765      859.728
03/21/2014  04:05:00     -107.821      -31.453        1.558       36.721       31.024       20.910     1348.462      962.504      437.220        0.768        0.137      112.315       18.727        0.028      334.539        4.577      859.722
03/21/2014  04:06:00      -75.316      -43.200        1.645       36.223       28.719       17.255     1312.134      824.781      297.730        0.499        0.122       86.826       18.808        0.047      334.580        4.646      859.728
03/21/2014  04:07:00     -103.446      -48.104       -1.712       24.189       19.814       12.897      585.116      392.606      166.321        0.708        0.057      114.084       13.371        0.014      334.677        4.807      859.719
03/21/2014  04:08:00      -82.922      -39.620       -2.689       30.314       20.692       17.576      918.915      428.159      308.899        0.505        0.083       91.901       16.668        0.033      334.620        4.713      859.712
03/21/2014  04:09:00     -118.274      -39.083       -7.012       11.828       12.117        8.502      139.909      146.824       72.285        0.796        0.018      124.564        4.480        0.001      334.552        4.598      859.717
03/21/2014  04:10:00     -116.462      -38.012       -2.010       17.916       18.217       11.375      320.966      331.843      129.396        0.790        0.039      122.508        9.204        0.006      334.538        4.576      859.704
03/21/2014  04:11:00     -101.223      -51.093        2.456       28.894       23.813       17.037      834.862      567.065      290.258        0.728        0.085      113.387       13.298        0.014      334.563        4.618      859.697
03/21/2014  04:12:00     -121.431      -49.586       -5.211       26.984       26.648       16.760      728.129      710.090      280.884        0.947        0.086      131.164        8.139        0.004      334.504        4.519      859.697
03/21/2014  04:13:00     -137.015      -23.630       -5.878       33.152       21.619       19.605     1099.040      467.388      384.355        1.066        0.098      139.038       18.026        0.017      334.365        4.290      859.689
03/21/2014  04:14:00     -108.121      -30.547        1.928       41.817       25.936       19.592     1748.672      672.701      383.832        0.772        0.140      112.354       21.336        0.036      334.321        4.217      859.684
03/21/2014  04:15:00     -106.822      -23.387        0.615       39.488       28.981       20.531     1559.282      839.884      421.522        0.739        0.141      109.352       18.753        0.029      334.370        4.298      859.687
03/21/2014  04:16:00     -125.651      -56.514        1.285       33.485       42.116       18.403     1121.245     1773.790      338.660        1.111        0.162      137.776       10.669        0.006      334.469        4.462      859.682
03/21/2014  04:17:00      -86.574      -34.272        5.059       54.942       26.138       20.182     3018.625      683.176      407.310        0.640        0.205       93.111       25.514        0.075      334.516        4.541      859.688
03/21/2014  04:18:00      -92.248      -32.267       -4.640       35.012       20.813       16.886     1225.843      433.185      285.123        0.576        0.097       97.729       13.492        0.019      334.471        4.466      859.694
03/21/2014  04:19:00     -105.161      -36.675       -0.804       29.691       26.653       18.019      881.576      710.375      324.671        0.716        0.096      111.372       15.557        0.020      334.496        4.508      859.684
03/21/2014  04:20:00     -101.668      -29.195        3.789       39.974       27.941       16.359     1597.890      780.724      267.608        0.692        0.132      105.777       15.266        0.021      334.600        4.679      859.668
03/21/2014  04:21:00     -121.387      -70.200        3.248       35.832       27.121       20.246     1283.922      735.532      409.902        1.105        0.121      140.224       18.296        0.017      334.467        4.460      859.657
03/21/2014  04:22:00     -137.383      -69.542        0.311       42.421       28.491       22.235     1799.554      811.762      494.412        1.341        0.155      153.981       19.493        0.016      334.442        4.418      859.638
03/21/2014  04:23:00     -152.495      -66.424       -7.097       42.323       32.290       18.370     1791.222     1042.651      337.469        1.544        0.159      166.334        9.799        0.003      334.426        4.391      859.629
03/21/2014  04:24:00     -171.420      -53.646       -5.511       30.815       38.051       19.414      949.584     1447.886      376.919        1.753        0.139      179.618       11.426        0.004      334.440        4.413      859.630
03/21/2014  04:25:00     -124.853      -59.060       -3.625       43.391       37.268       25.192     1882.746     1388.870      634.637        1.150        0.195      138.118       20.105        0.021      334.443        4.419      859.620
03/21/2014  04:26:00      -94.835      -55.087       -1.071       48.778       39.689       24.627     2379.329     1575.192      606.505        0.829        0.228      109.673       21.363        0.038      334.471        4.465      859.623
03/21/2014  04:27:00      -93.187      -55.844        7.866       58.793       32.752       22.867     3456.655     1072.700      522.884        0.846        0.253      108.639       24.666        0.052      334.465        4.457      859.630
03/21/2014  04:28:00      -70.682      -62.600        6.471       38.439       38.699       23.960     1477.532     1497.594      574.065        0.625        0.177       94.418       18.476        0.038      334.434        4.404      859.637
03/21/2014  04:29:00      -73.367      -67.582        2.253       41.787       37.961       25.838     1746.165     1441.008      667.621        0.690        0.193       99.750       23.092        0.054      334.453        4.437      859.630
03/21/2014  04:30:00      -52.803      -53.684        4.492       39.542       36.397       24.011     1563.536     1324.716      576.528        0.458        0.173       75.301       24.312        0.104      334.457        4.443      859.625
03/21/2014  04:31:00      -30.886      -50.655       13.986       32.444       29.203       22.241     1052.616      852.815      494.668        0.306        0.120       59.329       18.877        0.101      334.521        4.548      859.628
03/21/2014  04:32:00      -35.087      -31.607       12.791       37.100       24.545       19.617     1376.434      602.481      384.818        0.238        0.118       47.224       19.709        0.174      334.385        4.323      859.629
03/21/2014  04:33:00      -52.729      -68.802        2.802       38.019       36.171       23.121     1445.421     1308.374      534.579        0.540        0.164       86.684       20.662        0.057      334.428        4.394      859.626
03/21/2014  04:34:00      -55.121      -92.347       -1.632       37.989       25.286       24.601     1443.141      639.393      605.211        0.713        0.134      107.547       20.473        0.036      334.449        4.429      859.634
03/21/2014  04:35:00     -124.485     -114.852      -18.210       26.284       28.681       21.719      690.853      822.581      471.718        1.550        0.099      169.374       15.138        0.008      334.428        4.395      859.642
03/21/2014  04:36:00     -123.252     -111.899       -9.978       29.330       29.258       20.676      860.246      856.021      427.503        1.498        0.107      166.470       11.612        0.005      334.412        4.368      859.642
03/21/2014  04:37:00     -114.292      -66.332        4.830       45.756       32.466       21.161     2093.581     1054.012      447.802        1.054        0.180      132.146       21.634        0.027      334.421        4.383      859.642
03/21/2014  04:38:00      -94.873      -56.056        6.630       67.019       34.813       27.105     4491.485     1211.942      734.675        0.931        0.322      110.196       24.127        0.048      334.351        4.267      859.645
03/21/2014  04:39:00      -96.962      -60.409        9.197       59.666       37.911       30.092     3560.049     1437.257      905.532        0.952        0.295      114.241       31.890        0.078      334.364        4.288      859.650
03/21/2014  04:40:00      -81.404      -63.998        9.112       58.263       42.829       32.750     3394.615     1834.304     1072.573        0.855        0.315      103.549       30.637        0.088      334.414        4.371      859.642
03/21/2014  04:41:00      -83.444      -58.144       10.391       57.858       50.549       25.182     3347.563     2555.192      634.149        0.849        0.327      101.703       28.512        0.079      334.371        4.300      859.635
03/21/2014  04:42:00      -96.142      -64.368        3.162       57.671       42.325       30.716     3325.966     1791.443      943.490        0.973        0.303      115.700       28.629        0.061      334.394        4.338      859.629
03/21/2014  04:43:00     -100.508      -99.685       -0.777       53.894       46.478       26.058     2904.588     2160.227      679.044        1.289        0.287      141.559       31.287        0.049      334.326        4.224      859.632
03/21/2014  04:44:00     -112.634     -114.976       -3.124       42.852       42.536       28.672     1836.323     1809.294      822.107        1.519        0.223      160.953       27.755        0.030      334.284        4.154      859.618
03/21/2014  04:45:00     -123.338     -135.902      -15.673       44.575       36.807       23.418     1986.909     1354.737      548.403        1.891        0.195      183.525       20.774        0.013      334.247        4.093      859.597
03/21/2014  04:46:00     -119.935     -133.653      -26.828       29.925       25.460       16.528      895.507      648.224      273.163        1.739        0.091      179.576       12.425        0.005      334.229        4.063      859.593
03/21/2014  04:47:00      -87.762      -81.113        5.567       41.407       51.766       25.551     1714.572     2679.762      652.874        0.968        0.252      119.506       28.476        0.057      334.236        4.076      859.589
03/21/2014  04:48:00      -74.718      -46.986        9.011       51.031       37.815       26.199     2604.163     1430.007      686.401        0.630        0.236       88.264       27.928        0.100      334.240        4.083      859.586
03/21/2014  04:49:00      -74.505      -74.115       -4.083       33.562       32.480       23.380     1126.391     1054.961      546.625        0.689        0.136      105.090       13.891        0.017      334.252        4.103      859.587
03/21/2014  04:50:00      -78.228      -55.876        1.350       33.117       28.771       24.551     1096.720      827.746      602.752        0.588        0.126       96.134       19.861        0.043      334.213        4.038      859.606
03/21/2014  04:51:00     -107.578      -60.623       -3.806       41.497       26.419       24.382     1722.010      697.980      594.491        0.914        0.151      123.484       24.127        0.038      334.113        3.872      859.609
03/21/2014  04:52:00      -96.042      -70.282        4.734       38.578       30.323       21.487     1488.254      919.459      461.677        0.853        0.143      119.010       19.118        0.026      334.089        3.831      859.608
03/21/2014  04:53:00      -82.811      -70.272        2.257       40.769       37.538       21.870     1662.100     1409.091      478.301        0.767        0.177      108.608       22.620        0.043      334.158        3.944      859.602
03/21/2014  04:54:00      -90.387      -54.066        7.919       45.972       36.443       27.609     2113.383     1328.102      762.249        0.768        0.210      105.323       23.039        0.048      334.149        3.931      859.606
03/21/2014  04:55:00      -70.255      -48.081        5.533       46.730       41.267       31.163     2183.686     1702.995      971.106        0.607        0.243       85.132       28.655        0.113      334.142        3.919      859.590
03/21/2014  04:56:00      -98.207      -69.479        5.390       39.580       33.596       22.331     1566.546     1128.659      498.662        0.885        0.160      120.299       21.813        0.033      334.188        3.997      859.583
03/21/2014  04:57:00      -76.351      -63.850        1.119       44.979       34.949       21.623     2023.085     1221.401      467.534        0.681        0.186       99.530       18.508        0.035      334.201        4.018      859.586
03/21/2014  04:58:00      -73.788      -70.358        0.435       38.357       41.257       21.557     1471.246     1702.170      464.707        0.702        0.182      101.956       21.501        0.044      334.182        3.985      859.581
03/21/2014  04:59:00      -64.047      -58.109        0.608       43.772       33.439       23.981     1915.946     1118.135      575.083        0.554        0.180       86.479       18.916        0.048      334.293        4.171      859.576
03/21/2014  05:00:00      -52.055      -51.193        7.518       53.019       29.993       27.957     2811.062      899.560      781.572        0.494        0.225       73.009       23.508        0.104      334.240        4.083      859.583
03/21/2014  05:01:00      -61.467      -49.569        7.289       45.769       34.585       19.890     2094.782     1196.137      395.628        0.499        0.184       78.964       20.288        0.066      334.187        3.994      859.589
03/21/2014  05:02:00      -78.690      -65.544        3.726       49.705       30.053       21.487     2470.564      903.175      461.710        0.717        0.192      102.412       20.541        0.040      334.182        3.986      859.588
03/21/2014  05:03:00     -107.182      -54.477        0.491       39.748       33.281       23.633     1579.887     1107.594      558.504        0.885        0.162      120.232       21.882        0.033      334.210        4.032      859.589
03/21/2014  05:04:00      -93.314      -40.411       -5.271       28.312       34.634       18.332      801.596     1199.517      336.068        0.635        0.117      101.689       12.631        0.015      334.199        4.015      859.606
03/21/2014  05:05:00     -105.584       -6.201      -12.443       13.648       16.592       10.626      186.279      275.309      112.908        0.596        0.029      105.766        2.982        0.001      333.989        3.666      859.597
03/21/2014  05:06:00      -71.842      -12.975        0.928       33.396       14.690       15.438     1115.314      215.796      238.343        0.345        0.078       73.004       14.591        0.040      334.031        3.736      859.598
03/21/2014  05:07:00      -89.060       -6.443       -4.417       29.800       19.039       14.778      888.055      362.469      218.388        0.473        0.073       89.292       14.641        0.027      333.911        3.536      859.608
03/21/2014  05:08:00      -77.989      -12.769       -8.084       26.375       22.491       15.073      695.660      505.855      227.193        0.387        0.071       79.027       15.854        0.040      333.931        3.572      859.612
03/21/2014  05:09:00      -93.820       -6.411       -3.527       29.910       16.853       15.608      894.607      284.024      243.623        0.514        0.071       94.038       15.997        0.029      333.852        3.439      859.607
03/21/2014  05:10:00      -91.233      -19.917       -3.165       35.855       20.428       15.974     1285.549      417.296      255.153        0.534        0.098       93.382       16.721        0.032      333.908        3.532      859.599
03/21/2014  05:11:00     -107.449      -17.638       -4.298       26.233       19.718       18.143      688.160      388.794      329.186        0.664        0.070      108.887       16.895        0.024      333.952        3.606      859.595
03/21/2014  05:12:00      -96.288      -19.849       -1.681       27.058       22.120       14.833      732.124      489.291      220.018        0.555        0.072       98.312       14.468        0.022      333.940        3.586      859.590
03/21/2014  05:13:00      -78.372      -14.858        1.105       35.625       21.974       18.420     1269.155      482.841      339.292        0.423        0.105       79.768       18.054        0.051      333.890        3.500      859.591
03/21/2014  05:14:00      -91.819      -27.818        6.157       31.463       21.375       16.933      989.892      456.911      286.728        0.549        0.087       95.941       15.933        0.028      333.912        3.538      859.579
03/21/2014  05:15:00     -107.303      -33.877       -1.965       22.978       20.804       12.549      528.011      432.810      157.488        0.689        0.056      112.523        9.569        0.007      333.974        3.642      859.580
03/21/2014  05:16:00      -90.208      -31.604        2.651       28.796       27.378       17.040      829.220      749.571      290.355        0.551        0.093       95.584       15.585        0.027      333.965        3.626      859.575
03/21/2014  05:17:00     -100.306      -16.445       -4.288       25.447       23.450       17.822      647.572      549.925      317.611        0.593        0.076      101.645       17.108        0.028      333.946        3.596      859.575
03/21/2014  05:18:00     -100.916      -37.648       -4.773       15.559       20.071       11.596      242.098      402.864      134.474        0.620        0.039      107.710        5.931        0.003      333.862        3.454      859.578
03/21/2014  05:19:00      -83.345      -21.557       -4.353       21.255       16.102        9.697      451.796      259.271       94.025        0.412        0.040       86.088       10.352        0.014      333.909        3.534      859.577
03/21/2014  05:20:00      -89.268      -17.684       -4.827       16.700       14.300       12.670      278.900      204.488      160.526        0.447        0.032       91.002        9.615        0.011      333.879        3.486      859.583
03/21/2014  05:21:00      -84.865      -19.366       -5.986       24.612       20.447       13.348      605.766      418.076      178.156        0.441        0.060       87.046       12.901        0.022      333.936        3.578      859.597
03/21/2014  05:22:00      -43.924      -17.422       -5.129       28.074       16.420       16.070      788.166      269.618      258.247        0.179        0.066       47.253       16.873        0.127      333.966        3.629      859.622
03/21/2014  05:23:00      -48.312      -32.338       -0.737       17.747       13.656       11.455      314.954      186.492      131.215        0.201        0.032       58.136        8.529        0.022      334.032        3.737      859.634
03/21/2014  05:24:00      -35.713      -22.998        0.087       24.759       18.914       12.394      613.005      357.746      153.608        0.146        0.056       42.477       10.881        0.066      333.995        3.675      859.638
03/21/2014  05:25:00      -66.313      -41.843       -0.135       32.087       14.510       14.837     1029.563      210.537      220.130        0.380        0.073       78.411       15.374        0.038      333.905        3.527      859.639
03/21/2014  05:26:00      -66.740      -42.630        3.367       31.249       20.934       15.374      976.519      438.253      236.346        0.397        0.083       79.193       14.661        0.034      333.905        3.527      859.636
03/21/2014  05:27:00      -75.235      -44.180       -1.108       22.900       19.235       18.668      524.417      369.995      348.476        0.443        0.062       87.248       13.657        0.025      333.883        3.490      859.648
03/21/2014  05:28:00      -87.617      -59.031       -3.803       24.953       19.229       16.140      622.658      369.744      260.499        0.621        0.063      105.647       14.836        0.020      333.829        3.401      859.660
03/21/2014  05:29:00      -68.655      -48.113        0.335       29.810       20.070       15.502      888.657      402.804      240.298        0.428        0.077       83.836       14.450        0.030      333.919        3.550      859.662
03/21/2014  05:30:00      -51.438      -33.010        2.798       40.652       20.791       16.631     1652.581      432.277      276.592        0.305        0.118       61.119       17.513        0.082      333.893        3.508      859.670
03/21/2014  05:31:00      -65.018      -61.555       -3.631       25.588       29.238       16.644      654.734      854.844      277.019        0.491        0.089       89.534       15.874        0.031      333.971        3.637      859.671
03/21/2014  05:32:00      -56.446      -40.182        9.479       29.233       23.619       21.959      854.564      557.857      482.193        0.339        0.095       69.287       18.617        0.072      333.909        3.532      859.670
03/21/2014  05:33:00      -70.445      -67.795       -5.215       28.816       24.037       14.721      830.390      577.784      216.700        0.561        0.081       97.768       13.823        0.020      334.011        3.702      859.665
03/21/2014  05:34:00     -100.042      -56.020       -1.498       24.509       27.969       15.951      600.668      782.270      254.447        0.739        0.082      114.659        8.985        0.006      334.001        3.687      859.664
03/21/2014  05:35:00     -111.013      -58.232        1.931       35.161       17.804       15.767     1236.311      316.994      248.591        0.876        0.090      125.359       15.630        0.016      333.979        3.649      859.661
03/21/2014  05:36:00      -43.044      -38.644        5.779       41.322       28.870       22.494     1707.534      833.475      506.000        0.321        0.152       57.846       22.508        0.151      333.875        3.479      859.647
03/21/2014  05:37:00      -86.926      -42.732        0.662       38.395       16.519       15.232     1474.143      272.879      232.015        0.568        0.099       96.862       16.071        0.028      333.808        3.365      859.638
03/21/2014  05:38:00      -94.558      -59.001       -1.340       21.677       19.998       17.489      469.887      399.938      305.862        0.680        0.059      111.456       11.763        0.011      333.827        3.397      859.625
03/21/2014  05:39:00      -64.926      -41.761        1.520       28.621       18.529       20.536      819.159      343.321      421.712        0.377        0.079       77.197       19.439        0.063      333.886        3.497      859.615
03/21/2014  05:40:00      -90.518      -21.952       -2.619       19.822       19.117       12.189      392.893      365.473      148.578        0.479        0.045       93.142        9.359        0.010      333.839        3.418      859.610
03/21/2014  05:41:00      -93.660      -17.142       -6.434       20.901       16.257       13.685      436.843      264.301      187.287        0.500        0.044       95.216       12.278        0.017      333.732        3.239      859.614
03/21/2014  05:42:00     -101.544      -30.037       -6.189       19.779       15.847       14.715      391.219      251.120      216.527        0.606        0.043      105.893       12.578        0.014      333.748        3.267      859.620
03/21/2014  05:43:00      -95.385      -42.026       -4.661       26.848       23.162       12.598      720.802      536.495      158.720        0.615        0.071      104.233       10.704        0.011      333.863        3.458      859.633
03/21/2014  05:44:00     -109.034      -52.636       -1.421       35.681       20.071       16.847     1273.103      402.838      283.829        0.831        0.098      121.075       18.864        0.024      333.788        3.332      859.646
03/21/2014  05:45:00      -89.889      -52.778       -2.500       32.451       22.274       19.327     1053.082      496.133      373.534        0.640        0.096      104.239       18.091        0.030      333.840        3.418      859.648
03/21/2014  05:46:00      -75.305      -37.490        4.254       33.969       22.145       19.262     1153.898      490.384      371.020        0.455        0.101       84.121       19.792        0.055      333.757        3.281      859.658
03/21/2014  05:47:00      -40.012      -38.475       -0.142       36.624       19.631       19.634     1341.303      385.388      385.502        0.260        0.106       55.510       17.733        0.102      333.770        3.303      859.663
03/21/2014  05:48:00      -33.951      -42.090        7.418       32.959       26.216       18.576     1086.312      687.291      345.063        0.255        0.106       54.077       14.732        0.074      333.799        3.350      859.678
03/21/2014  05:49:00      -48.885      -61.102        3.527       29.987       24.335       19.181      899.237      592.211      367.916        0.400        0.093       78.250       18.409        0.055      333.840        3.420      859.689
03/21/2014  05:50:00     -100.867      -89.705      -14.235       12.907       13.941       11.444      166.584      194.342      130.956        0.946        0.025      134.986        5.205        0.001      333.819        3.384      859.692
03/21/2014  05:51:00     -106.741      -68.714       -3.620       32.229       22.561       21.900     1038.704      509.017      479.610        0.908        0.101      126.946       15.382        0.015      333.818        3.381      859.688
03/21/2014  05:52:00      -99.092      -67.868       -0.457       42.525       27.294       22.742     1808.383      744.986      517.194        0.875        0.154      120.105       20.123        0.028      333.781        3.320      859.688
03/21/2014  05:53:00     -110.642      -74.658       -2.299       35.751       28.428       18.729     1278.163      808.123      350.786        1.013        0.122      133.475       15.444        0.013      333.778        3.317      859.688
03/21/2014  05:54:00      -98.544      -57.261        2.901       32.133       27.322       20.217     1032.515      746.468      408.718        0.759        0.109      113.972       17.218        0.023      333.689        3.169      859.700
03/21/2014  05:55:00      -75.868      -45.499        2.964       42.104       28.981       22.376     1772.732      839.901      500.667        0.547        0.156       88.465       22.559        0.065      333.705        3.195      859.714
03/21/2014  05:56:00      -51.763      -29.402       10.562       43.715       25.141       18.761     1911.014      632.065      351.960        0.327        0.145       59.531       16.523        0.077      333.688        3.166      859.721
03/21/2014  05:57:00      -51.988      -35.035        5.010       38.747       22.916       16.761     1501.357      525.149      280.920        0.313        0.115       62.691       16.606        0.070      333.714        3.209      859.728
03/21/2014  05:58:00      -45.803      -44.346        5.301       30.564       26.094       20.099      934.183      680.909      403.984        0.306        0.101       63.754       16.151        0.064      333.750        3.269      859.723
03/21/2014  05:59:00      -70.022      -63.973        1.160       31.345       24.261       16.577      982.505      588.598      274.783        0.542        0.092       94.846       16.991        0.032      333.764        3.293      859.721
03/21/2014  06:00:00      -72.741      -65.200       -8.152       26.772       32.707       14.099      716.725     1069.725      198.779        0.580        0.099       97.685       14.652        0.022      333.787        3.331      859.735
03/21/2014  06:01:00      -61.440      -59.448        5.233       35.819       37.307       25.361     1283.026     1391.825      643.182        0.533        0.166       85.492       13.632        0.025      333.839        3.416      859.739
03/21/2014  06:02:00      -48.909      -39.879        7.902       48.564       40.278       27.908     2358.415     1622.320      778.850        0.440        0.238       63.107       24.172        0.147      333.797        3.347      859.738
03/21/2014  06:03:00     -101.445      -80.728       -0.778       45.327       49.426       32.958     2054.547     2442.944     1086.237        1.120        0.279      129.646       32.297        0.062      333.776        3.313      859.742
03/21/2014  06:04:00     -125.406      -97.812       -2.131       59.630       48.810       31.963     3555.735     2382.456     1021.643        1.613        0.348      159.040       34.786        0.048      333.723        3.224      859.757
03/21/2014  06:05:00     -139.278     -105.227      -16.616       46.239       49.256       25.930     2138.012     2426.113      672.344        1.799        0.262      174.560       12.531        0.005      333.689        3.167      859.774
03/21/2014  06:06:00     -149.410     -100.594       -6.345       36.862       46.872       31.423     1358.833     2197.005      987.435        1.851        0.227      180.118       26.238        0.021      333.686        3.163      859.782
03/21/2014  06:07:00     -174.210     -105.790      -11.481       36.688       41.460       27.629     1345.980     1718.948      763.372        2.275        0.191      203.815       20.284        0.010      333.600        3.017      859.795
03/21/2014  06:08:00     -139.560     -104.907       -0.443       63.636       43.250       30.886     4049.477     1870.563      953.935        1.868        0.344      174.592       31.210        0.032      333.550        2.936      859.801
03/21/2014  06:09:00      -89.767      -89.887        3.424       41.500       36.208       26.741     1722.238     1311.028      715.068        0.995        0.187      127.034       27.103        0.046      333.577        2.982      859.814
03/21/2014  06:10:00      -90.309      -56.706        1.649       35.650       22.688       21.731     1270.893      514.744      472.229        0.682        0.113      106.636       20.381        0.037      333.627        3.065      859.823
03/21/2014  06:11:00      -82.307      -44.717       -4.632       32.147       20.280       15.084     1033.404      411.291      227.517        0.523        0.084       93.670        9.042        0.009      333.612        3.040      859.825
03/21/2014  06:12:00      -84.705       -5.252       -5.331       27.424       27.071       17.181      752.054      732.840      295.173        0.451        0.089       84.867       17.568        0.043      333.504        2.862      859.833
03/21/2014  06:13:00      -99.124        0.061       -5.220       33.020       19.473       17.138     1090.342      379.200      293.703        0.581        0.088       99.124       18.994        0.037      333.389        2.671      859.833
03/21/2014  06:14:00     -104.671      -11.870       -6.017       39.680       22.977       20.522     1574.500      527.948      421.146        0.683        0.126      105.342       19.757        0.035      333.359        2.623      859.838
03/21/2014  06:15:00     -124.473       -7.002       -8.880       29.674       25.666       19.362      880.562      658.718      374.881        0.877        0.096      124.669       18.009        0.021      333.340        2.592      859.844
03/21/2014  06:16:00     -105.076      -20.759        0.533       27.655       30.140       22.844      764.812      908.434      521.867        0.683        0.110      107.106       19.973        0.035      333.440        2.756      859.840
03/21/2014  06:17:00     -112.402      -41.470       -8.607       26.657       21.204       16.802      710.612      449.610      282.295        0.794        0.072      119.808       13.987        0.014      333.593        3.007      859.845
03/21/2014  06:18:00      -75.955      -37.978        4.735       42.111       27.966       18.442     1773.322      782.093      340.103        0.506        0.145       84.920       22.337        0.069      333.598        3.018      859.859
03/21/2014  06:19:00      -98.778      -44.381       -0.652       29.750       26.259       18.336      885.056      689.540      336.223        0.682        0.096      108.290       14.377        0.018      333.560        2.954      859.865
03/21/2014  06:20:00      -74.827      -39.315        9.373       55.016       32.352       24.265     3026.782     1046.632      588.773        0.595        0.233       84.527       28.049        0.110      333.529        2.903      859.866
03/21/2014  06:21:00      -78.027      -41.658        2.317       37.391       27.635       20.324     1398.111      763.714      413.050        0.520        0.129       88.452       19.513        0.049      333.533        2.910      859.877
03/21/2014  06:22:00     -106.871      -58.546        2.887       39.333       27.138       17.075     1547.054      736.450      291.557        0.872        0.129      121.856       20.719        0.029      333.522        2.890      859.887
03/21/2014  06:23:00     -104.475      -51.895       -0.172       31.570       26.523       22.173      996.695      703.457      491.641        0.790        0.110      116.654       19.065        0.027      333.493        2.844      859.892
03/21/2014  06:24:00     -113.662      -19.520       -1.131       33.870       22.148       16.039     1147.162      490.532      257.259        0.760        0.095      115.326       15.376        0.018      333.403        2.694      859.902
03/21/2014  06:25:00     -117.992      -12.773       -9.803       21.534       20.233       17.189      463.731      409.376      295.445        0.767        0.058      118.681       17.078        0.021      333.310        2.541      859.926
03/21/2014  06:26:00      -96.931      -16.908      -12.239       21.893       20.146       17.654      479.300      405.842      311.670        0.551        0.060       98.394       12.821        0.017      333.386        2.666      859.935
03/21/2014  06:27:00      -86.864      -28.707      -10.973       22.018       17.512       15.081      484.809      306.669      227.450        0.475        0.051       91.485       10.185        0.012      333.349        2.605      859.938
03/21/2014  06:28:00      -43.736      -36.076       -2.296       19.077       17.066       12.005      363.938      291.252      144.131        0.201        0.040       56.695       10.090        0.032      333.445        2.764      859.944
03/21/2014  06:29:00      -77.233      -47.417       -7.745       44.765       26.042       20.066     2003.911      678.206      402.625        0.568        0.154       90.628       20.507        0.051      333.366        2.632      859.943
03/21/2014  06:30:00     -122.588      -52.248      -16.175       13.874       16.459        9.303      192.491      270.895       86.543        0.928        0.027      133.258        6.035        0.002      333.333        2.581      859.933
03/21/2014  06:31:00      -96.554      -62.894       -4.237       27.414       12.899       15.550      751.536      166.381      241.800        0.723        0.058      115.232       13.741        0.014      333.386        2.667      859.932
03/21/2014  06:32:00     -105.839      -51.723      -19.220       14.198       12.509        9.753      201.588      156.484       95.128        0.735        0.023      117.802        7.506        0.004      333.396        2.683      859.926
03/21/2014  06:33:00      -88.722      -32.719       -3.242       36.249       22.174       17.368     1314.007      491.680      301.654        0.553        0.105       94.563       21.439        0.051      333.390        2.674      859.916
03/21/2014  06:34:00     -104.145      -54.807       -6.571       19.700       17.711       15.655      388.073      313.689      245.065        0.742        0.047      117.686        9.667        0.007      333.342        2.594      859.915
03/21/2014  06:35:00      -86.490      -43.530       -7.102       28.048       29.030       19.721      786.705      842.725      388.899        0.572        0.101       96.826       16.969        0.031      333.378        2.653      859.934
03/21/2014  06:36:00      -91.130      -25.988       -1.358       30.856       20.344       13.902      952.091      413.884      193.265        0.527        0.078       94.763       13.452        0.020      333.310        2.540      859.945
03/21/2014  06:37:00     -103.102      -19.092       -2.172       30.180       18.003       13.523      910.836      324.112      182.870        0.621        0.071      104.854        9.353        0.008      333.303        2.531      859.960
03/21/2014  06:38:00     -112.396      -16.592       -7.318       18.649       14.556       12.065      347.798      211.863      145.563        0.683        0.035      113.614        9.114        0.006      333.369        2.639      859.980
03/21/2014  06:39:00     -102.645      -18.798       -2.545       27.406       21.638       16.688      751.105      468.186      278.484        0.620        0.075      104.353       17.610        0.028      333.417        2.717      859.993
03/21/2014  06:40:00      -75.060      -32.217        3.829       22.824       19.230       13.173      520.940      369.786      173.521        0.388        0.053       81.682       11.106        0.018      333.455        2.780      860.010
03/21/2014  06:41:00      -94.823      -20.108       -4.456       21.651       16.266       11.922      468.765      264.571      142.145        0.515        0.044       96.931       10.326        0.011      333.509        2.870      860.022
03/21/2014  06:42:00      -74.318      -27.928       -0.538       23.643       22.595       13.351      558.976      510.531      178.259        0.378        0.062       79.392       13.527        0.029      333.506        2.865      860.033
03/21/2014  06:43:00      -85.204      -41.452       -4.928       17.039       17.070        8.471      290.326      291.372       71.755        0.483        0.033       94.752        8.199        0.007      333.533        2.910      860.040
03/21/2014  06:44:00     -106.204      -24.839       -2.999       32.170       19.374       15.776     1034.895      375.369      248.874        0.678        0.083      109.070       18.521        0.029      333.547        2.933      860.041
03/21/2014  06:45:00      -98.373      -45.066       -0.320       31.208       19.237       16.654      973.927      370.072      277.341        0.666        0.081      108.204       16.842        0.024      333.528        2.900      860.045
03/21/2014  06:46:00     -121.218      -63.390       -8.329       17.951       21.996       10.512      322.232      483.829      110.507        0.985        0.046      136.792        7.982        0.003      333.531        2.906      860.047
03/21/2014  06:47:00     -112.694      -65.826      -11.585       28.332       21.953       20.257      802.685      481.917      410.343        0.943        0.085      130.511       14.687        0.013      333.575        2.979      860.056
03/21/2014  06:48:00      -94.507      -55.669       -7.434       25.386       31.338       16.210      644.429      982.081      262.772        0.699        0.094      109.684       10.620        0.009      333.620        3.054      860.073
03/21/2014  06:49:00      -75.576      -47.553        5.606       19.913       22.714       15.410      396.514      515.915      237.465        0.458        0.057       89.292       10.989        0.015      333.603        3.026      860.081
03/21/2014  06:50:00      -49.642      -24.152        0.052       24.333       16.102       11.221      592.077      259.265      125.900        0.201        0.049       55.206       12.512        0.051      333.617        3.050      860.093
03/21/2014  06:51:00      -19.216      -18.815        3.697       31.100       15.611       11.259      967.215      243.704      126.761        0.104        0.067       26.894       15.006        0.311      333.553        2.942      860.107
03/21/2014  06:52:00        4.507       10.443       16.263        9.076       15.217       11.124       82.370      231.547      123.753        0.042        0.022       11.374        6.161        0.293      333.592        3.007      860.127
03/21/2014  06:53:00      -28.333       14.325       -3.479       15.034        7.740        7.812      226.024       59.901       61.025        0.068        0.017       31.749        6.494        0.042      333.672        3.141      860.145
03/21/2014  06:54:00      -47.811       13.498       -5.612       16.865       11.643        7.920      284.438      135.561       62.730        0.149        0.024       49.680        5.841        0.014      333.578        2.984      860.152
03/21/2014  06:55:00      -41.465       -0.316       -0.191       17.541        7.894        9.410      307.673       62.319       88.540        0.109        0.023       41.466        8.626        0.043      333.580        2.990      860.156
03/21/2014  06:56:00      -75.942      -21.005      -11.393       15.957       10.506        7.462      254.629      110.378       55.687        0.338        0.021       78.794        5.000        0.004      333.656        3.113      860.153
03/21/2014  06:57:00     -124.441      -50.344      -13.169       13.503       20.451       10.981      182.327      418.263      120.581        0.946        0.036      134.239        9.319        0.005      333.580        2.988      860.157
03/21/2014  06:58:00      -95.573      -51.343       -3.867       31.981       18.164       18.752     1022.800      329.918      351.623        0.674        0.085      108.491       16.931        0.024      333.506        2.865      860.171
03/21/2014  06:59:00      -74.469      -38.592       -5.649       26.313       27.325       13.507      692.397      746.672      182.428        0.434        0.081       83.875        9.833        0.014      333.486        2.829      860.198
03/21/2014  07:00:00      -89.747      -19.469       -7.262       23.773       16.086       10.807      565.165      258.749      116.798        0.471        0.047       91.834        4.817        0.003      333.437        2.750      860.217
03/21/2014  07:01:00      -81.721       -6.492       -1.686       16.978       17.269       12.814      288.254      298.232      164.197        0.374        0.038       81.978        9.755        0.014      333.450        2.771      860.227
03/21/2014  07:02:00      -50.776      -19.164       -1.374       14.299       15.234       10.142      204.447      232.088      102.868        0.174        0.027       54.272        6.798        0.016      333.514        2.878      860.239
03/21/2014  07:03:00      -58.809       -6.154       -1.565       12.472       13.508       13.072      155.563      182.479      170.868        0.200        0.025       59.130        8.029        0.018      333.456        2.780      860.259
03/21/2014  07:04:00      -60.418       -9.072      -11.327       12.716        9.560        8.826      161.703       91.390       77.890        0.210        0.017       61.096        3.438        0.003      333.451        2.773      860.276
03/21/2014  07:05:00      -62.704      -10.447      -10.577       15.494       10.482       11.022      240.079      109.882      121.488        0.231        0.024       63.568        9.758        0.024      333.443        2.762      860.289
03/21/2014  07:06:00      -52.805      -13.005       -9.480       11.604        5.948        6.315      134.658       35.383       39.883        0.163        0.010       54.383        4.604        0.007      333.458        2.786      860.285
03/21/2014  07:07:00      -26.102       -8.080       -6.286       11.035        6.630        5.789      121.775       43.953       33.511        0.049        0.010       27.324        2.877        0.011      333.555        2.946      860.283
03/21/2014  07:08:00       15.695       10.209       -5.241       13.124        8.234        8.024      172.246       67.805       64.383        0.034        0.015       18.723        6.207        0.110      333.843        3.427      860.282
03/21/2014  07:09:00       -5.065       -1.908       -2.384        7.856       10.572        3.810       61.714      111.766       14.513        0.011        0.009        5.412        3.346        0.382      333.899        3.516      860.288
03/21/2014  07:10:00      -38.244       -3.952       -7.501       26.209       10.704        8.392      686.925      114.582       70.421        0.120        0.044       38.447       10.363        0.073      333.600        3.022      860.292
03/21/2014  07:11:00      -52.021       -2.291       -4.866       22.409       12.200       10.936      502.142      148.830      119.599        0.175        0.039       52.071       12.578        0.058      333.448        2.769      860.289
03/21/2014  07:12:00      -42.536       -9.243       -9.733        6.438        7.101        7.467       41.453       50.423       55.749        0.107        0.007       43.529        2.989        0.005      333.549        2.934      860.292
03/21/2014  07:13:00      -44.836       -3.775      -10.905       11.252        7.075        7.775      126.617       50.051       60.450        0.119        0.012       44.994        5.828        0.017      333.642        3.091      860.294
03/21/2014  07:14:00      -55.024       -4.837       -9.837       12.147        8.864        6.545      147.548       78.572       42.841        0.171        0.013       55.237        3.154        0.003      333.559        2.953      860.303
03/21/2014  07:15:00      -63.948      -13.853      -11.195        8.683        9.713        7.065       75.397       94.345       49.919        0.231        0.011       65.431        5.732        0.008      333.528        2.900      860.309
03/21/2014  07:16:00      -40.646      -18.336       -6.612       16.319        9.188        9.481      266.305       84.423       89.885        0.124        0.022       44.591        6.143        0.019      333.590        3.003      860.316
03/21/2014  07:17:00      -48.586       -9.729       -2.122       11.485        9.382        7.043      131.908       88.014       49.600        0.136        0.013       49.551        4.025        0.007      333.552        2.941      860.322
03/21/2014  07:18:00      -67.602      -14.261       -9.850        9.761       12.354        9.393       95.282      152.630       88.232        0.260        0.017       69.090        7.238        0.011      333.509        2.870      860.326
03/21/2014  07:19:00      -55.700      -35.626       -7.501       21.457       11.313       10.419      460.408      127.975      108.562        0.256        0.035       66.119        5.100        0.006      333.449        2.770      860.326
03/21/2014  07:20:00      -50.104      -38.372       -7.893       14.439       13.584       11.055      208.493      184.514      122.205        0.228        0.026       63.109        6.629        0.011      333.456        2.783      860.329
03/21/2014  07:21:00      -66.881      -52.697       -1.850       26.356       20.383       18.450      694.624      415.456      340.413        0.435        0.073       85.147       13.132        0.024      333.470        2.804      860.336
03/21/2014  07:22:00      -90.726      -46.513       -1.754       28.027       18.836       13.048      785.488      354.781      170.243        0.585        0.066      101.954       11.750        0.013      333.496        2.847      860.341
03/21/2014  07:23:00      -59.907      -46.822        5.558       43.796       21.264       15.009     1918.110      452.144      225.266        0.420        0.130       76.034       14.289        0.035      333.562        2.959      860.340
03/21/2014  07:24:00      -97.392      -53.959        2.393       37.153       23.618       21.400     1380.354      557.792      457.940        0.740        0.120      111.341       15.318        0.019      333.559        2.952      860.341
03/21/2014  07:25:00      -84.420      -47.987        5.701       54.911       25.491       27.095     3015.264      649.789      734.125        0.693        0.220       97.105       24.453        0.063      333.559        2.953      860.341
03/21/2014  07:26:00     -101.559      -56.353       -4.993       37.133       25.170       16.742     1378.896      633.504      280.283        0.790        0.115      116.146       14.737        0.016      333.626        3.063      860.344
03/21/2014  07:27:00      -59.015      -33.132        6.995       37.504       28.556       21.391     1406.547      815.439      457.587        0.365        0.134       67.679       23.757        0.123      333.602        3.025      860.352
03/21/2014  07:28:00      -72.454      -89.174      -11.366       20.470       18.890       13.912      419.021      356.839      193.535        0.715        0.048      114.898       10.813        0.009      333.602        3.023      860.353
03/21/2014  07:29:00      -85.914      -77.330      -14.163       21.010       19.951       15.532      441.421      398.061      241.235        0.732        0.054      115.590       10.528        0.008      333.611        3.041      860.355
03/21/2014  07:30:00      -85.510      -65.975       -5.649       22.857       23.385       16.889      522.446      546.857      285.241        0.653        0.068      108.003       13.027        0.015      333.624        3.062      860.355
03/21/2014  07:31:00     -111.022      -63.540       -4.701       27.542       27.631       17.539      758.574      763.455      307.634        0.911        0.091      127.919        9.288        0.005      333.643        3.093      860.350
03/21/2014  07:32:00      -74.934      -58.206       -0.648       26.589       28.142       17.064      706.987      791.973      291.196        0.540        0.090       94.884       13.492        0.020      333.708        3.200      860.357
03/21/2014  07:33:00      -47.322      -59.119        9.864       26.560       34.335       23.412      705.442     1178.863      548.111        0.413        0.122       75.726       22.669        0.090      333.699        3.185      860.371
03/21/2014  07:34:00      -65.685      -68.056       -0.800       30.227       34.155       17.702      913.647     1166.544      313.364        0.567        0.120       94.584       17.423        0.034      333.691        3.171      860.390
03/21/2014  07:35:00      -85.010      -82.384      -10.517       20.485       29.736       14.135      419.647      884.202      199.793        0.781        0.075      118.380        9.866        0.007      333.647        3.101      860.406
03/21/2014  07:36:00      -69.615      -90.673       -2.336       22.836       23.508       17.877      521.490      552.632      319.601        0.723        0.070      114.315       14.433        0.016      333.683        3.159      860.405
03/21/2014  07:37:00      -58.382      -57.235        4.449       25.359       27.446       17.839      643.064      753.292      318.233        0.421        0.086       81.757       19.472        0.057      333.700        3.186      860.413
03/21/2014  07:38:00      -33.480      -33.610        2.669       30.666       21.300       18.069      940.400      453.678      326.482        0.199        0.086       47.440       20.026        0.178      333.730        3.238      860.423
03/21/2014  07:39:00      -70.094      -51.079       -3.908       21.443       22.399       16.126      459.782      501.722      260.061        0.438        0.061       86.731       15.076        0.030      333.727        3.230      860.438
03/21/2014  07:40:00      -65.079      -67.765       -6.541       23.967       29.388       12.796      574.440      863.660      163.734        0.524        0.080       93.954       14.948        0.025      333.712        3.207      860.440
03/21/2014  07:41:00      -99.391      -32.337       -4.960       26.325       24.163       13.609      692.997      583.836      185.204        0.621        0.073      104.519       15.874        0.023      333.733        3.241      860.436
03/21/2014  07:42:00      -88.775      -34.488      -10.628       16.679       14.117       10.810      278.177      199.289      116.858        0.489        0.030       95.239        7.865        0.007      333.755        3.280      860.451
03/21/2014  07:43:00      -87.752      -31.798      -13.662        9.719       13.446        8.638       94.465      180.806       74.611        0.462        0.017       93.336        4.808        0.003      333.782        3.323      860.458
03/21/2014  07:44:00      -75.353      -25.779       -4.582       12.900       10.744        8.961      166.402      115.427       80.298        0.336        0.018       79.640        3.658        0.002      333.731        3.238      860.456
03/21/2014  07:45:00      -71.601      -23.983      -11.252       16.025        9.258        7.433      256.814       85.709       55.249        0.311        0.020       75.511        6.570        0.008      333.754        3.276      860.458
03/21/2014  07:46:00      -88.097      -22.302       -8.808       24.993       15.138        8.711      624.657      229.171       75.882        0.463        0.046       90.876        7.969        0.008      333.791        3.338      860.466
03/21/2014  07:47:00      -94.916      -41.048       -7.080       25.932       19.237       14.147      672.465      370.044      200.150        0.599        0.062      103.412        9.153        0.008      333.810        3.368      860.472
03/21/2014  07:48:00      -55.211      -53.635       -8.006       30.868       25.287       16.425      952.851      639.424      269.777        0.393        0.093       76.974       15.023        0.038      333.843        3.424      860.469
03/21/2014  07:49:00      -58.160      -24.800      -10.002       22.862       13.716       10.745      522.681      188.116      115.463        0.246        0.041       63.227        9.266        0.021      333.834        3.407      860.474
03/21/2014  07:50:00      -77.699      -24.770       -6.857       16.160       21.437        9.803      261.146      459.558       96.089        0.376        0.041       81.552        6.149        0.006      333.866        3.460      860.484
03/21/2014  07:51:00      -58.728      -34.328       -0.534       27.922       15.961       13.924      779.638      254.750      193.876        0.293        0.061       68.025        9.723        0.020      333.968        3.632      860.485
03/21/2014  07:52:00      -81.207      -36.219       -4.940       16.711       15.584       14.134      279.247      242.871      199.773        0.433        0.036       88.918        9.631        0.012      333.902        3.522      860.487
03/21/2014  07:53:00      -67.466      -38.574       -3.364       27.327       23.369       15.259      746.775      546.105      232.842        0.379        0.076       77.715       10.235        0.017      333.945        3.595      860.493
03/21/2014  07:54:00      -76.958      -36.388       -1.159       19.065       15.653       14.885      363.463      245.025      221.571        0.404        0.042       85.127       12.079        0.020      333.939        3.585      860.501
03/21/2014  07:55:00      -54.065      -36.855      -14.022       25.660       16.003       15.607      658.428      256.091      243.580        0.282        0.058       65.432        4.973        0.006      334.012        3.706      860.501
03/21/2014  07:56:00      -61.222      -17.017       -3.905       12.557       11.693        7.435      157.685      136.726       55.277        0.220        0.017       63.543        2.228        0.001      333.993        3.674      860.497
03/21/2014  07:57:00      -71.828      -19.222      -10.074       11.833       10.447        8.117      140.027      109.142       65.885        0.297        0.016       74.355        6.633        0.008      334.031        3.737      860.508
03/21/2014  07:58:00      -58.896      -21.518       -1.834       27.751       12.463       13.235      770.121      155.327      175.175        0.252        0.055       62.704        9.122        0.021      334.080        3.814      860.512
03/21/2014  07:59:00      -71.962      -15.937       -5.471        9.263       12.682        8.879       85.795      160.834       78.842        0.289        0.016       73.705        3.058        0.002      334.093        3.838      860.515
03/21/2014  08:00:00      -71.739       -5.019       -6.012       10.474       12.846        7.275      109.701      165.011       52.925        0.277        0.016       71.914        5.141        0.005      334.086        3.826      860.517
03/21/2014  08:01:00      -65.156       -6.133       -5.119       10.848       12.081        8.292      117.683      145.955       68.758        0.232        0.017       65.444        2.382        0.001      334.113        3.870      860.525
03/21/2014  08:02:00      -65.693      -25.632      -11.283       11.183       11.351       10.716      125.056      128.852      114.843        0.273        0.018       70.517        7.284        0.011      334.156        3.942      860.521
03/21/2014  08:03:00      -50.148      -24.705       -9.307       16.589       11.139        7.302      275.188      124.087       53.315        0.183        0.023       55.903        5.438        0.009      334.205        4.024      860.520
03/21/2014  08:04:00      -33.219      -11.317       -0.428        9.329       13.567        7.831       87.023      184.067       61.330        0.078        0.017       35.094        3.740        0.011      334.279        4.146      860.526
03/21/2014  08:05:00      -44.775      -17.726       -4.824       12.309       18.464        8.241      151.519      340.906       67.921        0.145        0.028       48.156        8.116        0.028      334.331        4.233      860.527
03/21/2014  08:06:00      -29.822      -21.466       -7.481       15.843        8.667        9.155      250.990       75.118       83.808        0.091        0.020       36.745        6.942        0.036      334.420        4.381      860.532
03/21/2014  08:07:00      -18.512       -8.788        0.559       12.711       13.052        8.292      161.571      170.348       68.751        0.041        0.020       20.492        7.794        0.145      334.502        4.518      860.535
03/21/2014  08:08:00      -13.016        0.486        5.754        9.530        9.319       10.750       90.822       86.847      115.552        0.025        0.015       13.025        7.232        0.308      334.711        4.863      860.538
03/21/2014  08:09:00      -20.069       10.113        2.900        7.579        7.877        6.917       57.446       62.052       47.845        0.034        0.008       22.473        3.969        0.031      334.550        4.595      860.537
03/21/2014  08:10:00      -26.741        5.757       -3.192        6.330        6.516        7.298       40.075       42.452       53.259        0.045        0.007       27.354        4.543        0.028      334.528        4.561      860.532
03/21/2014  08:11:00       -9.423        8.464       10.929        8.229        9.834       11.560       67.709       96.699      133.624        0.029        0.015       12.666        5.937        0.220      334.929        5.227      860.532
03/21/2014  08:12:00      -16.558       19.377       13.293       13.938        9.810        9.726      194.256       96.228       94.587        0.061        0.019       25.488        9.927        0.152      334.731        4.897      860.525
03/21/2014  08:13:00       24.646       32.514       30.044       20.763       17.282       13.602      431.109      298.672      185.013        0.174        0.046       40.799       11.297        0.077      334.817        5.041      860.521
03/21/2014  08:14:00       20.577       35.741       39.551       18.120       19.559       10.959      328.322      382.550      120.107        0.205        0.042       41.241        9.774        0.056      334.877        5.138      860.519
03/21/2014  08:15:00       15.361       28.488       21.262       11.633       15.934       13.448      135.331      253.908      180.835        0.103        0.029       32.366       10.319        0.102      334.806        5.022      860.519
03/21/2014  08:16:00       14.476       14.057       19.565       16.533       12.741       10.544      273.340      162.342      111.177        0.067        0.027       20.177        8.561        0.180      334.982        5.314      860.517
03/21/2014  08:17:00       29.291       32.029       19.066       16.766       13.748       15.784      281.103      188.997      249.136        0.148        0.036       43.402        4.216        0.009      334.908        5.191      860.518
03/21/2014  08:18:00       45.827       23.476        7.027       21.126       16.800       16.839      446.291      282.231      283.552        0.186        0.051       51.490        8.345        0.026      334.797        5.007      860.510
03/21/2014  08:19:00        6.497       12.294        2.765       11.183       10.018        9.533      125.055      100.352       90.873        0.026        0.016       13.905        8.234        0.351      334.980        5.309      860.501
03/21/2014  08:20:00       23.726      -11.558        8.600       17.165       17.950        9.969      294.636      322.199       99.372        0.074        0.036       26.392        5.830        0.049      334.990        5.328      860.515
03/21/2014  08:21:00       34.387       32.233       11.237       14.535       18.470       12.364      211.264      341.137      152.877        0.153        0.035       47.132        6.788        0.021      334.969        5.293      860.534
03/21/2014  08:22:00       14.984       12.382        5.350       23.999       49.520       16.541      575.965     2452.243      273.594        0.185        0.165       19.438        6.706        0.119      335.065        5.451      860.547
03/21/2014  08:23:00       21.855       18.610       16.872       27.745       24.732       28.424      769.812      611.694      807.926        0.165        0.109       28.705       23.821        0.689      335.141        5.580      860.557
03/21/2014  08:24:00        2.392        7.611        6.120       10.057       15.313       18.270      101.148      234.495      333.778        0.039        0.033        7.978        8.978        1.266      335.167        5.622      860.552
03/21/2014  08:25:00       13.505        8.225       13.613       15.401       18.278       16.363      237.187      334.086      267.748        0.064        0.042       15.812       12.660        0.641      335.225        5.717      860.552
03/21/2014  08:26:00        1.140        1.749        7.101       11.532        9.212       11.432      132.986       84.862      130.683        0.020        0.017        2.088       10.196       23.836      335.272        5.797      860.539
03/21/2014  08:27:00       -4.317       14.482       25.461       14.486       21.311       19.011      209.833      454.159      361.423        0.095        0.051       15.112       17.001        1.266      335.365        5.950      860.534
03/21/2014  08:28:00      -16.721      -20.249        3.870       12.267       13.392       13.234      150.489      179.334      175.148        0.060        0.025       26.261        7.411        0.080      335.030        5.393      860.535
03/21/2014  08:29:00      -29.410       -5.433       -2.428       23.255       17.973       14.706      540.781      323.032      216.269        0.099        0.054       29.907        7.443        0.062      334.857        5.107      860.529
03/21/2014  08:30:00      -31.158       -8.019        1.542       23.433       19.003       15.014      549.086      361.110      225.409        0.109        0.057       32.173       12.390        0.148      334.847        5.091      860.526
03/21/2014  08:31:00      -34.633      -29.226        3.964       23.042       23.391        9.373      530.946      547.160       87.845        0.162        0.058       45.316        7.139        0.025      334.775        4.971      860.537
03/21/2014  08:32:00      -25.741      -40.196       15.546       27.928       17.965       21.574      779.968      322.742      465.444        0.204        0.078       47.731       11.103        0.054      334.980        5.311      860.542
03/21/2014  08:33:00      -20.666      -15.993        0.893       16.908       16.390       10.781      285.875      268.637      116.221        0.068        0.034       26.131       12.241        0.219      335.092        5.497      860.540
03/21/2014  08:34:00      -15.233       -7.102        6.262       18.071       14.437       15.462      326.565      208.441      239.072        0.055        0.039       16.807       13.924        0.686      335.173        5.631      860.537
03/21/2014  08:35:00      -31.464      -15.086       -2.666       20.702       15.267       11.835      428.568      233.070      140.060        0.101        0.040       34.894       11.278        0.104      335.074        5.469      860.532
03/21/2014  08:36:00      -27.670      -31.431       -6.783       15.472       17.344       11.030      239.391      300.809      121.653        0.123        0.033       41.875        6.029        0.021      334.944        5.250      860.533
03/21/2014  08:37:00      -34.613      -33.980       -0.162       21.464       18.388       11.463      460.691      338.111      131.409        0.164        0.047       48.504        4.716        0.009      334.900        5.177      860.528
03/21/2014  08:38:00      -37.311      -34.502       -4.708       26.709       19.905       12.398      713.378      396.203      153.703        0.193        0.063       50.818       10.171        0.040      334.971        5.296      860.524
03/21/2014  08:39:00      -44.694      -26.191        4.195       29.135       23.533       16.781      848.836      553.790      281.612        0.219        0.084       51.803       12.158        0.055      335.041        5.412      860.529
03/21/2014  08:40:00      -28.358      -33.399        3.821       27.495       22.522       17.798      755.984      507.249      316.760        0.176        0.079       43.814       18.067        0.170      335.110        5.525      860.530
03/21/2014  08:41:00      -35.758      -26.594       -7.832       18.091       10.989       11.283      327.299      120.767      127.309        0.131        0.029       44.563        7.684        0.030      335.057        5.439      860.541
03/21/2014  08:42:00      -32.688      -34.488      -10.568       15.162       20.268        8.767      229.896      410.798       76.852        0.154        0.036       47.517        6.068        0.016      335.135        5.569      860.559
03/21/2014  08:43:00      -12.757       -4.834        2.871       17.736       18.258       17.613      314.582      333.342      310.230        0.058        0.048       13.642       10.154        0.554      335.395        6.000      860.573
03/21/2014  08:44:00      -10.008       12.272       44.499       10.677       18.268       13.904      114.003      333.709      193.313        0.144        0.032       15.836       12.846        0.658      336.142        7.246      860.580
03/21/2014  08:45:00        9.595       -4.528       38.262       31.264       48.171       31.143      977.410     2320.405      969.889        0.292        0.213       10.610       27.428        6.683      335.925        6.883      860.583
03/21/2014  08:46:00       39.492       69.035       55.466       31.998       31.671       22.371     1023.862     1003.024      500.448        0.596        0.126       79.532       18.300        0.053      335.622        6.377      860.587
03/21/2014  08:47:00       33.779       30.052       42.783       37.846       49.659       21.957     1432.294     2466.035      482.124        0.413        0.219       45.212        8.420        0.035      335.663        6.447      860.581
03/21/2014  08:48:00       48.344      -39.781       17.731       44.683       42.644       26.891     1996.587     1818.542      723.136        0.439        0.227       62.608       23.966        0.147      335.631        6.393      860.588
03/21/2014  08:49:00       36.749       28.179       40.317       27.892       54.127       24.781      777.969     2929.755      614.104        0.405        0.216       46.309       12.782        0.076      335.826        6.719      860.571
03/21/2014  08:50:00       32.883       56.635       30.783       35.769       31.877       33.531     1279.410     1016.147     1124.359        0.433        0.171       65.490       20.725        0.100      335.758        6.605      860.562
03/21/2014  08:51:00       30.281       65.719       61.185       39.537       42.144       35.270     1563.138     1776.144     1243.996        0.678        0.229       72.360       29.127        0.162      335.887        6.820      860.551
03/21/2014  08:52:00       78.577       65.938       11.649       26.214       36.054       38.084      687.200     1299.896     1450.401        0.705        0.172      102.578       17.025        0.028      335.606        6.354      860.549
03/21/2014  08:53:00       40.971       70.543       52.110       31.489       41.012       53.728      991.588     1681.993     2886.702        0.746        0.278       81.578       37.858        0.215      335.791        6.660      860.545
03/21/2014  08:54:00       71.450       83.555       92.974       60.525       63.747       42.712     3663.218     4063.730     1824.335        1.514        0.478      109.939       46.084        0.176      335.555        6.266      860.542
03/21/2014  08:55:00      101.519       53.129       45.700       39.764       36.446       32.277     1581.161     1328.319     1041.794        0.958        0.198      114.581       22.532        0.039      335.481        6.143      860.540
03/21/2014  08:56:00       87.804       45.433       23.477       36.798       37.439       38.823     1354.111     1401.691     1507.245        0.729        0.213       98.862       21.826        0.049      335.632        6.396      860.530
03/21/2014  08:57:00      104.177       77.535        5.705       29.579       30.905       25.843      874.921      955.124      667.869        0.970        0.125      129.864       21.695        0.028      335.508        6.188      860.519
03/21/2014  08:58:00       91.566       59.379       33.998       47.590       47.635       32.504     2264.815     2269.115     1056.540        0.933        0.280      109.134       26.390        0.058      336.014        7.031      860.514
03/21/2014  08:59:00       59.639       50.765       64.835       54.629       39.948       34.688     2984.297     1595.861     1203.239        0.806        0.289       78.319       36.184        0.213      335.885        6.817      860.509
03/21/2014  09:00:00       57.407       55.753       62.074       41.020       57.174       42.086     1682.628     3268.912     1771.224        0.849        0.336       80.024       38.243        0.228      335.744        6.582      860.508
03/21/2014  09:01:00       39.703       75.181       82.504       54.795       49.800       32.653     3002.512     2480.016     1066.225        1.029        0.327       85.021       30.756        0.131      335.934        6.899      860.501
03/21/2014  09:02:00       63.706       66.101       59.671       61.068       33.801       52.750     3729.254     1142.515     2782.571        0.982        0.383       91.803       38.268        0.174      336.016        7.036      860.505
03/21/2014  09:03:00       43.606      101.342       98.905       56.824       51.553       31.762     3228.958     2657.683     1008.819        1.442        0.345      110.325       26.599        0.058      335.979        6.972      860.501
03/21/2014  09:04:00       82.075       66.505       39.923       53.889       33.972       41.045     2904.056     1154.065     1684.707        0.925        0.287      105.637       30.177        0.082      335.605        6.351      860.508
03/21/2014  09:05:00       70.752       61.512        9.070       40.883       36.446       27.781     1671.409     1328.297      771.794        0.632        0.189       93.753       12.791        0.019      335.806        6.685      860.513
03/21/2014  09:06:00       52.857       63.772       15.529       44.266       46.771       35.282     1959.475     2187.505     1244.793        0.625        0.270       82.830       30.043        0.132      336.025        7.050      860.513
03/21/2014  09:07:00       40.819       61.364       12.331       34.598       44.810       31.360     1197.037     2007.905      983.446        0.489        0.209       73.700       27.599        0.140      335.935        6.900      860.528
03/21/2014  09:08:00       83.143       66.232       12.000       36.784       32.652       29.608     1353.039     1066.159      876.633        0.737        0.165      106.299       17.814        0.028      335.964        6.947      860.537
03/21/2014  09:09:00      119.189       82.331       20.324       31.360       32.974       39.432      983.460     1087.255     1554.884        1.251        0.181      144.860       19.294        0.018      335.747        6.586      860.552
03/21/2014  09:10:00       60.362       53.179       33.594       43.240       47.748       35.620     1869.716     2279.844     1268.755        0.651        0.271       80.446       26.434        0.108      336.005        7.016      860.575
03/21/2014  09:11:00       17.130       42.324       65.656       39.283       31.750       28.388     1543.175     1008.073      805.873        0.488        0.168       45.660       23.483        0.265      336.157        7.270      860.576
03/21/2014  09:12:00       24.161       38.863       49.402       49.096       59.784       43.094     2410.418     3574.123     1857.072        0.619        0.392       45.761       41.922        0.839      336.305        7.518      860.579
03/21/2014  09:13:00      101.548       79.158       55.709       68.353       47.253       57.495     4672.169     2232.874     3305.627        1.494        0.511      128.755       50.946        0.157      335.922        6.878      860.573
03/21/2014  09:14:00       60.243       73.579       71.058       36.099       37.875       24.408     1303.157     1434.527      595.767        0.871        0.167       95.095       23.174        0.059      335.684        6.482      860.587
03/21/2014  09:15:00       60.802       54.005       57.368       43.533       41.152       33.048     1895.127     1693.456     1092.159        0.729        0.234       81.323       13.818        0.029      335.863        6.780      860.586
03/21/2014  09:16:00       24.307        9.746       47.583       29.797       31.993       19.786      887.855     1023.553      391.503        0.263        0.115       26.188       12.455        0.226      336.224        7.383      860.596
03/21/2014  09:17:00       70.160       54.478       26.396       39.891       23.513       33.924     1591.282      552.851     1150.836        0.594        0.165       88.827       23.682        0.071      336.048        7.089      860.600
03/21/2014  09:18:00       67.862       93.484       81.255       37.952       32.009       30.106     1440.369     1024.600      906.353        1.166        0.169      115.518       15.317        0.018      335.928        6.889      860.608
03/21/2014  09:19:00       73.030       60.354       55.920       54.261       54.145       42.758     2944.210     2931.688     1828.286        0.990        0.385       94.742       36.498        0.148      336.056        7.101      860.620
03/21/2014  09:20:00       52.818       63.301       64.822       53.045       61.775       50.838     2813.736     3816.201     2584.520        1.011        0.461       82.443       42.514        0.266      336.222        7.378      860.612
03/21/2014  09:21:00       64.768       75.877       61.516       49.867       49.560       48.479     2486.742     2456.220     2350.212        1.051        0.365       99.761       32.403        0.105      336.072        7.129      860.623
03/21/2014  09:22:00       35.686       25.788       29.902       24.016       26.997       19.867      576.761      728.853      394.682        0.227        0.085       44.029       16.076        0.133      336.031        7.060      860.633
03/21/2014  09:23:00       53.274       44.423       14.550       37.753       36.054       31.066     1425.294     1299.863      965.095        0.436        0.185       69.365       23.451        0.114      336.076        7.134      860.628
03/21/2014  09:24:00        5.218       35.477       -5.605       31.801       28.352       24.355     1011.327      803.836      593.176        0.186        0.120       35.859       18.269        0.260      336.117        7.204      860.623
03/21/2014  09:25:00       38.911       38.160       25.206       38.610       38.237       26.611     1490.729     1462.097      708.155        0.363        0.183       54.500       18.056        0.110      336.301        7.509      860.615
03/21/2014  09:26:00       -2.637        7.077       64.098       21.785       28.361       20.185      474.590      804.372      407.430        0.293        0.084        7.552       13.424        3.160      336.944        8.585      860.615
03/21/2014  09:27:00       30.641       38.225       27.737       30.458       37.581       33.013      927.720     1412.329     1089.860        0.330        0.171       48.990       22.587        0.213      336.484        7.816      860.612
03/21/2014  09:28:00        6.787       58.718       -4.957       20.389       36.716       27.138      415.714     1348.073      736.460        0.301        0.125       59.109       25.179        0.181      336.326        7.553      860.606
03/21/2014  09:29:00        0.610       32.946       29.157       25.604       34.801       50.355      655.559     1211.129     2535.620        0.317        0.220       32.951       35.886        1.186      336.653        8.099      860.606
03/21/2014  09:30:00       92.454       87.002       49.189       25.256       26.290       41.550      637.871      691.174     1726.405        1.080        0.153      126.954       24.881        0.038      335.945        6.916      860.606
03/21/2014  09:31:00       32.454       15.427       21.114       28.652       33.269       22.924      820.932     1106.817      525.500        0.209        0.123       35.934       10.932        0.093      336.234        7.400      860.600
03/21/2014  09:32:00       27.472       -8.042       14.098       29.344       40.216       33.177      861.094     1617.299     1100.736        0.230        0.179       28.625        8.568        0.090      336.383        7.648      860.597
03/21/2014  09:33:00       37.430       43.988        4.908       44.507       19.459       31.824     1980.890      378.669     1012.744        0.337        0.169       57.758       22.948        0.158      336.141        7.244      860.593
03/21/2014  09:34:00       17.190       69.332       14.961       35.757       40.117       43.772     1278.579     1609.387     1915.993        0.506        0.240       71.431       24.887        0.121      336.346        7.585      860.591
03/21/2014  09:35:00        0.563       18.702       59.475       17.938       24.535       21.151      321.778      601.988      447.379        0.263        0.069       18.710       16.672        0.794      336.868        8.458      860.595
03/21/2014  09:36:00        7.433       20.814       55.875       20.803       29.243       13.422      432.769      855.143      180.157        0.254        0.073       22.102        9.687        0.192      336.863        8.451      860.589
03/21/2014  09:37:00       48.847       72.569       67.837       44.659       33.988       38.416     1994.465     1155.155     1475.767        0.844        0.231       87.477       31.047        0.126      336.357        7.605      860.586
03/21/2014  09:38:00       39.192       57.862       54.612       38.218       35.058       25.660     1460.598     1229.095      658.429        0.561        0.167       69.886       18.733        0.072      336.377        7.637      860.585
03/21/2014  09:39:00       18.188       11.827       33.577       26.781       24.962       22.939      717.225      623.104      526.213        0.173        0.093       21.696       14.130        0.424      336.821        8.381      860.585
03/21/2014  09:40:00      -10.125       28.862       46.934       16.926       30.094       19.299      286.485      905.653      372.469        0.235        0.078       30.587       14.170        0.215      336.828        8.392      860.571
03/21/2014  09:41:00      -37.351        4.322       15.246       20.539       15.841       19.366      421.834      250.942      375.051        0.135        0.052       37.600       13.242        0.124      336.667        8.123      860.563
03/21/2014  09:42:00       23.265        8.452       29.103       31.374       42.067       26.522      984.301     1769.629      703.436        0.246        0.173       24.753       31.394        1.609      337.121        8.882      860.562
03/21/2014  09:43:00       30.401       45.433       78.916       41.520       64.922       40.395     1723.891     4214.830     1631.741        0.839        0.379       54.666       44.243        0.655      337.145        8.922      860.553
03/21/2014  09:44:00       69.347       54.609       22.750       75.650       46.289       52.692     5722.951     2142.693     2776.492        0.947        0.532       88.267       40.657        0.212      336.562        7.947      860.544
03/21/2014  09:45:00       49.825       41.038       72.348       59.612       62.013       40.306     3553.555     3845.660     1624.575        0.921        0.451       64.549       36.641        0.322      336.920        8.546      860.535
03/21/2014  09:46:00      138.104       74.938       33.297       56.008       36.674       42.811     3136.868     1344.961     1832.798        1.605        0.316      157.125       31.766        0.041      336.524        7.882      860.532
03/21/2014  09:47:00      134.184       86.182       -6.420       59.507       38.376       36.920     3541.078     1472.756     1363.069        1.592        0.319      159.476       18.905        0.014      336.498        7.841      860.535
03/21/2014  09:48:00      120.975       61.306      -11.099       38.475       50.716       29.052     1480.306     2572.113      844.022        1.171        0.245      135.622       17.090        0.016      336.448        7.757      860.530
03/21/2014  09:49:00       86.445       64.355       11.721       35.851       31.670       33.795     1285.268     1003.011     1142.076        0.759        0.172      107.770        7.295        0.005      336.483        7.814      860.528
03/21/2014  09:50:00       24.597       17.188       10.015       27.139       61.834       23.545      736.527     3823.424      554.363        0.306        0.256       30.007       16.154        0.290      336.650        8.094      860.526
03/21/2014  09:51:00       87.168       62.354       55.028       60.990       64.619       53.921     3719.833     4175.586     2907.440        1.266        0.540      107.174       37.374        0.122      336.669        8.126      860.522
03/21/2014  09:52:00       -4.972       61.493       86.852       27.210       56.577       34.877      740.382     3200.917     1216.406        0.825        0.258       61.693       33.924        0.302      337.041        8.749      860.515
03/21/2014  09:53:00      102.571       71.009        7.455       48.694       34.721       33.997     2371.117     1205.517     1155.815        1.017        0.237      124.752       13.293        0.011      336.718        8.209      860.536
03/21/2014  09:54:00       36.350       64.844       -9.678       30.216       27.466       24.575      913.022      754.386      603.940        0.395        0.114       74.337       16.630        0.050      336.659        8.107      860.531
03/21/2014  09:55:00      135.673       98.341       17.910       61.887       51.330       44.141     3830.021     2634.723     1948.447        1.840        0.421      167.565       22.616        0.018      336.605        8.017      860.537
03/21/2014  09:56:00      105.345       70.193       25.029       48.448       36.896       38.086     2347.196     1361.305     1450.571        1.090        0.258      126.589       24.137        0.036      336.593        7.999      860.540
03/21/2014  09:57:00       91.472       94.102       18.898       54.086       47.071       47.170     2925.261     2215.650     2225.021        1.247        0.368      131.233       35.209        0.072      336.738        8.241      860.531
03/21/2014  09:58:00      128.906       92.056       32.639       62.153       44.259       41.004     3863.008     1958.892     1681.287        1.683        0.375      158.402       25.477        0.026      336.568        7.956      860.536
03/21/2014  09:59:00      122.463       91.961        7.173       42.756       29.559       30.105     1828.098      873.759      906.317        1.356        0.180      153.147       19.679        0.017      336.498        7.840      860.536
03/21/2014  10:00:00       82.729       79.458        1.659       39.002       29.723       33.466     1521.185      883.430     1119.941        0.834        0.176      114.707       19.604        0.029      336.543        7.916      860.532
03/21/2014  10:01:00        3.371       79.672       -2.662       24.690       39.631       34.528      609.617     1570.592     1192.188        0.487        0.169       79.743       31.307        0.154      336.712        8.197      860.522
03/21/2014  10:02:00       -4.226       26.918        9.940       25.515       29.297       19.812      650.995      858.291      392.518        0.137        0.095       27.247       18.389        0.455      337.036        8.740      860.498
03/21/2014  10:03:00       81.984       53.491       12.971       45.137       35.940       27.281     2037.369     1291.664      744.235        0.691        0.204       97.891       20.026        0.042      336.824        8.386      860.484
03/21/2014  10:04:00       47.151      105.600       86.336       49.985       58.399       54.594     2498.481     3410.499     2980.494        1.486        0.444      115.649       46.076        0.159      336.889        8.494      860.476
03/21/2014  10:05:00       23.668       36.844       70.362       51.060       79.859       38.770     2607.078     6377.423     1503.091        0.868        0.524       43.791       34.569        0.623      337.029        8.727      860.469
03/21/2014  10:06:00       52.377      -35.928       14.176       51.599       39.050       32.765     2662.436     1524.900     1073.517        0.475        0.263       63.515       25.681        0.163      336.927        8.558      860.480
03/21/2014  10:07:00       31.291       67.581       -0.419       21.153       55.371       40.563      447.468     3065.909     1645.372        0.535        0.258       74.474       40.999        0.303      336.882        8.482      860.473
03/21/2014  10:08:00       30.262       85.398       -3.703       28.044       46.727       27.579      786.476     2183.379      760.600        0.598        0.187       90.601       22.546        0.062      336.748        8.258      860.474
03/21/2014  10:09:00       52.430       56.525       20.179       29.965       28.193       28.916      897.872      794.822      836.114        0.444        0.126       77.097       11.764        0.023      336.829        8.395      860.472
03/21/2014  10:10:00       92.434       80.826       26.715       62.318       48.367       46.022     3883.539     2339.330     2118.026        1.206        0.417      122.788       21.976        0.032      336.967        8.622      860.469
03/21/2014  10:11:00       94.550       49.965       24.607       61.921       47.301       51.686     3834.228     2237.359     2671.494        1.039        0.437      106.941       15.953        0.022      337.108        8.860      860.470
03/21/2014  10:12:00      104.962       60.479       17.792       48.517       46.979       45.720     2353.898     2206.990     2090.313        1.082        0.333      121.139       26.412        0.048      336.913        8.533      860.486
03/21/2014  10:13:00       51.966      100.341       90.757       59.268       67.999       53.388     3512.678     4623.912     2850.236        1.599        0.549      112.999       53.530        0.224      336.979        8.643      860.496
03/21/2014  10:14:00      107.743      110.608       75.750       64.468       49.345       46.585     4156.114     2434.881     2170.194        1.917        0.438      154.411       39.109        0.064      336.636        8.070      860.493
03/21/2014  10:15:00       63.124       49.124       56.369       74.335       84.663       73.759     5525.662     7167.794     5440.372        1.385        0.907       79.986       65.835        0.677      336.969        8.627      860.492
03/21/2014  10:16:00       55.158      130.340      130.295       69.060       51.991       46.399     4769.335     2703.059     2152.824        2.331        0.481      141.531       42.947        0.092      336.921        8.545      860.508
03/21/2014  10:17:00      110.036       93.449       89.820       69.316       49.051       58.056     4804.664     2406.044     3370.470        1.974        0.529      144.363       45.444        0.099      336.722        8.215      860.514
03/21/2014  10:18:00      102.946       83.847       63.924       42.946       42.009       39.105     1844.350     1764.776     1529.202        1.343        0.257      132.771       22.554        0.029      336.725        8.220      860.529
03/21/2014  10:19:00       68.520       74.726       36.313       41.038       31.861       38.613     1684.093     1015.141     1490.939        0.789        0.210      101.385       17.908        0.031      336.703        8.183      860.523
03/21/2014  10:20:00       34.849       40.157       24.746       40.296       27.945       30.955     1623.780      780.927      958.217        0.340        0.168       53.170       22.753        0.183      337.038        8.744      860.515
03/21/2014  10:21:00       -5.543       -6.346        2.788       27.029       46.698       38.278      730.581     2180.677     1465.174        0.223        0.219        8.426       28.987       11.835      337.123        8.886      860.512
03/21/2014  10:22:00       13.058        0.889       27.286       24.824       23.122       27.307      616.242      534.631      745.655        0.141        0.095       13.088       11.295        0.745      337.616        9.711      860.490
03/21/2014  10:23:00       20.796      -40.141       22.293       32.030       52.441       37.858     1025.921     2750.104     1433.212        0.387        0.260       45.208       31.785        0.494      337.236        9.074      860.481
03/21/2014  10:24:00      112.175       79.881       20.003       72.996       61.258       49.434     5328.425     3752.569     2443.732        1.544        0.576      137.711       24.182        0.031      337.069        8.793      860.468
03/21/2014  10:25:00       85.379       69.769       30.706       51.714       39.986       40.001     2674.349     1598.918     1600.083        0.949        0.294      110.260       26.000        0.056      336.756        8.270      860.482
03/21/2014  10:26:00       87.475       63.868       23.238       47.502       39.071       35.870     2256.469     1526.528     1286.641        0.867        0.253      108.310       19.577        0.033      337.033        8.735      860.477
03/21/2014  10:27:00       17.788       85.076        4.406       43.187       60.066       28.696     1865.104     3607.974      823.460        0.693        0.315       86.916       28.872        0.110      337.231        9.068      860.476
03/21/2014  10:28:00      131.941      109.509        4.704       42.603       52.169       41.897     1815.000     2721.565     1755.328        1.786        0.315      171.466       24.544        0.020      336.838        8.409      860.481
03/21/2014  10:29:00       52.605       90.127       -3.088       49.772       53.549       40.072     2477.250     2867.501     1605.737        0.892        0.348      104.356       35.693        0.117      336.873        8.467      860.469
03/21/2014  10:30:00       84.515       38.956       23.852       60.292       32.411       33.702     3635.139     1050.479     1135.844        0.752        0.291       93.061       27.930        0.090      337.196        9.005      860.461
03/21/2014  10:31:00       95.716       72.695        3.067       43.314       33.734       27.361     1876.108     1137.987      748.631        0.911        0.188      120.192       10.543        0.008      336.932        8.567      860.453
03/21/2014  10:32:00       37.561       38.248       45.087       40.099       36.144       46.789     1607.925     1306.355     2189.220        0.500        0.255       53.608       41.773        0.607      337.037        8.741      860.449
03/21/2014  10:33:00       97.232       96.023       40.811       86.094       42.015       56.748     7412.237     1765.225     3220.340        1.637        0.620      136.655       56.664        0.172      336.966        8.621      860.442
03/21/2014  10:34:00       79.752       92.379      -14.635       49.366       39.880       33.006     2437.001     1590.418     1089.415        1.011        0.256      122.042       25.258        0.043      336.825        8.387      860.440
03/21/2014  10:35:00      102.006       69.164       14.625       28.546       19.799       31.130      814.848      391.989      969.076        0.879        0.109      123.243        9.826        0.006      336.753        8.268      860.433
03/21/2014  10:36:00       11.214      -17.134       18.590       27.612       42.908       29.933      762.424     1841.125      895.964        0.213        0.175       20.477       25.889        1.598      337.351        9.266      860.424
03/21/2014  10:37:00      -10.166       -9.761       29.733       35.311       22.042       17.289     1246.869      485.836      298.904        0.156        0.102       14.093       11.055        0.615      337.550        9.599      860.422
03/21/2014  10:38:00       39.970       -1.984       18.199       30.150       37.516       37.877      908.995     1407.453     1434.691        0.284        0.188       40.019       30.417        0.578      337.237        9.076      860.424
03/21/2014  10:39:00       23.305        9.340        3.935       23.064       20.665       20.675      531.950      427.051      427.450        0.102        0.069       25.107       13.595        0.293      337.158        8.943      860.419
03/21/2014  10:40:00       17.062       28.040       21.038       20.992       16.553       14.716      440.665      274.011      216.556        0.123        0.047       32.823        6.358        0.038      337.370        9.297      860.415
03/21/2014  10:41:00       49.585       60.835       22.794       48.721       51.670       36.360     2373.728     2669.799     1322.057        0.652        0.318       78.483       28.038        0.128      337.620        9.718      860.397
03/21/2014  10:42:00      100.798       83.316       12.421       76.143       49.067       47.991     5797.824     2407.605     2303.108        1.388        0.525      130.774       29.032        0.049      337.198        9.010      860.395
03/21/2014  10:43:00        5.600       61.860        2.411       32.210       34.880       29.020     1037.454     1216.585      842.146        0.348        0.155       62.113       18.136        0.085      337.287        9.161      860.383
03/21/2014  10:44:00       41.200       32.040       29.960       31.218       41.213       41.056      974.573     1698.522     1685.630        0.399        0.218       52.192       27.950        0.287      337.385        9.322      860.377
03/21/2014  10:45:00       53.967       85.566       47.058       58.235       60.071       57.443     3391.372     3608.467     3299.716        1.137        0.515      101.163       42.148        0.174      337.424        9.389      860.375
03/21/2014  10:46:00      153.347      102.467       51.536       65.585       49.443       48.352     4301.362     2444.608     2337.962        2.288        0.454      184.431       17.597        0.009      337.104        8.852      860.365
03/21/2014  10:47:00       79.061       64.878       10.497       66.354       56.582       29.162     4402.915     3201.467      850.444        0.951        0.423      102.273       14.287        0.020      337.200        9.013      860.360
03/21/2014  10:48:00       12.363       91.284       -6.184       25.694       35.345       25.851      660.198     1249.292      668.293        0.555        0.129       92.117       20.243        0.048      337.211        9.031      860.343
03/21/2014  10:49:00       31.650       79.306      -11.816       29.264       53.484       32.074      856.376     2860.562     1028.765        0.609        0.237       85.389       25.697        0.091      337.409        9.364      860.340
03/21/2014  10:50:00       71.120      137.245        2.879       59.729       73.087       44.074     3567.501     5341.662     1942.546        1.738        0.543      154.578       34.627        0.050      337.364        9.287      860.334
03/21/2014  10:51:00       55.981       19.479       36.390       53.832      110.569       61.652     2897.928    12225.600     3800.983        1.188        0.946       59.273       39.802        0.451      337.534        9.573      860.321
03/21/2014  10:52:00      132.781       84.790       69.457       66.523       62.130       62.999     4425.343     3860.114     3968.813        2.095        0.613      157.544       53.733        0.116      337.187        8.989      860.340
03/21/2014  10:53:00      114.233      113.545       72.698       71.313       55.915       46.392     5085.509     3126.509     2152.250        2.079        0.518      161.064       30.806        0.037      337.118        8.874      860.335
03/21/2014  10:54:00      110.704       44.253       13.064       31.150       24.518       29.807      970.302      601.143      888.428        0.842        0.123      119.221       20.730        0.030      336.990        8.661      860.358
03/21/2014  10:55:00       53.642       59.352      -18.436       48.315       27.659       20.399     2334.373      765.021      416.099        0.513        0.176       80.001       12.586        0.025      336.972        8.632      860.353
03/21/2014  10:56:00       65.418       78.266       22.808       46.388       31.880       39.291     2151.816     1016.333     1543.797        0.782        0.236      102.005       29.446        0.083      337.225        9.055      860.346
03/21/2014  10:57:00       71.643       87.963       51.310       41.824       27.667       41.093     1749.251      765.476     1688.622        0.985        0.210      113.447       27.740        0.060      337.258        9.111      860.343
03/21/2014  10:58:00        0.536       50.197      -12.104       35.754       36.764       22.276     1278.367     1351.597      496.209        0.290        0.156       50.200       21.574        0.185      337.205        9.023      860.334
03/21/2014  10:59:00       63.413       62.017       22.669       53.281       32.277       38.517     2838.910     1041.806     1483.559        0.687        0.268       88.698       22.357        0.064      337.316        9.209      860.330
03/21/2014  11:00:00        7.443       41.316       52.084       30.974       39.315       37.078      959.408     1545.688     1374.784        0.418        0.194       41.981       23.200        0.305      337.820       10.053      860.309
03/21/2014  11:01:00       35.037      108.249       -6.280       45.323       53.074       39.082     2054.145     2816.804     1527.383        0.969        0.320      113.778       33.371        0.086      337.505        9.524      860.305
03/21/2014  11:02:00       22.641       56.499       18.753       38.822       43.519       37.467     1507.120     1893.937     1403.805        0.443        0.240       60.866       31.715        0.272      337.625        9.726      860.299
03/21/2014  11:03:00      -28.326      -45.724       -2.662       23.501       45.361       19.703      552.285     2057.631      388.226        0.295        0.150       53.787       11.509        0.046      337.144        8.919      860.286
03/21/2014  11:04:00      -26.828      -33.778       -0.148       21.625       22.494       24.130      467.659      505.997      582.237        0.171        0.078       43.136       16.967        0.155      337.431        9.400      860.281
03/21/2014  11:05:00      -20.065      -29.081        4.427       13.792       22.755       15.250      190.213      517.795      232.569        0.110        0.047       35.331       13.523        0.146      337.370        9.299      860.270
03/21/2014  11:06:00       -1.100       53.294       -3.756       25.011       40.266       24.720      625.565     1621.351      611.076        0.286        0.143       53.305       26.474        0.247      337.577        9.645      860.267
03/21/2014  11:07:00       -7.852       29.302        8.573       20.349       39.689       22.161      414.064     1575.210      491.126        0.174        0.124       30.336       17.743        0.342      337.875       10.145      860.268
03/21/2014  11:08:00      103.098       95.992        8.047       57.737       54.132       38.813     3333.601     2930.241     1506.441        1.384        0.389      140.867       30.488        0.047      337.405        9.357      860.247
03/21/2014  11:09:00      104.595       69.432       22.116       38.527       27.760       27.192     1484.310      770.591      739.417        0.962        0.150      125.543       12.302        0.010      337.392        9.336      860.240
03/21/2014  11:10:00      120.493       80.742       -8.562       47.458       39.124       35.774     2252.278     1530.683     1279.793        1.309        0.253      145.044       23.553        0.026      337.409        9.364      860.234
03/21/2014  11:11:00       90.587       97.610        1.561       71.333       66.371       41.303     5088.390     4405.162     1705.968        1.447        0.560      133.168       41.359        0.096      337.463        9.454      860.224
03/21/2014  11:12:00       42.115       92.887       -2.556       36.106       41.812       36.156     1303.642     1748.240     1307.258        0.738        0.218      101.988       28.348        0.077      337.585        9.659      860.228
03/21/2014  11:13:00       19.272       93.365      -10.867       28.321       43.942       26.169      802.056     1930.905      684.815        0.631        0.171       95.333       24.158        0.064      337.512        9.536      860.206
03/21/2014  11:14:00        5.811        8.755       20.598       21.411       22.076       16.126      458.412      487.352      260.060        0.087        0.060       10.508       13.127        1.560      338.149       10.604      860.200
03/21/2014  11:15:00       30.565       32.523       10.158       22.721       29.000       22.258      516.257      841.027      495.412        0.197        0.093       44.631        5.726        0.016      337.659        9.784      860.183
03/21/2014  11:16:00       -1.746       11.021       17.099       23.356       34.369       19.333      545.488     1181.259      373.758        0.126        0.105       11.159       15.035        1.815      338.358       10.954      860.161
03/21/2014  11:17:00       56.622       70.572       60.477       57.179       54.625       37.411     3269.451     2983.943     1399.599        0.975        0.383       90.480       16.184        0.032      338.279       10.823      860.148
03/21/2014  11:18:00       64.418       72.334      101.749       87.041       66.724       63.453     7576.146     4452.075     4026.335        1.789        0.803       96.860       64.600        0.445      337.899       10.184      860.134
03/21/2014  11:19:00       31.762       90.087      108.084       65.910       72.575       64.042     4344.126     5267.173     4101.379        1.726        0.686       95.523       66.091        0.479      337.903       10.192      860.130
03/21/2014  11:20:00      115.021      103.230       29.978       78.279       51.265       41.959     6127.637     2628.069     1760.594        1.765        0.526      154.552       42.942        0.077      337.851       10.102      860.128
03/21/2014  11:21:00      121.623       85.811        7.365       44.730       46.078       42.915     2000.757     2123.190     1841.664        1.409        0.298      148.848       26.618        0.032      337.640        9.750      860.111
03/21/2014  11:22:00      106.746       81.594       20.187       51.728       66.916       41.776     2675.742     4477.778     1745.238        1.368        0.445      134.359       17.608        0.017      338.098       10.517      860.100
03/21/2014  11:23:00       76.705       64.593        7.571       52.426       46.984       37.051     2748.521     2207.463     1372.801        0.822        0.316      100.280       26.350        0.069      338.150       10.606      860.084
03/21/2014  11:24:00      131.098       99.050       26.874       73.188       62.801       55.417     5356.433     3943.997     3071.062        2.004        0.619      164.310       29.047        0.031      337.885       10.162      860.074
03/21/2014  11:25:00      103.646       89.801       17.889       59.566       41.716       46.055     3548.072     1740.223     2121.044        1.327        0.370      137.137       25.035        0.033      337.907       10.198      860.049
03/21/2014  11:26:00       40.709       73.115       61.785       59.373       54.317       42.327     3525.200     2950.290     1791.547        0.954        0.413       83.684       32.866        0.154      338.339       10.923      860.049
03/21/2014  11:27:00       43.149       65.224       14.124       57.568       73.784       48.496     3314.028     5444.050     2351.844        0.871        0.555       78.205       38.304        0.240      338.244       10.764      860.049
03/21/2014  11:28:00       97.475      117.374        9.380       83.088       60.581       42.458     6903.571     3670.035     1802.670        1.787        0.619      152.571       34.102        0.050      337.827       10.061      860.042
03/21/2014  11:29:00      141.867       95.800       10.428       54.017       41.692       32.812     2917.832     1738.254     1076.638        1.757        0.287      171.184       19.330        0.013      337.651        9.769      860.039
03/21/2014  11:30:00       31.204       56.946       67.990       46.833       48.988       51.348     2193.372     2399.824     2636.614        0.803        0.361       64.935       36.065        0.308      338.093       10.509      860.038
03/21/2014  11:31:00       -0.821       42.412       50.111       20.422       40.181       37.423      417.044     1614.477     1400.458        0.387        0.172       42.420       26.366        0.386      338.261       10.792      860.040
03/21/2014  11:32:00      -65.845       60.663      -14.975       35.155       37.127       25.122     1235.905     1378.387      631.129        0.574        0.162       89.529       22.276        0.062      337.812       10.040      860.026
03/21/2014  11:33:00       -7.023        9.991        5.920       17.562       14.973       16.994      308.438      224.177      288.793        0.050        0.041       12.212        9.976        0.667      338.465       11.136      860.028
03/21/2014  11:34:00      -27.459       -0.466       43.645       46.952       63.226       40.560     2204.453     3997.504     1645.125        0.525        0.392       27.463       47.777        3.027      338.417       11.056      860.032
03/21/2014  11:35:00       26.274       23.688       46.222       60.606       79.925       49.982     3673.087     6388.048     2498.173        0.797        0.628       35.376       49.141        1.930      338.494       11.182      860.016
03/21/2014  11:36:00       46.523     -155.589       -3.684       60.388       63.437       40.859     3646.724     4024.247     1669.450        1.786        0.467      162.396       26.592        0.027      338.301       10.856      860.019
03/21/2014  11:37:00       40.616      -98.508       -5.243       73.838       52.771       32.970     5452.001     2784.757     1087.028        1.035        0.466      106.552       17.340        0.026      338.228       10.738      860.010
03/21/2014  11:38:00      -16.221      -32.333       11.519       49.405       40.040       28.353     2440.849     1603.190      803.918        0.314        0.242       36.174       23.053        0.406      338.450       11.109      860.002
03/21/2014  11:39:00       -5.373      -14.765       17.872       30.903       39.720       23.306      955.014     1577.674      543.156        0.182        0.154       15.713       13.257        0.712      338.591       11.347      859.993
03/21/2014  11:40:00        9.057       20.626       27.879       16.514       20.905       11.828      272.719      437.022      139.911        0.107        0.042       22.527        8.979        0.159      339.139       12.268      859.988
03/21/2014  11:41:00       27.159        3.293       25.479       33.625       43.195       32.853     1130.639     1865.793     1079.287        0.274        0.204       27.358       25.421        0.863      338.629       11.412      859.990
03/21/2014  11:42:00       61.754       88.441       91.520       62.122       62.217       52.732     3859.094     3871.002     2780.664        1.526        0.526      107.867       30.376        0.079      338.420       11.056      859.972
03/21/2014  11:43:00      105.141       98.784       54.680       82.093       55.162       56.485     6739.289     3042.844     3190.568        1.839        0.649      144.267       39.057        0.073      338.153       10.610      859.964
03/21/2014  11:44:00      173.447      115.845       32.989       64.790       48.806       50.443     4197.698     2382.039     2544.538        2.686        0.456      208.576       35.997        0.030      337.916       10.210      859.955
03/21/2014  11:45:00      138.693       63.352       27.547       58.075       46.249       35.050     3372.706     2138.949     1228.521        1.537        0.337      152.476       26.966        0.031      337.991       10.338      859.948
03/21/2014  11:46:00       65.001       65.340       20.809       63.496       35.443       43.202     4031.784     1256.180     1866.405        0.804        0.358       92.166        7.851        0.007      338.244       10.762      859.940
03/21/2014  11:47:00       39.717       79.445        2.716       75.196       60.313       45.460     5654.365     3637.625     2066.570        0.963        0.568       88.820       44.336        0.249      338.372       10.977      859.908
03/21/2014  11:48:00      111.546      104.332       -3.649       67.238       49.086       38.978     4520.959     2409.482     1519.272        1.589        0.422      152.734       29.523        0.037      338.130       10.571      859.898
03/21/2014  11:49:00       74.576        2.548       -2.743       63.610       49.963       31.732     4046.213     2496.269     1006.937        0.656        0.377       74.619       19.708        0.070      338.254       10.780      859.868
03/21/2014  11:50:00       55.738      115.083       -9.635       55.771       79.588       42.830     3110.416     6334.217     1834.372        1.386        0.564      127.870       37.116        0.084      338.297       10.852      859.849
03/21/2014  11:51:00      122.330      112.058       14.414       80.981       41.627       49.124     6557.947     1732.833     2413.197        1.921        0.535      165.896       44.209        0.071      338.181       10.656      859.857
03/21/2014  11:52:00       46.495      101.822        6.533       63.906       73.123       49.553     4083.926     5346.923     2455.514        1.223        0.594      111.935       41.608        0.138      338.201       10.692      859.837
03/21/2014  11:53:00      125.476       78.916        7.800       97.709       68.778       44.434     9547.118     4730.464     1974.381        1.914        0.813      148.229       36.963        0.062      338.377       10.985      859.831
03/21/2014  11:54:00      142.678       96.347        9.998       49.382       48.697       39.583     2438.615     2371.356     1566.814        1.806        0.319      172.162       24.855        0.021      338.205       10.698      859.818
03/21/2014  11:55:00       89.913       72.440       19.478       60.485       50.279       50.026     3658.415     2527.967     2502.566        1.120        0.434      115.464       22.113        0.037      338.263       10.796      859.799
03/21/2014  11:56:00       53.608       40.868       11.542       51.623       48.346       30.326     2664.907     2337.364      919.669        0.530        0.296       67.409       20.208        0.090      338.587       11.341      859.795
03/21/2014  11:57:00       82.121      -85.280       45.950       66.569      102.619       58.037     4431.489    10530.696     3368.273        1.723        0.917      118.391       63.534        0.288      338.506       11.203      859.783
03/21/2014  11:58:00       23.907       74.724      114.711       67.991       84.438       59.560     4622.731     7129.765     3547.437        1.730        0.765       78.456       64.569        0.677      338.607       11.372      859.774
03/21/2014  11:59:00       88.453      110.545       -9.767       67.969       50.665       47.314     4619.804     2566.900     2238.652        1.478        0.471      141.577       32.246        0.052      338.216       10.718      859.770
03/21/2014  12:00:00       10.230       85.547        5.238       54.700       56.788       40.455     2992.109     3224.860     1636.583        0.765        0.393       86.157       28.439        0.109      338.493       11.183      859.756
03/21/2014  12:01:00       56.105       60.150        3.793       39.296       42.353       29.392     1544.138     1793.758      863.887        0.549        0.210       82.254       25.474        0.096      338.619       11.395      859.749
03/21/2014  12:02:00        0.031       24.708        0.959       18.971       25.025       26.445      359.892      626.249      699.315        0.115        0.084       24.708       12.087        0.239      338.761       11.631      859.751
03/21/2014  12:03:00       13.948       12.362       48.452       35.020       76.808       41.914     1226.407     5899.454     1756.815        0.579        0.444       18.638       48.770        6.847      338.743       11.602      859.730
03/21/2014  12:04:00       -2.445      -40.359        2.910       25.204       40.909       25.544      635.242     1673.574      652.517        0.230        0.148       40.433       23.081        0.326      338.828       11.746      859.720
03/21/2014  12:05:00       32.496        8.941        6.414       23.135       22.061       24.809      535.245      486.695      615.464        0.141        0.082       33.704        9.918        0.087      339.103       12.206      859.720
03/21/2014  12:06:00      106.867       75.048       19.864       46.512       48.006       39.072     2163.379     2304.615     1526.594        1.172        0.300      130.586       19.171        0.022      338.516       11.220      859.702
03/21/2014  12:07:00      128.470       72.071       -0.546       38.774       49.172       32.958     1503.428     2417.914     1086.253        1.335        0.250      147.305       24.492        0.028      338.137       10.584      859.697
03/21/2014  12:08:00       26.543       32.499       28.138       33.563       25.222       27.534     1126.444      636.144      758.110        0.254        0.126       41.961       18.126        0.187      338.918       11.895      859.684
03/21/2014  12:09:00       75.321       56.310       18.006       42.897       29.582       38.719     1840.140      875.111     1499.171        0.669        0.211       94.043       25.344        0.073      338.700       11.532      859.661
03/21/2014  12:10:00      115.540       73.997       21.839       59.888       62.375       50.954     3586.601     3890.658     2596.355        1.469        0.504      137.204       32.228        0.055      339.066       12.144      859.631
03/21/2014  12:11:00      101.136      100.240       85.839      111.232       90.028       69.136    12372.450     8105.041     4779.726        2.645        1.263      142.396       66.670        0.219      339.086       12.176      859.611
03/21/2014  12:12:00       73.707      139.075      137.329       75.979       75.791       57.226     5772.831     5744.336     3274.798        2.921        0.740      157.400       45.669        0.084      338.689       11.509      859.606
03/21/2014  12:13:00      136.468      100.765       41.778       92.515       47.454       66.665     8558.947     2251.889     4444.179        2.289        0.763      169.638       65.774        0.150      338.553       11.281      859.609
03/21/2014  12:14:00       63.232       29.869       32.821       60.151       37.531       45.510     3618.173     1408.610     2071.138        0.653        0.355       69.931       16.328        0.055      338.739       11.597      859.607
03/21/2014  12:15:00      211.755      129.408       40.015       59.508       47.937       48.414     3541.165     2297.994     2343.905        3.568        0.409      248.167       33.373        0.018      338.400       11.021      859.589
03/21/2014  12:16:00      130.035       59.248       -9.987       70.670       42.878       39.693     4994.280     1838.494     1575.540        1.446        0.420      142.897       20.917        0.021      338.390       11.007      859.583
03/21/2014  12:17:00      112.823      127.099        4.246       56.608       52.455       45.809     3204.500     2751.508     2098.458        1.848        0.403      169.951       30.073        0.031      338.442       11.096      859.569
03/21/2014  12:18:00       46.980       30.749        7.687       39.376       47.713       20.114     1550.495     2276.484      404.579        0.372        0.212       56.148       12.600        0.050      338.694       11.519      859.570
03/21/2014  12:19:00      -15.437       14.406        9.416       24.185       47.725       35.747      584.930     2277.704     1277.878        0.234        0.207       21.115       22.515        1.137      339.298       12.535      859.557
03/21/2014  12:20:00      -47.222      -29.322       -3.637       60.790       46.245       33.201     3695.385     2138.566     1102.288        0.502        0.347       55.585       19.484        0.123      339.099       12.200      859.548
03/21/2014  12:21:00      -38.381      -50.945        4.947       62.694       43.507       34.301     3930.593     1892.832     1176.549        0.555        0.350       63.785       37.437        0.344      338.902       11.870      859.532
03/21/2014  12:22:00        0.793       29.543        0.378       35.221       33.751       28.069     1240.505     1139.103      787.876        0.202        0.158       29.554       14.714        0.248      338.970       11.984      859.511
03/21/2014  12:23:00        8.731       40.617       54.326       23.034       26.116       24.910      530.576      682.047      620.498        0.325        0.092       41.545       19.224        0.214      339.245       12.447      859.504
03/21/2014  12:24:00       64.757       61.061       15.139       40.019       30.297       30.076     1601.555      917.892      904.558        0.579        0.171       89.005        9.577        0.012      339.003       12.039      859.479
03/21/2014  12:25:00      159.223      118.517       23.348       90.885       63.341       59.047     8260.141     4012.059     3486.577        2.785        0.788      198.490       42.517        0.046      338.580       11.324      859.462
03/21/2014  12:26:00       85.089      114.177       -2.279       69.483       67.606       43.217     4827.912     4570.541     1867.670        1.577        0.563      142.396       37.134        0.068      338.593       11.348      859.455
03/21/2014  12:27:00      135.016       62.983        8.967       90.233       73.273       47.644     8141.916     5368.864     2269.986        1.903        0.789      148.984       20.633        0.019      338.647       11.439      859.446
03/21/2014  12:28:00       28.990       45.893       12.861       32.241       42.443       31.392     1039.510     1801.444      985.481        0.347        0.191       54.283       27.465        0.256      338.872       11.819      859.435
03/21/2014  12:29:00       68.760      147.509      134.178       67.926       76.409       68.711     4613.979     5838.348     4721.256        2.983        0.759      162.748       57.036        0.123      338.929       11.914      859.411
03/21/2014  12:30:00      120.414       64.409       78.563       91.343       74.805       58.559     8343.490     5595.856     3429.165        2.109        0.868      136.558       53.841        0.155      338.860       11.798      859.399
03/21/2014  12:31:00       34.142       62.691       81.700       78.960       73.551       59.510     6234.647     5409.722     3541.393        1.348        0.759       71.386       57.713        0.654      339.082       12.171      859.385
03/21/2014  12:32:00       66.036       57.308       72.317       82.568       91.634       53.219     6817.505     8396.807     2832.236        1.546        0.902       87.435       50.544        0.334      339.032       12.086      859.378
03/21/2014  12:33:00       68.906       12.063       72.614       76.213       78.032       51.077     5808.359     6088.991     2608.830        1.233        0.725       69.954       45.359        0.420      339.039       12.099      859.365
03/21/2014  12:34:00       78.433        2.756       68.452       66.783      117.134       68.190     4459.903    13720.367     4649.915        1.683        1.142       78.481       85.983        1.200      338.851       11.782      859.367
03/21/2014  12:35:00       -2.853      -40.839       15.296       42.466       36.950       27.089     1803.390     1365.280      733.799        0.291        0.195       40.939        5.412        0.017      339.072       12.156      859.370
03/21/2014  12:36:00       28.832       32.123       41.805       56.207       29.413       27.593     3159.190      865.115      761.367        0.420        0.239       43.164       14.155        0.108      339.199       12.370      859.360
03/21/2014  12:37:00      -59.233      -15.777       -8.096       28.355       16.691       19.988      803.985      278.593      399.519        0.265        0.074       61.298       18.575        0.092      338.850       11.781      859.336
03/21/2014  12:38:00       -8.129       16.428       52.658       12.774       25.995       17.744      163.167      675.740      314.863        0.213        0.058       18.329       18.260        0.993      339.568       12.990      859.326
03/21/2014  12:39:00       25.347       18.773       30.666       38.946       27.654       35.460     1516.781      764.746     1257.380        0.274        0.177       31.542       31.509        0.998      338.898       11.862      859.309
03/21/2014  12:40:00       53.785       34.377        4.279       53.824       34.695       24.121     2897.041     1203.754      581.825        0.439        0.234       63.833       24.063        0.142      338.992       12.020      859.299
03/21/2014  12:41:00       65.816       54.749        9.357       64.601       46.648       33.502     4173.275     2175.998     1122.358        0.744        0.374       85.611       30.811        0.130      339.027       12.079      859.280
03/21/2014  12:42:00      -24.297      -18.103        4.422       52.790       45.443       28.637     2786.749     2065.083      820.073        0.330        0.284       30.299       10.746        0.126      339.241       12.439      859.262
03/21/2014  12:43:00       -6.404        1.668       33.433       45.772       29.266       21.558     2095.077      856.523      464.757        0.229        0.171        6.618       10.661        2.595      339.583       13.016      859.246
03/21/2014  12:44:00      -22.894      -14.126        6.925       39.123       29.719       23.705     1530.630      883.218      561.936        0.187        0.149       26.902       16.374        0.370      339.352       12.627      859.245
03/21/2014  12:45:00      -39.506      -10.267        0.645       34.742       38.590       26.027     1206.986     1489.155      677.385        0.252        0.169       40.818       14.267        0.122      339.145       12.278      859.237
03/21/2014  12:46:00        7.715      -20.024        9.711       19.718       23.432       25.312      388.804      549.079      640.698        0.107        0.079       21.459       13.753        0.411      339.679       13.178      859.230
03/21/2014  12:47:00       17.648       53.214       67.488       31.065       38.770       34.083      965.019     1503.085     1161.679        0.566        0.181       56.064       29.320        0.273      339.442       12.778      859.217
03/21/2014  12:48:00        6.232       42.627       31.844       36.131       30.683       28.859     1305.462      941.453      832.829        0.297        0.154       43.081       29.217        0.460      339.484       12.849      859.194
03/21/2014  12:49:00      -30.460       -7.575       12.552       42.532       65.820       31.998     1808.967     4332.330     1023.854        0.415        0.358       31.388       23.127        0.543      339.577       13.007      859.180
03/21/2014  12:50:00     -115.507      -72.616       -1.991       60.621       36.584       33.125     3674.871     1338.403     1097.294        1.236        0.306      136.436       27.288        0.040      339.098       12.198      859.155
03/21/2014  12:51:00      -51.099      -47.177       -0.338       41.672       44.770       27.708     1736.539     2004.375      767.736        0.467        0.225       69.547       22.450        0.104      339.086       12.178      859.150
03/21/2014  12:52:00      -44.766      -11.394       19.820       50.065       35.572       27.694     2506.532     1265.372      766.946        0.353        0.227       46.193       22.306        0.233      339.517       12.904      859.145
03/21/2014  12:53:00       26.917      -28.726       33.899       53.726       62.196       37.151     2886.445     3868.368     1380.161        0.542        0.407       39.366       39.929        1.029      339.831       13.434      859.135
03/21/2014  12:54:00      114.667     -205.198      -28.109       78.347       87.348       57.678     6138.300     7629.716     3326.782        3.657        0.855      235.063       51.274        0.048      339.331       12.588      859.111
03/21/2014  12:55:00       65.708     -192.036      -12.783       54.514       56.247       42.389     2971.778     3163.764     1796.861        2.464        0.397      202.967       30.613        0.023      339.192       12.354      859.112
03/21/2014  12:56:00      104.047     -178.561       -7.337       58.751       66.771       50.018     3451.656     4458.404     2501.846        2.659        0.521      206.663       37.197        0.032      339.205       12.377      859.105
03/21/2014  12:57:00       19.900       19.423       61.709       37.949       62.628       38.684     1440.091     3922.293     1496.434        0.572        0.343       27.808       31.998        1.324      339.961       13.653      859.094
03/21/2014  12:58:00       81.719       66.519       87.652      116.230       81.594       51.859    13509.343     6657.550     2689.365        2.082        1.143      105.369       43.876        0.173      339.779       13.346      859.085
03/21/2014  12:59:00       12.154       20.291       57.332       55.565       75.868       46.816     3087.468     5755.991     2191.736        0.744        0.552       23.653       45.054        3.628      340.090       13.871      859.080
03/21/2014  13:00:00       91.178       54.162       49.441       79.981       68.695       56.340     6396.986     4718.983     3174.244        1.399        0.715      106.052       41.513        0.153      339.673       13.166      859.083
03/21/2014  13:01:00       68.028       43.816       44.267       81.731       61.996       54.835     6679.902     3843.467     3006.876        1.102        0.677       80.918       31.042        0.147      339.644       13.119      859.076
03/21/2014  13:02:00      129.290       95.633       19.567       72.608       59.887       45.235     5271.972     3586.466     2046.161        1.857        0.545      160.816       36.530        0.052      339.000       12.033      859.078
03/21/2014  13:03:00      101.584       48.567       23.259       43.254       78.007       40.685     1870.942     6085.125     1655.257        1.141        0.481      112.597       23.523        0.044      339.279       12.503      859.057
03/21/2014  13:04:00       32.828       50.410       68.842       51.475       73.340       40.422     2649.670     5378.786     1633.957        0.901        0.483       60.157       35.321        0.345      339.862       13.485      859.031
03/21/2014  13:05:00       52.082      112.604      121.506       71.316       81.702       74.987     5085.977     6675.159     5623.112        2.377        0.869      124.066       63.101        0.259      339.856       13.474      859.009
03/21/2014  13:06:00      149.376      103.821       78.612      117.833      103.741       80.373    13884.501    10762.136     6459.893        3.518        1.555      181.912       70.997        0.152      339.405       12.713      858.995
03/21/2014  13:07:00       95.804       69.888      110.528       94.600       68.808       62.303     8949.093     4734.572     3881.668        2.192        0.878      118.587       49.738        0.176      339.716       13.239      858.997
03/21/2014  13:08:00       97.912       61.600      106.020       78.489       86.446       62.559     6160.488     7472.906     3913.678        2.108        0.877      115.678       65.512        0.321      339.344       12.611      858.991
03/21/2014  13:09:00       66.021     -131.595        4.814       54.961       74.710       45.378     3020.686     5581.576     2059.132        1.618        0.533      147.227       38.652        0.069      339.557       12.972      858.982
03/21/2014  13:10:00       -6.780      -45.118       17.829       56.328       63.855       41.883     3172.897     4077.399     1754.155        0.570        0.450       45.625       38.214        0.702      339.727       13.259      858.959
03/21/2014  13:11:00       97.991     -135.690      -17.483       84.993      106.283       47.875     7223.844    11296.112     2292.003        2.456        1.041      167.373       57.752        0.119      339.437       12.769      858.933
03/21/2014  13:12:00       94.846     -130.894       -4.103       97.549      121.772       59.564     9515.880    14828.440     3547.904        2.701        1.395      161.645       82.262        0.259      339.547       12.953      858.912
03/21/2014  13:13:00       25.964       68.243       51.210       75.776       60.788       56.871     5742.028     3695.124     3234.320        1.031        0.634       73.015       48.308        0.438      339.914       13.575      858.916
03/21/2014  13:14:00       -3.600       30.132       29.331       38.021       58.930       30.134     1445.598     3472.800      908.079        0.380        0.291       30.346       25.408        0.701      339.955       13.643      858.896
03/21/2014  13:15:00       65.600       57.331       40.562       65.973       44.438       43.453     4352.442     1974.765     1888.122        0.872        0.411       87.121       35.948        0.170      340.060       13.819      858.886
03/21/2014  13:16:00      111.126       53.590       14.965       54.612       29.101       33.490     2982.456      846.862     1121.571        1.020        0.248      123.373       13.095        0.011      339.298       12.536      858.881
03/21/2014  13:17:00       99.100       88.245        6.251       72.888       71.368       50.431     5312.623     5093.455     2543.322        1.530        0.647      132.695       45.579        0.118      339.296       12.532      858.861
03/21/2014  13:18:00       30.713      132.750      -11.095       39.875       73.766       40.956     1589.977     5441.408     1677.377        1.370        0.435      136.257       43.052        0.100      339.432       12.761      858.850
03/21/2014  13:19:00      113.516       79.325       25.919       75.204       72.781       52.385     5655.659     5297.005     2744.162        1.677        0.685      138.486       31.171        0.051      339.637       13.107      858.831
03/21/2014  13:20:00      110.062      103.808       -0.366       44.913       38.318       39.262     2017.167     1468.255     1541.536        1.396        0.251      151.294       18.827        0.015      339.281       12.506      858.814
03/21/2014  13:21:00       -4.716        3.618      -14.704       17.852       47.188       17.765      318.701     2226.679      315.582        0.156        0.143        5.944        8.271        1.936      339.313       12.561      858.793
03/21/2014  13:22:00       15.746       21.920        5.811       28.365       36.114       23.621      804.594     1304.190      557.954        0.171        0.133       26.989       14.680        0.296      339.786       13.359      858.758
03/21/2014  13:23:00        0.353       41.911       17.520       29.538       46.451       31.717      872.497     2157.683     1005.972        0.305        0.202       41.913       24.849        0.351      339.886       13.528      858.743
03/21/2014  13:24:00      -19.929       39.662        7.809       32.868       39.596       30.399     1080.322     1567.827      924.074        0.280        0.179       44.388       26.192        0.348      340.037       13.783      858.723
03/21/2014  13:25:00       28.469       78.545       -5.997       40.362       43.500       28.157     1629.078     1892.290      792.829        0.566        0.216       83.545       20.571        0.061      339.799       13.381      858.699
03/21/2014  13:26:00       56.716      107.144        2.927       45.409       64.496       58.223     2061.963     4159.709     3389.890        1.216        0.481      121.230       48.277        0.159      339.697       13.207      858.683
03/21/2014  13:27:00       27.687      110.787       -3.844       54.605       64.506       47.140     2981.668     4161.038     2222.145        1.121        0.468      114.194       43.137        0.143      339.676       13.174      858.669
03/21/2014  13:28:00       63.794       57.945       -0.495       47.687       49.216       34.623     2274.036     2422.264     1198.765        0.666        0.295       86.181       17.144        0.040      339.865       13.492      858.656
03/21/2014  13:29:00      109.709       95.870       77.448      107.054       58.902       70.782    11460.562     3469.485     5010.096        2.358        0.997      145.695       66.734        0.210      340.036       13.779      858.627
03/21/2014  13:30:00      162.163      130.477       76.170      132.070       78.682       57.794    17442.422     6190.836     3340.094        3.804        1.349      208.138       65.847        0.100      339.758       13.309      858.599
03/21/2014  13:31:00       37.341       42.879       27.884       52.614       35.682       40.522     2768.230     1273.233     1642.024        0.485        0.284       56.859       16.490        0.084      340.163       13.996      858.601
03/21/2014  13:32:00       39.843        8.096       40.235       66.797       72.002       40.364     4461.826     5184.224     1629.249        0.727        0.564       40.658       22.942        0.318      340.161       13.990      858.590
03/21/2014  13:33:00       48.358       29.555       27.957       61.055       66.973       55.167     3727.772     4485.423     3043.344        0.762        0.563       56.674       25.317        0.200      340.302       14.227      858.566
03/21/2014  13:34:00      196.641      125.337       39.729       74.581       60.875       63.733     5562.356     3705.807     4061.869        3.464        0.667      233.189       38.119        0.027      339.588       13.020      858.553
03/21/2014  13:35:00      182.819       89.609       41.353       59.753       46.109       45.836     3570.456     2126.032     2100.893        2.548        0.390      203.599       36.112        0.031      339.545       12.947      858.547
03/21/2014  13:36:00      111.817       42.235       10.972       54.855       53.118       42.736     3009.111     2821.569     1826.390        1.103        0.383      119.528       35.479        0.088      339.555       12.967      858.536
03/21/2014  13:37:00       27.422       10.734       11.144       31.015       60.646       43.705      961.928     3677.978     1910.114        0.377        0.328       29.448       38.083        1.672      339.677       13.174      858.515
03/21/2014  13:38:00       28.033      -45.607       28.841       45.187       77.249       38.423     2041.876     5967.462     1476.292        0.659        0.474       53.534       37.327        0.486      339.817       13.411      858.485
03/21/2014  13:39:00       89.447       57.189       76.958       56.665       52.107       42.692     3210.959     2715.134     1822.566        1.247        0.387      106.166       21.165        0.040      339.812       13.401      858.484
03/21/2014  13:40:00       73.092       89.771      107.051       52.128       59.831       46.918     2717.287     3579.780     2201.258        1.668        0.425      115.763       42.221        0.133      339.682       13.180      858.473
03/21/2014  13:41:00       56.478       49.348       53.515       86.993       99.798       54.110     7567.700     9959.547     2927.917        1.447        1.023       75.000       69.953        0.870      339.743       13.284      858.463
03/21/2014  13:42:00       29.604      -48.814       27.764       65.718       69.970       50.549     4318.891     4895.758     2555.247        0.790        0.588       57.089       49.731        0.759      339.829       13.432      858.440
03/21/2014  13:43:00       84.991      107.702       95.192       73.582       66.483       52.888     5414.282     4420.036     2797.178        2.026        0.632      137.198       51.244        0.140      339.769       13.327      858.418
03/21/2014  13:44:00       49.634      -18.530       70.063       43.218      127.927       51.416     1867.788    16365.309     2643.624        1.429        1.044       52.980       74.707        1.988      339.573       12.998      858.412
03/21/2014  13:45:00       -6.869      -11.418       -0.388       37.190       90.621       26.655     1383.071     8212.103      710.464        0.524        0.515       13.326       10.296        0.597      339.834       13.438      858.381
03/21/2014  13:46:00      -75.710      146.114      -12.969       38.812       53.269       31.325     1506.388     2837.565      981.255        1.629        0.266      164.564       20.398        0.015      339.651       13.129      858.378
03/21/2014  13:47:00      -48.120       63.849       -1.600       48.914       51.248       30.211     2392.626     2626.384      912.705        0.616        0.297       79.952       31.343        0.154      339.871       13.502      858.369
03/21/2014  13:48:00        9.489      118.470       -8.435       25.011       45.133       30.783      625.531     2036.973      947.585        0.890        0.181      118.850       26.773        0.051      339.626       13.087      858.372
03/21/2014  13:49:00        8.867      101.734       13.472       42.644       66.772       35.085     1818.542     4458.515     1230.945        0.906        0.375      102.119       37.143        0.132      339.826       13.425      858.358
03/21/2014  13:50:00      -21.077      159.282      -15.482       45.356       82.122       30.441     2057.195     6744.029      926.680        1.789        0.486      160.670       41.543        0.067      339.930       13.599      858.358
03/21/2014  13:51:00      -67.464       52.678       -5.358       59.280       40.445       28.152     3514.074     1635.816      792.558        0.665        0.297       85.594       37.896        0.196      340.115       13.913      858.349
03/21/2014  13:52:00     -136.168       25.238      -15.843       46.892       36.685       30.642     2198.860     1345.761      938.929        1.196        0.224      138.487       27.987        0.041      339.612       13.065      858.340
03/21/2014  13:53:00     -140.440       30.204      -20.107       52.107       30.257       23.234     2715.172      915.495      539.836        1.260        0.209      143.651       27.173        0.036      339.562       12.979      858.324
03/21/2014  13:54:00      -98.231       15.156       -6.631       63.767       53.558       31.719     4066.274     2868.475     1006.072        0.893        0.397       99.393       32.387        0.106      339.816       13.408      858.289
03/21/2014  13:55:00      -93.048      -17.930      -10.195       59.334       66.360       33.386     3520.499     4403.648     1114.647        0.906        0.452       94.760       25.364        0.072      340.163       13.994      858.266
03/21/2014  13:56:00      -46.421      -31.565       10.760       83.300       48.849       37.561     6938.940     2386.256     1410.860        0.700        0.537       56.136       36.838        0.431      340.286       14.203      858.241
03/21/2014  13:57:00      -86.963      -61.002       -1.900       60.279       34.304       25.868     3633.498     1176.785      669.129        0.838        0.274      106.225       25.630        0.058      339.866       13.491      858.234
03/21/2014  13:58:00      -11.681      -53.503       13.138       72.162       39.238       30.484     5207.322     1539.626      929.275        0.542        0.384       54.763       33.203        0.368      340.241       14.125      858.222
03/21/2014  13:59:00      -35.908      -44.323       14.037       56.597       36.080       26.543     3203.214     1301.796      704.555        0.433        0.260       57.043       29.965        0.276      340.184       14.029      858.206
03/21/2014  14:00:00      -26.431      -34.295       14.621       52.481       35.994       26.126     2754.284     1295.601      682.565        0.341        0.237       43.299       21.605        0.249      340.306       14.237      858.188
03/21/2014  14:01:00      -42.830      -59.011       10.335       40.078       36.722       22.695     1606.238     1348.499      515.052        0.445        0.173       72.916       22.103        0.092      339.927       13.597      858.185
03/21/2014  14:02:00        7.299      -18.174       24.955       21.709       32.866       22.028      471.274     1080.162      485.220        0.152        0.102       19.585       21.325        1.186      340.446       14.473      858.171
03/21/2014  14:03:00        3.055       26.555       64.326       23.805       33.559       17.115      566.690     1126.202      292.921        0.342        0.099       26.730       11.198        0.176      340.653       14.824      858.172
03/21/2014  14:04:00       42.290       55.797       17.571       23.485       25.452       33.382      551.539      647.794     1114.366        0.376        0.116       70.012       18.142        0.067      339.943       13.621      858.167
03/21/2014  14:05:00        2.070       24.877       43.145       16.293       29.770       15.989      265.451      886.255      255.639        0.195        0.070       24.963        8.839        0.125      340.621       14.770      858.156
03/21/2014  14:06:00       52.010       35.729       31.492       37.693       31.311       38.825     1420.798      980.404     1507.343        0.444        0.195       63.100       23.965        0.144      340.327       14.271      858.143
03/21/2014  14:07:00      191.473       97.586       36.165       89.148       55.387       57.500     7947.278     3067.754     3306.243        3.090        0.716      214.906       48.979        0.052      340.001       13.716      858.129
03/21/2014  14:08:00       96.373       80.612       53.095       55.004       54.797       55.705     3025.406     3002.752     3103.045        1.387        0.457      125.642       46.519        0.137      339.923       13.588      858.120
03/21/2014  14:09:00       24.581       32.022       58.588       49.326       57.357       32.233     2433.028     3289.784     1038.992        0.591        0.338       40.369       37.990        0.886      340.363       14.331      858.100
03/21/2014  14:10:00       47.470       34.299       29.535       41.416       52.072       28.625     1715.324     2711.521      819.414        0.477        0.262       58.564       12.989        0.049      340.211       14.076      858.072
03/21/2014  14:11:00       21.359      120.000       -1.791       59.822       79.264       39.696     3578.646     6282.778     1575.750        1.315        0.572      121.886       43.893        0.130      340.196       14.050      858.069
03/21/2014  14:12:00      -14.649      196.253      -20.915      107.718      111.946       57.141    11603.247    12531.883     3265.145        3.328        1.370      196.799       55.698        0.080      340.326       14.265      858.043
03/21/2014  14:13:00       64.406       69.818       11.103       81.958       57.948       42.961     6717.072     3357.976     1845.620        1.053        0.596       94.988       23.228        0.060      340.307       14.237      858.009
03/21/2014  14:14:00      110.041       76.347       20.934       67.075       45.186       41.226     4499.013     2041.766     1699.594        1.331        0.412      133.933       27.437        0.042      340.278       14.186      857.978
03/21/2014  14:15:00       17.321        3.702       52.529       65.873       82.606       50.014     4339.282     6823.763     2501.368        0.837        0.683       17.712       42.706        5.813      340.884       15.212      857.944
03/21/2014  14:16:00       98.237       68.562       59.866      105.897       62.941       56.128    11214.113     3961.594     3150.373        1.813        0.916      119.797       51.426        0.184      340.608       14.745      857.918
03/21/2014  14:17:00       66.850      147.727      142.639      118.186       89.803       81.147    13967.839     8064.528     6584.788        3.762        1.431      162.149       88.696        0.299      340.511       14.578      857.891
03/21/2014  14:18:00      189.435      126.389       76.324      120.013       94.097       89.055    14403.144     8854.196     7930.841        4.443        1.559      227.727       73.063        0.103      340.484       14.533      857.880
03/21/2014  14:19:00      256.372      157.298       42.554      103.629       70.003       66.916    10739.034     4900.373     4477.775        5.620        1.006      300.781       50.829        0.029      340.085       13.860      857.869
03/21/2014  14:20:00      197.092      142.965       -5.657       87.664       73.066       57.918     7684.945     5338.603     3354.485        3.784        0.819      243.483       45.370        0.035      339.898       13.544      857.875
03/21/2014  14:21:00       83.566       71.247       -9.262       75.503       59.287       23.070     5700.674     3514.897      532.227        1.094        0.487      109.815       14.145        0.017      339.889       13.530      857.862
03/21/2014  14:22:00       39.055       59.561        3.865       38.335       39.652       31.624     1469.580     1572.302     1000.075        0.456        0.202       71.223       27.234        0.146      340.086       13.864      857.839
03/21/2014  14:23:00       10.729       66.556       -8.699       28.250       49.547       26.347      798.049     2454.900      694.157        0.428        0.197       67.415       25.036        0.138      340.195       14.048      857.823
03/21/2014  14:24:00      -41.711       12.412        6.508       63.300       56.882       24.066     4006.926     3235.576      579.166        0.488        0.391       43.518       29.019        0.445      340.504       14.571      857.794
03/21/2014  14:25:00       84.922       55.794       16.053       59.233       39.681       38.071     3508.498     1574.606     1449.401        0.856        0.327      101.611       15.136        0.022      340.306       14.236      857.797
03/21/2014  14:26:00       53.501       87.720       15.714       71.418       60.755       45.409     5100.581     3691.174     2061.964        1.083        0.543      102.748       36.556        0.127      340.400       14.395      857.775
03/21/2014  14:27:00       13.413       48.560       13.809       45.176       49.751       35.516     2040.858     2475.142     1261.376        0.425        0.289       50.379       31.294        0.386      340.487       14.541      857.782
03/21/2014  14:28:00       -8.056       78.674       -7.222       29.993       33.401       26.675      899.605     1115.614      711.566        0.452        0.136       79.085       19.724        0.062      340.365       14.336      857.778
03/21/2014  14:29:00       58.472       45.159       26.262       60.863       48.843       44.685     3704.328     2385.662     1996.771        0.712        0.404       73.880       31.056        0.177      340.571       14.683      857.766
03/21/2014  14:30:00       51.772       95.568      -13.015       58.640       71.980       41.881     3438.624     5181.119     1754.023        1.118        0.519      108.690       35.808        0.109      340.464       14.502      857.768
03/21/2014  14:31:00        9.141       87.443       -8.906       50.681       66.835       33.574     2568.607     4466.885     1127.192        0.798        0.408       87.920       31.575        0.129      340.671       14.852      857.741
03/21/2014  14:32:00     -121.508       39.623      -15.358       75.740       48.760       29.478     5736.614     2377.559      868.955        1.278        0.449      127.806       21.996        0.030      340.382       14.364      857.738
03/21/2014  14:33:00      -37.173       28.700       11.571       53.792       42.510       33.983     2893.620     1807.095     1154.868        0.410        0.293       46.963       33.676        0.514      340.969       15.357      857.716
03/21/2014  14:34:00      -47.794      -29.386       18.592       50.691       49.530       31.706     2569.548     2453.215     1005.246        0.476        0.301       56.105       31.835        0.322      340.975       15.368      857.707
03/21/2014  14:35:00       -8.155       59.659        0.420       31.964       55.718       27.141     1021.686     3104.511      736.651        0.424        0.243       60.214       25.674        0.182      340.612       14.753      857.721
03/21/2014  14:36:00      -16.203       13.858       15.787       79.003       88.567       47.757     6241.479     7844.041     2280.704        0.853        0.818       21.322       39.029        3.351      340.771       15.021      857.722
03/21/2014  14:37:00       30.932       93.685      115.311       77.528       69.763       58.176     6010.607     4866.829     3384.435        1.864        0.713       98.660       50.911        0.266      340.747       14.981      857.717
03/21/2014  14:38:00      151.997       83.416       27.556       77.129       56.148       66.485     5948.878     3152.608     4420.311        2.217        0.676      173.382       58.713        0.115      340.353       14.312      857.727
03/21/2014  14:39:00       17.406       57.666       77.273       43.072       51.201       37.069     1855.219     2621.584     1374.098        0.772        0.293       60.236       28.967        0.231      340.689       14.881      857.711
03/21/2014  14:40:00       83.734      100.567      110.311       71.631       62.480       50.732     5130.929     3903.775     2573.744        2.045        0.580      130.863       38.091        0.085      340.371       14.344      857.697
03/21/2014  14:41:00       96.153       97.060       96.580       68.918       68.960       50.351     4749.679     4755.419     2535.246        2.001        0.602      136.624       41.024        0.090      340.390       14.378      857.691
03/21/2014  14:42:00       92.886       69.478       66.070       86.361       59.216       61.609     7458.240     3506.537     3795.720        1.629        0.738      115.996       61.217        0.279      340.596       14.726      857.673
03/21/2014  14:43:00       41.117       47.194       18.176       42.083       28.522       29.311     1771.001      813.496      859.162        0.385        0.172       62.593       18.622        0.089      340.904       15.246      857.647
03/21/2014  14:44:00       40.342       78.153       92.640       67.562       58.823       51.213     4564.610     3460.091     2622.731        1.348        0.532       87.951       33.741        0.147      340.970       15.357      857.593
03/21/2014  14:45:00       44.108      110.996       88.579       81.759       54.607       72.847     6684.539     2981.970     5306.692        1.854        0.749      119.439       34.050        0.081      340.584       14.705      857.572
03/21/2014  14:46:00      -14.977       99.837      -10.412       54.753       68.389       33.366     2997.894     4677.066     1113.305        0.954        0.439      100.954       40.298        0.159      340.643       14.804      857.571
03/21/2014  14:47:00        7.192       42.239       21.080       43.593       57.316       36.411     1900.330     3285.141     1325.780        0.439        0.326       42.847       18.104        0.179      341.029       15.458      857.551
03/21/2014  14:48:00       65.546       92.460       23.293      101.437       81.012       52.309    10289.438     6562.874     2736.212        1.648        0.979      113.336       45.543        0.161      340.927       15.286      857.532
03/21/2014  14:49:00       65.497       42.676      -12.538       33.209       61.342       29.180     1102.845     3762.804      851.475        0.599        0.286       78.173       18.292        0.055      340.496       14.558      857.548
03/21/2014  14:50:00       -7.546       56.606        3.079       36.305       63.027       26.819     1318.035     3972.451      719.256        0.464        0.300       57.106       24.898        0.190      340.847       15.150      857.552
03/21/2014  14:51:00      -21.312      -35.793        1.808       44.044       42.054       37.806     1939.866     1768.551     1429.324        0.344        0.257       41.658       19.778        0.225      340.534       14.621      857.560
03/21/2014  14:52:00      -53.775      -36.698      -20.522       52.907       62.972       34.911     2799.138     3965.520     1218.768        0.632        0.399       65.103       24.410        0.141      340.384       14.367      857.543
03/21/2014  14:53:00     -120.274      -77.315       -8.759       55.820       40.869       36.641     3115.860     1670.315     1342.591        1.332        0.306      142.981       36.474        0.065      340.401       14.396      857.518
03/21/2014  14:54:00      -12.087      -45.873       23.712       83.182       56.750       43.254     6919.170     3220.511     1870.879        0.741        0.601       47.438       28.494        0.361      341.069       15.525      857.508
03/21/2014  14:55:00        9.715      -22.830       20.658       48.777       38.479       35.006     2379.178     1480.672     1225.415        0.306        0.254       24.811       32.302        1.695      341.223       15.787      857.512
03/21/2014  14:56:00       33.964      -37.807        0.408       57.384       63.435       28.263     3292.912     4024.025      798.771        0.535        0.406       50.823       13.948        0.075      340.825       15.113      857.508
03/21/2014  14:57:00       84.750      -63.919       41.441       82.565       89.101       46.047     6817.018     7939.016     2120.322        1.493        0.844      106.152       48.241        0.207      341.179       15.710      857.484
03/21/2014  14:58:00       67.676      -89.682       22.023       70.307      126.112       72.864     4943.079    15904.254     5309.114        1.963        1.308      112.352       83.976        0.559      340.907       15.251      857.474
03/21/2014  14:59:00      127.347     -146.959       -1.389       73.675       62.225       52.880     5427.960     3872.005     2796.287        2.495        0.605      194.459       42.784        0.048      340.835       15.128      857.468
03/21/2014  15:00:00       43.757        3.006       59.514       59.863       96.509       61.752     3583.588     9313.938     3813.273        1.109        0.836       43.860       63.901        2.123      341.070       15.528      857.474
03/21/2014  15:01:00       17.557       37.189        6.438       33.569       27.293       28.377     1126.890      744.913      805.266        0.220        0.134       41.125       20.196        0.241      340.786       15.048      857.484
03/21/2014  15:02:00        9.042      -38.966       18.771       42.234       49.657       31.466     1783.747     2465.804      990.135        0.360        0.262       40.001       22.654        0.321      341.137       15.642      857.472
03/21/2014  15:03:00      -57.656      -16.490       -8.361       35.961       27.997       22.639     1293.215      783.828      512.506        0.313        0.129       59.968       18.376        0.094      340.671       14.852      857.474
03/21/2014  15:04:00       64.030     -121.800      -17.213       41.532       38.397       29.210     1724.897     1474.308      853.205        1.164        0.203      137.604       21.787        0.025      340.785       15.046      857.457
03/21/2014  15:05:00     -118.541      -74.419      -15.177       48.906       52.461       22.783     2391.753     2752.156      519.063        1.274        0.283      139.965       19.090        0.019      340.522       14.600      857.445
03/21/2014  15:06:00      -44.987      -36.126       10.274       63.696       44.749       31.681     4057.224     2002.436     1003.695        0.525        0.353       57.697       24.046        0.174      341.046       15.486      857.418
03/21/2014  15:07:00      -13.960        3.258       24.492       41.617       27.019       23.123     1731.947      730.036      534.667        0.190        0.150       14.335       20.346        2.015      341.036       15.471      857.413
03/21/2014  15:08:00        5.334       36.420       20.696       27.302       34.307       42.443      745.389     1176.978     1801.384        0.275        0.186       36.809       25.972        0.498      340.927       15.285      857.412
03/21/2014  15:09:00       29.464       25.245       15.112       20.931       26.212       28.417      438.111      687.068      807.513        0.183        0.097       38.800       11.309        0.085      340.889       15.222      857.412
03/21/2014  15:10:00      -45.668      -29.411       -3.968       34.864       36.156       21.070     1215.495     1307.249      443.964        0.297        0.148       54.319       12.024        0.049      341.107       15.592      857.414
03/21/2014  15:11:00       37.315       70.602       30.192       47.319       45.202       46.479     2239.072     2043.225     2160.287        0.686        0.322       79.856       30.484        0.146      341.126       15.622      857.407
03/21/2014  15:12:00       42.260      106.496       12.354       51.407       64.306       44.720     2642.718     4135.312     1999.878        1.103        0.439      114.574       40.749        0.126      340.983       15.381      857.418
03/21/2014  15:13:00      203.066      142.442        8.166       86.337       76.245       53.769     7454.109     5813.299     2891.080        3.887        0.808      248.043       44.072        0.032      340.613       14.751      857.425
03/21/2014  15:14:00      158.984      101.564       10.431       69.172       35.303       42.676     4784.728     1246.316     1821.282        2.177        0.393      188.656       33.992        0.032      340.511       14.579      857.426
03/21/2014  15:15:00       55.336       56.209       43.055       57.859       32.999       38.301     3347.666     1088.950     1466.937        0.699        0.295       78.877       31.770        0.162      340.651       14.818      857.423
03/21/2014  15:16:00       68.733       61.453       27.193       55.135       32.233       50.843     3039.845     1038.954     2585.008        0.795        0.333       92.200       46.924        0.259      340.519       14.595      857.419
03/21/2014  15:17:00      126.718       59.036       34.830       78.352       64.885       48.446     6139.066     4210.039     2347.060        1.672        0.635      139.795       32.393        0.054      340.618       14.761      857.403
03/21/2014  15:18:00       93.665       84.100       52.620       63.172       43.901       47.839     3990.665     1927.312     2288.567        1.341        0.410      125.881       36.415        0.084      340.706       14.911      857.384
03/21/2014  15:19:00       98.681       36.292       43.243       79.907       57.600       52.670     6385.058     3317.808     2774.083        1.270        0.624      105.143       43.744        0.173      340.713       14.923      857.373
03/21/2014  15:20:00      105.833       92.459       57.841       84.161       68.215       75.163     7083.146     4653.278     5649.456        2.024        0.869      140.532       58.495        0.173      340.910       15.255      857.353
03/21/2014  15:21:00      117.327      146.555       89.475      123.462       66.736       66.021    15242.851     4453.640     4358.794        3.365        1.203      187.734       66.865        0.127      340.972       15.359      857.339
03/21/2014  15:22:00       99.117       84.734        2.599       84.315       61.275       39.473     7108.964     3754.636     1558.137        1.471        0.621      130.399       26.744        0.042      340.663       14.837      857.359
03/21/2014  15:23:00       55.550       72.820       14.239       42.375       47.610       30.029     1795.610     2266.721      901.748        0.678        0.248       91.589       28.272        0.095      340.749       14.984      857.339
03/21/2014  15:24:00       86.488       45.983       11.622       79.954       59.184       43.941     6392.593     3502.744     1930.780        1.078        0.591       97.952       28.789        0.086      340.648       14.811      857.330
03/21/2014  15:25:00      169.051      112.462        8.035       49.766       47.386       36.671     2476.701     2245.454     1344.763        2.368        0.303      203.042       24.108        0.014      340.492       14.548      857.315
03/21/2014  15:26:00       69.866       52.977       -6.875       50.555       32.612       22.839     2555.811     1063.530      521.620        0.594        0.207       87.680        8.916        0.010      340.532       14.617      857.307
03/21/2014  15:27:00       16.698       41.636       -5.119       33.168       75.221       26.027     1100.084     5658.227      677.425        0.474        0.372       44.860       32.613        0.529      340.663       14.839      857.297
03/21/2014  15:28:00       14.907      100.036       -6.933       38.322       83.752       27.875     1468.586     7014.429      777.018        0.977        0.463      101.141       32.910        0.106      340.667       14.845      857.286
03/21/2014  15:29:00        8.233       44.354       43.010       24.443       35.875       48.198      597.442     1286.999     2323.029        0.405        0.210       45.112       31.112        0.476      340.794       15.061      857.271
03/21/2014  15:30:00        6.044       29.902       47.141       24.058       27.926       24.410      578.792      779.870      595.838        0.255        0.098       30.507       13.878        0.207      340.782       15.040      857.260
03/21/2014  15:31:00        1.919      -30.416       10.460       25.502       44.439       25.716      650.349     1974.834      661.337        0.216        0.164       30.477       23.817        0.611      340.895       15.230      857.250
03/21/2014  15:32:00       15.369       31.676       48.612       30.981       32.374       29.026      959.853     1048.047      842.514        0.323        0.143       35.208       23.053        0.429      340.854       15.161      857.254
03/21/2014  15:33:00       87.594       43.679       58.677       69.365       83.273       48.634     4811.434     6934.406     2365.300        1.356        0.706       97.880       43.107        0.194      340.747       14.981      857.249
03/21/2014  15:34:00       68.658       93.869      104.964       77.472       83.712       58.553     6001.897     7007.775     3428.504        2.049        0.822      116.298       47.510        0.167      340.638       14.794      857.250
03/21/2014  15:35:00      123.766       90.068       78.398       66.942       59.589       56.358     4481.170     3550.870     3176.203        2.039        0.560      153.069       37.124        0.059      340.508       14.573      857.244
03/21/2014  15:36:00       91.420       44.407       61.870       82.335       65.000       51.848     6779.106     4225.029     2688.249        1.392        0.685      101.635       51.244        0.254      340.558       14.660      857.226
03/21/2014  15:37:00       66.900       86.072      106.991       80.491       53.250       52.609     6478.821     2835.590     2767.745        1.770        0.604      109.014       52.463        0.232      340.653       14.823      857.210
03/21/2014  15:38:00       93.690       84.335       66.440       85.423       63.583       54.801     7297.160     4042.801     3003.196        1.732        0.717      126.057       45.517        0.130      340.803       15.075      857.178
03/21/2014  15:39:00       81.554       60.769       83.381       75.523       66.714       51.031     5703.772     4450.748     2604.160        1.503        0.638      101.705       42.180        0.172      340.981       15.375      857.158
03/21/2014  15:40:00       26.390       49.133       66.863       42.205       37.177       34.932     1781.252     1382.158     1220.258        0.598        0.219       55.771       18.377        0.109      341.045       15.485      857.148
03/21/2014  15:41:00        0.001       -6.558       39.551       43.481       92.569       36.811     1890.555     8569.027     1355.053        0.671        0.591        6.558       43.816       44.636      341.130       15.630      857.113
03/21/2014  15:42:00       17.781      -36.178        6.745       33.847       48.074       34.109     1145.594     2311.128     1163.410        0.314        0.231       40.312       28.164        0.488      341.293       15.907      857.102
03/21/2014  15:43:00       88.333       60.507        3.049       65.388       63.569       37.580     4275.569     4041.009     1412.259        1.060        0.486      107.069       29.476        0.076      341.073       15.532      857.091
03/21/2014  15:44:00      -31.801      110.427       -3.007       35.398       40.328       37.859     1253.005     1626.333     1433.272        0.876        0.216      114.914       21.360        0.035      340.756       14.995      857.072
03/21/2014  15:45:00       49.189       36.884       21.598       42.401       26.965       19.462     1797.857      727.105      378.751        0.357        0.145       61.482       20.115        0.107      341.004       15.417      857.070
03/21/2014  15:46:00       35.723       17.983        7.606       21.022       28.642       20.469      441.919      820.360      418.963        0.167        0.084       39.994       11.974        0.090      340.928       15.288      857.051
03/21/2014  15:47:00       57.500       73.994        3.159       52.207       44.869       32.946     2725.536     2013.234     1085.434        0.731        0.291       93.709       24.716        0.070      340.989       15.393      857.027
03/21/2014  15:48:00       42.902       35.723        1.386       49.917       34.019       24.743     2491.660     1157.326      612.226        0.369        0.213       55.828       18.962        0.115      341.026       15.453      856.999
03/21/2014  15:49:00       57.333       40.370       36.799       54.400       47.703       35.602     2959.350     2275.570     1267.500        0.639        0.325       70.120       30.220        0.186      341.388       16.065      856.982
03/21/2014  15:50:00       73.103      107.805      120.831       64.800       69.400       50.109     4198.976     4816.372     2510.955        2.154        0.576      130.254       51.897        0.159      340.918       15.270      856.968
03/21/2014  15:51:00      109.223       72.246       57.059       68.481       44.831       52.681     4689.610     2009.810     2775.295        1.494        0.474      130.954       45.608        0.121      340.910       15.256      856.950
03/21/2014  15:52:00      104.885       85.334       87.743       75.168       77.539       62.227     5650.205     6012.273     3872.244        2.076        0.777      135.214       61.618        0.208      341.263       15.853      856.932
03/21/2014  15:53:00       71.650       91.664      116.631       85.024      102.089       74.938     7229.143    10422.079     5615.677        2.520        1.163      116.344       65.010        0.312      341.480       16.222      856.914
03/21/2014  15:54:00      104.274      -54.520       66.015       98.270      152.560       89.343     9656.998    23274.513     7982.188        2.955        2.046      117.667       99.815        0.720      341.343       15.987      856.894
03/21/2014  15:55:00       99.625      -55.424       36.770       82.789      102.832       70.064     6854.100    10574.418     4909.012        1.834        1.117      114.004       58.490        0.263      341.081       15.545      856.943
03/21/2014  15:56:00       69.148     -164.485      -18.340       63.179       57.461       33.477     3991.523     3301.738     1120.679        2.029        0.421      178.429       26.159        0.021      340.836       15.129      856.965
03/21/2014  15:57:00       39.677      -25.242       14.648       46.210       56.610       43.782     2135.402     3204.702     1916.871        0.484        0.363       47.026       28.211        0.360      341.236       15.807      856.949
03/21/2014  15:58:00       17.795      -18.422       22.060       28.146       56.677       40.486      792.193     3212.251     1639.095        0.339        0.282       25.613       32.317        1.592      341.216       15.775      856.947
03/21/2014  15:59:00       18.362       24.155       91.756       57.117       91.851       61.032     3262.349     8436.675     3724.881        1.238        0.771       30.341       62.523        4.246      341.424       16.128      856.927
03/21/2014  16:00:00       53.158     -146.320       15.678       76.080      113.679       78.106     5788.220    12922.852     6100.561        2.464        1.241      155.677       84.368        0.294      341.109       15.592      856.914
03/21/2014  16:01:00        9.058       36.901      101.077       37.908       75.234       45.804     1437.005     5660.187     2098.027        1.043        0.460       37.997       50.332        1.755      341.345       15.993      856.898
03/21/2014  16:02:00        2.700       11.584       49.445       18.987       22.032       13.558      360.519      485.420      183.830        0.181        0.051       11.895       10.394        0.764      341.563       16.362      856.892
03/21/2014  16:03:00        6.194      -14.748        1.055       18.350       40.679       28.523      336.708     1654.792      813.569        0.153        0.140       15.996       26.430        2.730      341.531       16.307      856.882
03/21/2014  16:04:00       22.911       -8.066       10.715       27.677       32.869       24.621      765.991     1080.376      606.188        0.158        0.123       24.290       20.645        0.722      341.698       16.592      856.864
03/21/2014  16:05:00       17.673     -108.119      -11.242       29.494       31.882       25.310      869.916     1016.475      640.616        0.733        0.126      109.554        8.511        0.006      341.015       15.435      856.851
03/21/2014  16:06:00       54.244      -75.898       28.360       45.659       57.662       42.751     2084.768     3324.925     1827.688        0.837        0.362       93.289       33.868        0.132      341.522       16.293      856.838
03/21/2014  16:07:00      -20.903     -126.370       -9.661       79.229      102.227       50.062     6277.181    10450.263     2506.232        1.786        0.962      128.087       58.724        0.210      341.540       16.320      856.837
03/21/2014  16:08:00       23.247      -31.086       34.487       64.400       80.176       50.087     4147.338     6428.141     2508.743        0.789        0.654       38.817       48.000        1.529      341.531       16.309      856.841
03/21/2014  16:09:00      -69.188      -65.677       13.893       54.709       71.888       40.044     2993.107     5167.886     1603.533        0.953        0.488       95.396       46.684        0.239      341.417       16.117      856.847
03/21/2014  16:10:00      -80.612      -85.090        4.176       83.356       83.927       39.367     6948.142     7043.808     1549.786        1.465        0.777      117.211       45.921        0.153      341.542       16.325      856.834
03/21/2014  16:11:00     -141.247     -113.676      -15.405       50.503       57.911       26.668     2550.546     3353.694      711.181        1.986        0.331      181.309       15.220        0.007      341.261       15.850      856.826
03/21/2014  16:12:00      -23.324      -60.741        4.432       40.774       31.929       33.327     1662.542     1019.445     1110.666        0.402        0.190       65.066       21.311        0.107      341.638       16.490      856.817
03/21/2014  16:13:00     -134.304      -41.316      -13.305       29.754       37.405       22.456      885.285     1399.117      504.268        1.135        0.139      140.516       12.794        0.008      341.039       15.474      856.810
03/21/2014  16:14:00     -103.261      -12.831       -3.954       37.748       25.076       22.040     1424.943      628.794      485.742        0.669        0.127      104.055       16.291        0.025      341.285       15.891      856.792
03/21/2014  16:15:00      -43.698        1.679      -10.692       17.326       11.492       12.138      300.176      132.076      147.335        0.130        0.029       43.730        5.406        0.015      341.121       15.614      856.775
03/21/2014  16:16:00      -33.054       -4.039        3.834       22.845       23.177       23.799      521.901      537.165      566.408        0.137        0.081       33.299       14.519        0.190      341.399       16.085      856.761
03/21/2014  16:17:00       -6.960       30.220       47.626       17.987       24.802       16.588      323.533      615.163      275.174        0.222        0.061       31.011       15.619        0.254      341.704       16.601      856.745
03/21/2014  16:18:00        9.152       69.434       -5.124       29.232       32.599       26.583      854.485     1062.698      706.644        0.378        0.131       70.035       26.810        0.147      341.263       15.854      856.731
03/21/2014  16:19:00      -25.660       98.446      -11.325       19.388       26.420       17.220      375.882      697.998      296.545        0.592        0.069      101.735        9.421        0.009      341.257       15.843      856.717
03/21/2014  16:20:00      -65.005       97.997      -11.448       30.154       36.417       26.253      909.290     1326.233      689.206        0.844        0.146      117.597       12.072        0.011      341.416       16.113      856.695
03/21/2014  16:21:00      -96.091       91.904      -28.673       26.510       34.437       21.301      702.790     1185.884      453.752        1.042        0.117      132.965       15.712        0.014      341.287       15.894      856.686
03/21/2014  16:22:00      -46.098       30.719      -12.753       43.754       31.477       25.401     1914.442      990.785      645.219        0.339        0.178       55.395       26.896        0.236      341.440       16.154      856.672
03/21/2014  16:23:00      -59.746       50.725        4.297       34.516       51.954       22.709     1191.358     2699.173      515.683        0.528        0.220       78.374       16.669        0.045      341.736       16.657      856.672
03/21/2014  16:24:00      -21.030       53.065       13.881       33.389       42.284       27.628     1114.825     1787.915      763.301        0.356        0.183       57.081       26.091        0.209      341.716       16.621      856.686
03/21/2014  16:25:00      -71.484      -25.396        1.859       58.439       35.201       24.218     3415.093     1239.134      586.495        0.550        0.262       75.862       24.974        0.108      342.085       17.247      856.681
03/21/2014  16:26:00       14.015       -2.220       27.773       25.355       32.116       20.861      642.890     1031.468      435.161        0.154        0.105       14.190       19.965        1.980      342.185       17.418      856.687
03/21/2014  16:27:00        8.981       19.889       10.137       29.878       18.123       23.774      892.724      328.443      565.218        0.118        0.089       21.822       16.612        0.579      341.812       16.784      856.697
03/21/2014  16:28:00        7.394      -11.063       22.534       22.424       39.109       25.497      502.850     1529.520      650.102        0.168        0.134       13.307       18.670        1.968      341.904       16.940      856.686
03/21/2014  16:29:00      -39.850      -27.995        8.432       48.444       34.807       26.924     2346.857     1211.506      724.922        0.336        0.214       48.700       23.326        0.229      341.991       17.088      856.672
03/21/2014  16:30:00      -79.628      -44.998        5.686       73.639       63.192       33.119     5422.691     3993.219     1096.878        0.945        0.526       91.463       35.477        0.150      341.809       16.779      856.660
03/21/2014  16:31:00     -152.839     -130.763      -10.301       67.067       53.336       38.143     4497.958     2844.779     1454.875        2.468        0.440      201.144       40.728        0.041      341.275       15.873      856.653
03/21/2014  16:32:00     -140.295      -36.763      -28.616       44.739       73.981       31.694     2001.613     5473.257     1004.541        1.516        0.424      145.032       39.050        0.072      341.275       15.875      856.632
03/21/2014  16:33:00      -14.229       51.246       18.123       49.570       58.698       38.057     2457.156     3445.439     1448.361        0.525        0.368       53.185       36.094        0.461      341.571       16.377      856.599
03/21/2014  16:34:00      100.753       85.498       14.438       44.960       32.940       25.430     2021.381     1085.015      646.681        1.071        0.188      132.141       14.114        0.011      341.296       15.911      856.566
03/21/2014  16:35:00       65.784       56.857       40.659       58.925       43.882       52.977     3472.170     1925.614     2806.566        0.871        0.410       86.950       38.086        0.192      341.389       16.067      856.548
03/21/2014  16:36:00       98.798       36.777       14.786       63.697       52.656       39.123     4057.308     2772.695     1530.641        0.985        0.418      105.422       30.148        0.082      341.583       16.397      856.520
03/21/2014  16:37:00      121.084       43.428       13.088       63.056       66.124       43.102     3976.080     4372.415     1857.784        1.346        0.510      128.636       36.274        0.080      341.612       16.444      856.515
03/21/2014  16:38:00      152.747      129.046       -0.533       56.757       33.991       35.115     3221.307     1155.420     1233.029        2.280        0.280      199.962       15.466        0.006      341.388       16.063      856.514
03/21/2014  16:39:00       61.982      -42.141        7.924       69.060       95.443       31.093     4769.277     9109.399      966.764        1.026        0.742       74.951       29.103        0.151      341.763       16.701      856.513
03/21/2014  16:40:00       39.049      -61.741       22.911       56.308       85.254       44.278     3170.605     7268.319     1960.565        0.913        0.620       73.053       55.776        0.583      342.015       17.128      856.507
03/21/2014  16:41:00      162.524     -243.635      -35.594       50.213       64.036       34.807     2521.371     4100.627     1211.545        4.743        0.392      292.868       23.806        0.007      341.572       16.374      856.502
03/21/2014  16:42:00       73.886      -55.088       39.052       71.402      106.032       52.727     5098.194    11242.822     2780.154        1.457        0.956       92.162       49.805        0.292      341.953       17.023      856.510
03/21/2014  16:43:00       55.174       65.113       82.775       61.247       51.746       46.969     3751.143     2677.671     2206.081        1.138        0.432       85.345       32.138        0.142      341.594       16.414      856.493
03/21/2014  16:44:00      137.197     -177.823      -20.399       98.153       94.641       50.125     9634.045     8956.872     2512.563        3.598        1.055      224.597       59.703        0.071      341.619       16.453      856.457
03/21/2014  16:45:00      120.065     -184.480      -27.600       92.720      146.329       55.970     8596.974    21412.186     3132.588        4.117        1.657      220.111       58.892        0.072      341.711       16.612      856.431
03/21/2014  16:46:00       65.659      -19.653       44.050       89.051       99.318       55.605     7930.032     9864.037     3091.951        1.376        1.044       68.537       62.796        0.839      342.020       17.137      856.416
03/21/2014  16:47:00      169.891      117.287       76.304      104.480       79.077       86.119    10916.166     6253.206     7416.474        3.651        1.229      206.444       68.658        0.111      341.806       16.772      856.415
03/21/2014  16:48:00      165.871      105.308       19.860       71.890       51.934       56.921     5168.145     2697.186     3240.014        2.505        0.555      196.476       39.476        0.040      341.502       16.257      856.414
03/21/2014  16:49:00      144.680       72.651       46.992       80.671       52.536       50.316     6507.849     2760.010     2531.719        2.011        0.590      161.896       30.892        0.036      341.620       16.456      856.414
03/21/2014  16:50:00       66.902      132.625      140.439      102.041       95.393       82.068    10412.447     9099.821     6735.078        3.401        1.312      148.543       66.286        0.199      341.690       16.576      856.420
03/21/2014  16:51:00       28.121       39.819       35.763       64.250       22.026       28.871     4128.115      485.127      833.546        0.455        0.272       48.748       29.253        0.360      341.845       16.840      856.417
03/21/2014  16:52:00       29.161       23.537       42.862       34.213       40.281       26.005     1170.548     1622.540      676.258        0.335        0.173       37.475       20.102        0.288      341.996       17.097      856.413
03/21/2014  16:53:00       42.158      -79.784       14.811       55.041       78.333       36.940     3029.502     6136.010     1364.543        0.944        0.527       90.238       44.913        0.248      341.913       16.957      856.414
03/21/2014  16:54:00       58.738      -79.078        7.841       47.417       78.674       44.386     2248.410     6189.615     1970.159        1.008        0.520       98.506       49.116        0.249      341.759       16.693      856.416
03/21/2014  16:55:00       60.690      -27.077       29.863       42.485       63.451       31.609     1804.987     4026.017      999.119        0.607        0.342       66.456       12.388        0.035      341.823       16.804      856.425
03/21/2014  16:56:00       75.634       70.648        6.621       36.648       36.624       29.446     1343.076     1341.330      867.050        0.715        0.178      103.497       24.312        0.055      341.595       16.415      856.427
03/21/2014  16:57:00        0.151      -29.486        5.461       34.039       58.479       21.425     1158.656     3419.778      459.013        0.297        0.252       29.487       16.279        0.305      341.723       16.633      856.435
03/21/2014  16:58:00      -76.476      -56.188       -0.861       42.876       45.452       31.382     1838.314     2065.874      984.823        0.695        0.244       94.898       20.424        0.046      342.023       17.143      856.432
03/21/2014  16:59:00      -65.696      -94.956        3.222       62.964       60.575       40.827     3964.406     3669.370     1666.848        1.132        0.465      115.467       42.957        0.138      341.984       17.078      856.420
03/21/2014  17:00:00      -40.185      -77.050        9.852       60.119       70.552       43.302     3614.271     4977.620     1875.089        0.906        0.523       86.900       45.610        0.275      342.137       17.337      856.402
03/21/2014  17:01:00       10.282        2.746       37.177       39.876       81.667       38.755     1590.085     6669.459     1501.967        0.563        0.488       10.643       43.665       16.833      342.393       17.773      856.353
03/21/2014  17:02:00      -50.824      -77.063       -2.974      104.994       53.947       40.254    11023.785     2910.312     1620.345        1.204        0.778       92.313       32.024        0.120      342.275       17.570      856.330
03/21/2014  17:03:00      -72.147      -35.809       19.357       83.462       80.312       43.135     6965.985     6449.978     1860.631        1.107        0.764       80.545       32.439        0.162      342.476       17.912      856.310
03/21/2014  17:04:00     -273.188     -162.466        5.909      181.477      119.253       70.392    32933.957    14221.170     4955.090        7.658        2.606      317.847       75.311        0.056      342.155       17.363      856.317
03/21/2014  17:05:00     -234.008     -128.288       -9.584       97.435       77.753       54.770     9493.651     6045.535     2999.784        4.492        0.927      266.866       54.437        0.042      342.015       17.126      856.339
03/21/2014  17:06:00     -225.390      -28.096      -27.603      106.262       86.375       67.924    11291.709     7460.620     4613.635        3.786        1.168      227.135       37.049        0.027      341.990       17.083      856.356
03/21/2014  17:07:00     -221.322      -19.645      -18.805       86.223      102.342       49.549     7434.414    10473.923     2455.126        3.504        1.018      222.192       42.206        0.036      341.949       17.014      856.320
03/21/2014  17:08:00     -228.747      -74.995      -22.133      108.196       83.916       43.122    11706.445     7041.960     1859.512        3.952        1.030      240.727       41.212        0.029      342.177       17.400      856.335
03/21/2014  17:09:00     -156.018      -41.091       18.496      154.450       96.718       58.508    23854.957     9354.429     3423.206        3.150        1.832      161.339       76.216        0.223      342.329       17.660      856.343
03/21/2014  17:10:00     -276.018      -70.954       -8.267      205.661      108.437       66.729    42296.338    11758.574     4452.732        6.989        2.925      284.992       82.601        0.084      342.214       17.463      856.319
03/21/2014  17:11:00      -87.036      -80.490       -5.824       95.293      107.549       50.122     9080.698    11566.735     2512.224        1.862        1.158      118.549       63.807        0.290      342.201       17.443      856.326
03/21/2014  17:12:00     -245.304      -88.947       -7.366      137.750      114.059       63.142    18975.017    13009.457     3986.900        5.205        1.799      260.933       61.058        0.055      342.152       17.358      856.323
03/21/2014  17:13:00     -276.275     -113.035      -14.802      166.761      110.673       70.821    27809.069    12248.531     5015.632        6.719        2.254      298.505       60.053        0.040      341.954       17.023      856.289
03/21/2014  17:14:00     -289.081     -141.083        7.413      209.715      136.951       88.474    43980.536    18755.698     7827.661        8.703        3.528      321.671       98.737        0.094      342.044       17.175      856.251
03/21/2014  17:15:00     -350.826     -341.184      -16.813      188.371      168.118      105.295    35483.516    28263.667    11086.967       15.729        3.742      489.372      109.685        0.050      341.834       16.819      856.268
03/21/2014  17:16:00     -319.523     -141.731       -4.305      149.706      150.250       78.247    22411.760    22574.992     6122.524        8.665        2.555      349.546       70.822        0.041      342.029       17.148      856.274
03/21/2014  17:17:00     -137.821     -181.189        7.524      164.104      129.285       67.904    26930.141    16714.663     4610.950        5.006        2.413      227.649       65.019        0.082      341.929       16.981      856.261
03/21/2014  17:18:00     -314.552     -120.725      -12.036      123.472      125.928       56.227    15245.231    15857.913     3161.457        7.396        1.713      336.924       43.720        0.017      341.718       16.621      856.261
03/21/2014  17:19:00     -211.954     -105.437        1.031      111.182       93.628       56.142    12361.343     8766.252     3151.934        4.016        1.214      236.731       65.030        0.075      341.833       16.819      856.253
03/21/2014  17:20:00     -255.229      -11.257        0.013      181.574      137.671       76.351    32969.071    18953.292     5829.404        6.150        2.888      255.477       78.983        0.096      342.161       17.373      856.249
03/21/2014  17:21:00     -341.231     -186.754       -8.295      205.099      177.136       93.583    42065.511    31377.299     8757.840       11.678        4.110      388.993       96.148        0.061      341.843       16.835      856.248
03/21/2014  17:22:00     -225.438     -137.765       16.784      152.601      122.983       76.720    23286.944    15124.879     5885.929        5.718        2.215      264.200       69.948        0.070      342.033       17.157      856.259
03/21/2014  17:23:00     -366.256     -249.048        4.147      222.278      139.452       91.588    49407.484    19446.765     8388.280       13.670        3.862      442.910       98.926        0.050      341.922       16.968      856.242
03/21/2014  17:24:00     -227.379     -234.212      -18.641      139.700      119.044       69.742    19516.049    14171.480     4863.935        7.272        1.928      326.430       67.299        0.043      341.975       17.058      856.267
03/21/2014  17:25:00     -315.284     -257.423        7.729      161.564      125.872       71.832    26103.078    15843.644     5159.894       10.641        2.355      407.027       65.527        0.026      341.734       16.649      856.277
03/21/2014  17:26:00     -273.908     -200.104       -2.499      153.262      176.736       78.130    23489.203    31235.774     6104.341        8.794        3.041      339.216       98.103        0.084      341.722       16.627      856.262
03/21/2014  17:27:00     -320.761     -205.485       -2.117      155.672      135.346       60.555    24233.817    18318.444     3666.918        9.566        2.311      380.935       56.503        0.022      341.630       16.471      856.256
03/21/2014  17:28:00     -295.026     -148.081       -9.481      130.263      108.100       63.800    16968.577    11685.579     4070.454        7.089        1.636      330.104       65.942        0.040      341.765       16.701      856.272
03/21/2014  17:29:00     -274.196     -118.920       -7.195      155.657      102.941       65.739    24229.166    10596.892     4321.615        6.426        1.957      298.873       64.778        0.047      341.790       16.745      856.264
03/21/2014  17:30:00     -295.718     -175.716        8.414      196.778      111.572       82.931    38721.530    12448.305     6877.597        8.821        2.902      343.985      103.035        0.090      341.937       16.994      856.231
03/21/2014  17:31:00     -214.242     -124.665       -3.335      166.953       93.181       60.639    27873.460     8682.689     3677.125        5.084        2.012      247.873       69.132        0.078      341.995       17.092      856.244
03/21/2014  17:32:00     -319.326     -136.791        4.035      193.407      124.295       75.184    37406.295    15449.196     5652.591        8.959        2.925      347.391       83.836        0.058      341.939       16.997      856.241
03/21/2014  17:33:00     -291.406     -187.338       -7.064      154.920      134.883       74.102    24000.277    18193.292     5491.118        8.387        2.384      346.429       81.325        0.055      341.914       16.954      856.267
03/21/2014  17:34:00     -257.799     -217.927       -7.033      145.493      132.843       65.018    21168.166    17647.331     4227.305        7.852        2.152      337.569       64.447        0.036      341.855       16.856      856.281
03/21/2014  17:35:00     -450.780     -233.713       -9.213      216.797      134.170      105.956    47001.132    18001.548    11226.592       16.706        3.811      507.764      116.080        0.052      341.803       16.765      856.290
03/21/2014  17:36:00     -331.056     -246.541        8.168      206.669      140.706       82.847    42712.036    19798.167     6863.694       11.990        3.469      412.772      102.825        0.062      341.794       16.750      856.311
03/21/2014  17:37:00     -188.969     -142.125       22.864      214.610      133.742       92.581    46057.280    17886.940     8571.252        6.446        3.626      236.450      109.677        0.215      341.862       16.868      856.329
03/21/2014  17:38:00     -278.738     -195.503       10.709      182.446      138.037       82.716    33286.547    19054.228     6841.971        8.760        2.959      340.465       88.671        0.068      341.737       16.654      856.342
03/21/2014  17:39:00     -268.817     -267.911       -6.070      204.447      146.363       94.701    41798.680    21422.249     8968.332       10.812        3.609      379.524      107.526        0.080      341.600       16.422      856.345
03/21/2014  17:40:00     -402.416     -219.729       -4.157      197.534      143.693       77.703    39019.662    20647.730     6037.732       13.796        3.285      458.497       85.715        0.035      341.541       16.322      856.332
03/21/2014  17:41:00     -259.338     -119.895       17.676      169.977      116.922       75.914    28892.161    13670.825     5762.945        6.513        2.416      285.712       86.380        0.091      341.761       16.695      856.336
03/21/2014  17:42:00     -241.460     -239.674        2.315      191.758      147.530       94.651    36771.239    21765.168     8958.795        9.161        3.375      340.215      104.142        0.094      341.685       16.567      856.328
03/21/2014  17:43:00     -274.371      -80.862       -0.011      134.619      120.881       58.989    18122.322    14612.222     3479.688        5.901        1.811      286.039       66.684        0.054      341.761       16.694      856.338
03/21/2014  17:44:00     -286.122      -50.949       -1.089      171.750      139.911       70.883    29497.918    19575.084     5024.376        6.927        2.705      290.623       68.644        0.056      341.881       16.899      856.335
03/21/2014  17:45:00     -310.982     -218.236       -5.205      163.295      133.822       73.613    26665.296    17908.402     5418.819        9.717        2.500      379.917       80.120        0.044      341.868       16.875      856.338
03/21/2014  17:46:00     -370.710     -166.634        7.334      246.294      150.866       90.702    60660.897    22760.494     8226.786       12.843        4.582      406.439      106.093        0.068      341.858       16.860      856.353
03/21/2014  17:47:00     -391.909     -157.805        2.589      255.158      199.182      105.204    65105.762    39673.651    11067.974       14.716        5.792      422.487      116.185        0.076      341.728       16.639      856.355
03/21/2014  17:48:00     -520.768     -242.639      -29.875      226.425      205.708      108.557    51268.192    42315.943    11784.545       21.815        5.268      574.520      110.624        0.037      341.537       16.314      856.367
03/21/2014  17:49:00     -533.217     -145.210      -37.191      196.564      154.674       78.851    38637.474    23924.133     6217.412       18.777        3.439      552.636       90.771        0.027      341.551       16.338      856.401
03/21/2014  17:50:00     -450.114     -182.043       -9.296      193.727      216.235       84.988    37530.298    46757.475     7222.884       16.365        4.576      485.533       87.025        0.032      341.622       16.459      856.416
03/21/2014  17:51:00     -375.926     -320.519       -5.869      213.204      189.690      120.885    45456.092    35982.289    14613.253       17.005        4.803      494.017      124.033        0.063      341.535       16.313      856.402
03/21/2014  17:52:00     -343.169     -255.015       -2.442      163.677      139.648       92.973    26790.320    19501.504     8643.939       11.886        2.747      427.549      100.337        0.055      341.557       16.349      856.414
03/21/2014  17:53:00     -216.790     -147.140       30.363      182.880       92.182       66.021    33445.242     8497.549     4358.787        5.793        2.315      262.008       78.013        0.089      341.754       16.683      856.418
03/21/2014  17:54:00     -274.045     -257.721      -21.361      137.602      116.212       66.668    18934.376    13505.271     4444.685        8.942        1.844      376.192       67.082        0.032      341.631       16.475      856.434
03/21/2014  17:55:00     -311.730     -183.911        2.033      153.252      122.015       68.169    23486.223    14887.757     4647.000        8.700        2.151      361.937       70.722        0.038      341.546       16.332      856.424
03/21/2014  17:56:00     -337.187     -114.420       -8.829      131.591      109.905       69.101    17316.219    12079.212     4774.946        8.051        1.709      356.072       60.945        0.029      341.592       16.407      856.423
03/21/2014  17:57:00     -143.399      -44.413       11.826      123.930      114.820       67.204    15358.566    13183.593     4516.328        2.786        1.653      150.119       70.686        0.222      341.858       16.861      856.428
03/21/2014  17:58:00     -215.776     -106.193        6.114      180.513      137.107       75.176    32585.034    18798.218     5651.425        5.744        2.852      240.492       78.101        0.105      341.871       16.883      856.436
03/21/2014  17:59:00     -373.666     -248.814      -18.553      221.784      158.819       81.988    49188.243    25223.379     6722.015       14.149        4.057      448.926       97.477        0.047      341.621       16.458      856.413
03/21/2014  18:00:00     -341.946     -186.086       -5.266      155.527      116.536       69.589    24188.691    13580.727     4842.683        9.709        2.131      389.301       59.055        0.023      341.680       16.559      856.438
03/21/2014  18:01:00     -301.830     -145.552      -14.686      176.086      118.175       62.219    31006.276    13965.271     3871.197        8.066        2.442      335.092       74.287        0.049      341.813       16.783      856.461
03/21/2014  18:02:00     -301.341     -126.997      -21.635      165.801      110.519       64.190    27489.824    12214.399     4120.374        7.561        2.191      327.009       64.141        0.038      341.765       16.702      856.477
03/21/2014  18:03:00     -234.320     -161.664       -6.913      172.633      126.770       76.714    29802.067    16070.677     5885.100        6.641        2.588      284.677       76.282        0.072      341.668       16.537      856.484
03/21/2014  18:04:00     -300.262      -96.097      -23.375      161.637      125.733       65.780    26126.451    15808.692     4326.997        7.309        2.313      315.265       83.503        0.070      341.689       16.574      856.512
03/21/2014  18:05:00     -250.572     -189.029      -15.867      192.115      137.936       67.638    36908.191    19026.406     4574.926        7.963        3.025      313.876       79.220        0.064      341.687       16.570      856.521
03/21/2014  18:06:00     -407.510     -105.985      -19.544      199.492      138.355       76.512    39797.072    19142.023     5854.050       12.123        3.240      421.066       91.872        0.048      341.498       16.248      856.522
03/21/2014  18:07:00     -308.845     -122.802        0.946      219.482      138.871       76.894    48172.472    19285.215     5912.708        9.191        3.669      332.363      101.509        0.093      341.500       16.252      856.515
03/21/2014  18:08:00      -89.263      -99.117       22.183      158.842      146.204       63.434    25230.805    21375.626     4023.833        3.445        2.532      133.387       81.683        0.375      341.650       16.507      856.539
03/21/2014  18:09:00     -274.974     -253.202       -3.471      189.771      136.219       78.748    36013.151    18555.672     6201.220       10.024        3.039      373.793       83.472        0.050      341.476       16.211      856.534
03/21/2014  18:10:00     -365.943     -237.102      -23.574      198.150      168.973       83.860    39263.311    28552.032     7032.573       13.276        3.742      436.041       92.595        0.045      341.494       16.241      856.499
03/21/2014  18:11:00     -352.263     -139.286       -2.645      162.875      164.901       86.407    26528.383    27192.317     7466.177       10.233        3.059      378.800       90.444        0.057      341.506       16.263      856.522
03/21/2014  18:12:00     -355.872      -99.102      -18.147      194.013      184.386       88.238    37640.906    33998.089     7785.984       10.810        3.971      369.413      104.409        0.080      341.527       16.298      856.532
03/21/2014  18:13:00     -140.405     -109.062        6.031      136.126      126.556       69.314    18530.280    16016.408     4804.499        3.549        1.968      177.786       60.854        0.117      341.560       16.353      856.565
03/21/2014  18:14:00     -331.622     -210.633      -20.556      190.458      177.543       98.761    36274.198    31521.491     9753.727       11.614        3.877      392.861       98.436        0.063      341.407       16.094      856.565
03/21/2014  18:15:00     -409.684      -91.765      -12.306      226.890      159.643       85.893    51478.918    25485.830     7377.566       13.036        4.217      419.835       96.444        0.053      341.395       16.074      856.564
03/21/2014  18:16:00     -209.338      -23.038       21.855      164.881      124.955       68.021    27185.737    15613.685     4626.901        4.612        2.371      210.602       74.109        0.124      341.488       16.233      856.562
03/21/2014  18:17:00     -369.392      -40.321       -4.098      161.667      131.548       81.149    26136.349    17304.767     6585.146        9.405        2.501      371.587       84.616        0.052      341.441       16.152      856.563
03/21/2014  18:18:00     -485.920     -127.137       -6.345      210.190      158.778       87.297    44179.865    25210.601     7620.765       16.465        3.851      502.277       93.208        0.034      341.332       15.969      856.583
03/21/2014  18:19:00     -524.728     -124.733      -22.346      181.327      150.627       92.119    32879.428    22688.595     8485.948       17.772        3.203      539.350       96.083        0.032      341.277       15.874      856.581
03/21/2014  18:20:00     -434.699      -83.702      -13.953      190.999      131.843       83.948    36480.563    17382.553     7047.242       12.853        3.046      442.684       97.615        0.049      341.278       15.877      856.578
03/21/2014  18:21:00     -314.202      -43.850       -0.776      163.822      133.466       71.152    26837.592    17813.227     5062.572        7.517        2.486      317.247       79.284        0.062      341.324       15.954      856.603
03/21/2014  18:22:00     -368.383     -156.357      -28.269      156.024      133.721       70.022    24343.417    17881.178     4903.120       10.403        2.356      400.192       71.136        0.032      341.306       15.924      856.630
03/21/2014  18:23:00     -290.645     -220.242      -20.169      171.677      157.481       75.324    29472.918    24800.390     5673.775        9.666        2.997      364.666       76.026        0.043      341.323       15.954      856.634
03/21/2014  18:24:00     -314.841     -199.780        9.752      165.904      154.398       79.332    27524.100    23838.593     6293.622        9.838        2.883      372.877       77.233        0.043      341.299       15.912      856.657
03/21/2014  18:25:00     -434.349     -276.675      -21.838      192.816      191.990       85.900    37177.922    36860.095     7378.892       17.354        4.071      514.984      103.085        0.040      341.179       15.710      856.640
03/21/2014  18:26:00     -384.675     -182.733       -7.403      200.455      145.866       72.935    40182.238    21276.854     5319.544       12.409        3.339      425.871       81.320        0.036      341.260       15.847      856.667
03/21/2014  18:27:00     -224.639     -133.193       19.821      206.862      125.747       78.286    42791.716    15812.257     6128.749        6.665        3.237      261.157      103.369        0.157      341.260       15.846      856.668
03/21/2014  18:28:00     -406.586     -285.972      -12.624      155.486      145.331       83.959    24175.956    21121.153     7049.148       14.979        2.617      497.084       79.207        0.025      341.186       15.720      856.666
03/21/2014  18:29:00     -372.637     -178.044      -17.464      198.599      132.571       81.050    39441.519    17575.146     6569.032       11.721        3.179      412.987       87.307        0.045      341.206       15.756      856.673
03/21/2014  18:30:00     -317.560     -188.549        7.799      179.541      148.950       85.442    32235.121    22186.129     7300.319        9.908        3.086      369.317       99.436        0.072      341.236       15.808      856.688
03/21/2014  18:31:00     -299.239      -36.547       -9.626      147.088      162.155       64.027    21634.842    26294.125     4099.501        7.149        2.601      301.462       54.073        0.032      341.275       15.872      856.714
03/21/2014  18:32:00     -205.656      -42.131        5.336      132.157      117.273       63.059    17465.536    13752.959     3976.460        3.964        1.760      209.927       74.378        0.126      341.352       16.003      856.698
03/21/2014  18:33:00     -233.972     -129.329        7.064      105.224      118.458       59.070    11072.110    14032.245     3489.305        5.005        1.430      267.336       60.321        0.051      341.245       15.821      856.734
03/21/2014  18:34:00     -388.532     -118.399       -0.862      201.497      137.246       76.471    40601.167    18836.462     5847.825       11.512        3.264      406.172       70.772        0.030      341.168       15.691      856.720
03/21/2014  18:35:00     -323.621     -262.919        2.780      179.839      157.912      103.912    32342.243    24936.171    10797.633       12.096        3.404      416.961      104.467        0.063      341.097       15.570      856.721
03/21/2014  18:36:00     -330.133     -272.528       -4.943      184.629      170.351       97.957    34088.030    29019.379     9595.657       12.798        3.635      428.088       91.002        0.045      341.104       15.582      856.724
03/21/2014  18:37:00     -345.292     -234.593       -0.149      194.225      136.959       94.900    37723.434    18757.846     9006.056       11.986        3.274      417.446      116.612        0.078      341.079       15.540      856.742
03/21/2014  18:38:00     -257.119     -186.097       -1.722      166.606      144.820       74.714    27757.574    20972.738     5582.135        7.752        2.716      317.400       86.513        0.074      341.086       15.551      856.746
03/21/2014  18:39:00     -347.076     -150.597       -5.254      170.105      119.295       81.687    28935.708    14231.299     6672.838        9.650        2.492      378.340       93.368        0.061      341.090       15.557      856.754
03/21/2014  18:40:00     -289.668      -91.806        6.369      171.422      112.385       61.258    29385.544    12630.486     3752.534        6.906        2.288      303.868       68.492        0.051      341.125       15.619      856.770
03/21/2014  18:41:00     -281.350     -124.613      -15.016      159.891      160.377       77.245    25565.152    25720.856     5966.768        7.607        2.863      307.711       81.999        0.071      341.090       15.558      856.774
03/21/2014  18:42:00     -244.916     -155.096       -3.659      171.700      125.266       90.242    29480.946    15691.597     8143.697        6.868        2.666      289.894       86.528        0.089      341.113       15.597      856.784
03/21/2014  18:43:00     -390.185      -93.837      -22.301      176.982      111.681       74.641    31322.607    12472.576     5571.309       10.545        2.468      401.310       80.510        0.040      341.021       15.443      856.802
03/21/2014  18:44:00     -273.316      -85.004        8.339      190.401      148.057       80.840    36252.444    21920.831     6535.165        7.334        3.235      286.229       76.099        0.071      341.052       15.495      856.793
03/21/2014  18:45:00     -269.168      -91.190       -2.731      141.264      101.134       61.264    19955.528    10228.122     3753.232        5.735        1.697      284.195       68.747        0.059      341.020       15.440      856.827
03/21/2014  18:46:00     -203.308     -160.241        0.391      191.684      150.978       75.627    36742.734    22794.388     5719.409        6.612        3.263      258.865       70.628        0.074      340.996       15.400      856.819
03/21/2014  18:47:00     -261.446     -169.402       -7.161      132.354      121.891       81.823    17517.597    14857.504     6695.076        6.808        1.954      311.530       77.437        0.062      340.999       15.404      856.834
03/21/2014  18:48:00     -274.610     -114.463        5.180      180.744      141.736       99.053    32668.280    20089.143     9811.458        7.554        3.128      297.510       99.097        0.111      340.952       15.326      856.847
03/21/2014  18:49:00     -229.933      -36.508      -10.514      117.304      129.886       58.771    13760.138    16870.314     3453.984        4.419        1.704      232.813       57.026        0.060      341.030       15.456      856.870
03/21/2014  18:50:00     -231.067     -127.329       -1.296      155.983      144.269       58.939    24330.581    20813.427     3473.793        5.910        2.431      263.827       67.791        0.066      341.018       15.437      856.884
03/21/2014  18:51:00     -374.647      -93.304      -15.655      181.499      166.952      105.406    32942.029    27872.835    11110.360       11.061        3.596      386.091      105.930        0.075      340.918       15.268      856.864
03/21/2014  18:52:00     -325.636     -123.377        2.502      221.271      166.493       96.511    48960.766    27719.822     9314.308       10.362        4.300      348.225      108.513        0.097      340.868       15.183      856.881
03/21/2014  18:53:00     -261.759     -127.412      -18.593      143.134      159.495       73.365    20487.245    25438.530     5382.396        6.819        2.565      291.121       69.964        0.058      340.895       15.229      856.885
03/21/2014  18:54:00     -190.543      -49.618       17.389      143.439      108.987       66.908    20574.651    11878.223     4476.696        3.799        1.846      196.897       59.973        0.093      340.883       15.209      856.890
03/21/2014  18:55:00     -193.735     -139.821        2.391      153.485      135.694       70.285    23557.693    18412.743     4940.024        5.199        2.346      238.921       83.970        0.124      340.856       15.161      856.907
03/21/2014  18:56:00     -130.055      -86.425       14.063      163.767      109.680       67.221    26819.675    12029.709     4518.680        3.397        2.168      156.152       66.648        0.182      340.823       15.109      856.898
03/21/2014  18:57:00     -285.257     -217.438      -17.183      169.988      145.085       77.569    28895.975    21049.724     6017.023        9.245        2.798      358.680       83.965        0.055      340.780       15.034      856.891
03/21/2014  18:58:00     -224.084     -141.613       -8.339      154.079      112.830       72.389    23740.386    12730.572     5240.133        5.602        2.086      265.081       81.970        0.096      340.781       15.037      856.903
03/21/2014  18:59:00     -297.195     -136.952       -4.509      190.769      112.820       72.775    36392.808    12728.263     5296.170        8.075        2.721      327.231       83.067        0.064      340.751       14.985      856.907
03/21/2014  19:00:00     -214.097      -86.605       -2.409      159.180       96.297       64.111    25338.173     9273.097     4110.185        4.603        1.936      230.950       72.247        0.098      340.775       15.025      856.912
03/21/2014  19:01:00     -300.365     -143.238      -18.965      189.546      154.677       79.970    35927.522    23925.093     6395.220        8.866        3.312      332.771       87.578        0.069      340.726       14.941      856.921
03/21/2014  19:02:00     -350.766      -75.851       -1.489      178.347      132.105       68.776    31807.661    17451.747     4730.104        9.138        2.699      358.874       76.959        0.046      340.715       14.925      856.935
03/21/2014  19:03:00     -392.413     -177.617      -15.298      133.160      112.027       57.473    17731.679    12550.135     3303.100       10.967        1.679      430.738       50.409        0.014      340.674       14.855      856.953
03/21/2014  19:04:00     -271.806      -67.954       -6.712      133.885      123.611       70.521    17925.299    15279.654     4973.269        5.835        1.909      280.171       68.878        0.060      340.667       14.842      856.976
03/21/2014  19:05:00     -295.846     -146.836       -1.328      156.994      155.408       68.653    24647.070    24151.675     4713.267        8.129        2.676      330.281       67.411        0.042      340.671       14.848      856.968
03/21/2014  19:06:00     -311.548     -124.091        4.490      161.889      141.350       68.059    26207.892    19979.790     4631.986        8.164        2.541      335.352       72.254        0.046      340.636       14.789      856.985
03/21/2014  19:07:00     -355.593     -219.858      -20.002      148.087      123.690       57.921    21929.694    15299.123     3354.842       10.788        2.029      418.071       52.123        0.016      340.626       14.771      856.993
03/21/2014  19:08:00     -327.568     -120.989      -10.363      188.111      123.270       76.968    35385.904    15195.452     5924.013        8.927        2.825      349.198       92.770        0.071      340.598       14.725      856.989
03/21/2014  19:09:00     -241.010      -47.191       17.171      212.091      109.871       84.446    44982.570    12071.633     7131.173        6.239        3.209      245.586      112.741        0.211      340.600       14.730      856.996
03/21/2014  19:10:00     -281.189     -135.973        2.925      113.568      106.865       55.279    12897.616    11420.047     3055.786        6.246        1.369      312.339       59.926        0.037      340.564       14.667      857.021
03/21/2014  19:11:00     -301.731      -40.132       -7.561      143.617      102.144       68.534    20625.772    10433.297     4696.974        6.423        1.788      304.388       73.468        0.058      340.587       14.706      857.024
03/21/2014  19:12:00     -229.009      -46.086      -14.047      113.838       79.481       47.641    12959.152     6317.251     2269.674        3.815        1.077      233.601       47.332        0.041      340.592       14.716      857.028
03/21/2014  19:13:00     -221.636     -103.365       -2.624      127.399      125.162       66.421    16230.399    15665.494     4411.772        4.805        1.815      244.554       59.860        0.060      340.523       14.599      857.052
03/21/2014  19:14:00     -195.591     -132.445       28.341      159.250      155.880       86.764    25360.498    24298.505     7528.064        5.688        2.859      236.215      100.652        0.182      340.477       14.520      857.048
03/21/2014  19:15:00     -182.801     -103.590       -4.327      139.793       99.589       60.281    19542.214     9918.011     3633.777        3.862        1.655      210.112       54.968        0.068      340.497       14.555      857.052
03/21/2014  19:16:00     -189.365     -102.696        9.609      133.266      107.513       62.559    17759.921    11558.996     3913.568        3.986        1.662      215.420       71.058        0.109      340.492       14.547      857.065
03/21/2014  19:17:00     -185.579      -70.992      -11.122       99.516      107.323       59.774     9903.527    11518.277     3572.941        3.229        1.250      198.695       51.198        0.066      340.524       14.600      857.075
03/21/2014  19:18:00     -208.363      -60.463       11.701      155.297      114.658       77.466    24117.053    13146.495     6000.970        4.523        2.163      216.958       82.935        0.146      340.420       14.424      857.084
03/21/2014  19:19:00     -219.706     -163.910        6.625      183.449      144.236       80.749    33653.653    20804.089     6520.427        6.807        3.049      274.112       88.787        0.105      340.374       14.348      857.091
03/21/2014  19:20:00     -186.475     -125.920        8.908      172.715      120.182       72.252    29830.313    14443.710     5220.383        5.009        2.475      225.009       79.007        0.123      340.389       14.374      857.091
03/21/2014  19:21:00     -350.448     -140.604        3.553      171.129      140.607       77.812    29285.068    19770.359     6054.783        9.884        2.756      377.602       65.351        0.030      340.367       14.335      857.087
03/21/2014  19:22:00     -337.942      -81.440      -13.199      158.367      113.741       71.948    25080.137    12937.011     5176.576        8.210        2.160      347.616       73.641        0.045      340.323       14.260      857.109
03/21/2014  19:23:00     -149.321     -107.744       19.472      118.114      139.452       76.760    13950.856    19446.874     5892.045        3.678        1.964      184.134       82.626        0.201      340.309       14.239      857.109
03/21/2014  19:24:00     -199.057      -84.620        7.310      160.088      110.650       61.730    25628.223    12243.346     3810.545        4.425        2.084      216.296       74.548        0.119      340.276       14.184      857.115
03/21/2014  19:25:00     -256.307     -104.281       -7.973      156.817      100.679       52.396    24591.590    10136.293     2745.361        5.705        1.874      276.709       67.302        0.059      340.281       14.191      857.138
03/21/2014  19:26:00     -255.280      -53.554       -2.774      113.086      100.599       59.262    12788.422    10120.259     3512.032        4.723        1.321      260.836       58.597        0.050      340.268       14.168      857.151
03/21/2014  19:27:00     -216.476     -131.377        1.495      166.391      129.867       81.092    27686.114    16865.337     6575.857        5.762        2.556      253.223       95.504        0.142      340.257       14.151      857.163
03/21/2014  19:28:00     -239.154      -99.283      -21.223      157.565      126.403       71.335    24826.884    15977.633     5088.622        5.669        2.295      258.944       60.556        0.055      340.236       14.114      857.179
03/21/2014  19:29:00     -244.488      -27.591        3.335      174.002      108.927       75.670    30276.706    11865.153     5725.892        5.420        2.393      246.040       83.499        0.115      340.234       14.111      857.204
03/21/2014  19:30:00     -237.576     -187.456      -16.019      175.183      126.777       87.963    30689.084    16072.523     7737.526        7.316        2.725      302.626       96.376        0.101      340.213       14.076      857.207
03/21/2014  19:31:00     -229.381     -123.758       -4.692      119.692       89.930       56.679    14326.152     8087.439     3212.522        4.679        1.281      260.637       60.348        0.054      340.180       14.019      857.229
03/21/2014  19:32:00     -143.314      -87.355        9.233      129.856       91.493       62.469    16862.648     8370.982     3902.416        2.869        1.457      167.838       73.072        0.190      340.153       13.974      857.245
03/21/2014  19:33:00     -281.677      -56.120       10.218      172.839       95.116       70.226    29873.264     9046.977     4931.628        6.322        2.193      287.213       75.544        0.069      340.138       13.948      857.255
03/21/2014  19:34:00     -159.686      -58.227       18.857      185.459      123.740       61.060    34395.147    15311.468     3728.313        4.133        2.672      169.971       83.985        0.244      340.119       13.918      857.264
03/21/2014  19:35:00     -215.626     -132.655        4.985      158.027      125.790       80.191    24972.499    15823.161     6430.546        5.566        2.361      253.164       87.103        0.118      340.122       13.923      857.261
03/21/2014  19:36:00     -295.394     -123.926      -10.929      171.326      133.708       71.027    29352.714    17877.699     5044.859        7.750        2.614      320.336       84.535        0.070      340.084       13.857      857.271
03/21/2014  19:37:00     -377.348      -72.348      -22.444      229.619      157.616       71.607    52724.740    24842.695     5127.628       11.540        4.135      384.221       70.717        0.034      340.110       13.901      857.292
03/21/2014  19:38:00     -299.950      -91.385       -9.882      193.196      128.274       78.226    37324.717    16454.230     6119.250        7.915        2.995      313.563       87.640        0.078      340.063       13.823      857.304
03/21/2014  19:39:00     -330.048     -111.253       -8.520      160.907      126.730       74.179    25890.939    16060.438     5502.545        8.441        2.373      348.294       63.006        0.033      340.052       13.802      857.317
03/21/2014  19:40:00     -356.089     -132.700      -21.167      143.719      104.196       71.312    20655.163    10856.803     5085.436        9.072        1.830      380.011       74.273        0.038      340.030       13.765      857.356
03/21/2014  19:41:00     -290.140     -136.202       -7.741      145.438      134.282       60.551    21152.324    18031.589     3666.402        7.281        2.143      320.518       59.249        0.034      340.024       13.755      857.373
03/21/2014  19:42:00     -215.301      -90.304        7.222      180.512      116.494       64.174    32584.750    13570.737     4118.249        5.241        2.514      233.472       78.048        0.112      340.027       13.761      857.385
03/21/2014  19:43:00     -197.022      -84.206       -0.571      152.541      102.070       67.818    23268.789    10418.210     4599.240        4.209        1.914      214.263       74.596        0.121      340.019       13.749      857.389
03/21/2014  19:44:00     -226.108     -145.604      -14.467      181.034      133.663       87.117    32773.459    17865.877     7589.301        6.537        2.911      268.934       87.596        0.106      339.991       13.701      857.402
03/21/2014  19:45:00     -210.114     -139.295       -9.552      163.218      122.688       78.302    26640.113    15052.353     6131.276        5.572        2.391      252.093       85.876        0.116      339.980       13.681      857.408
03/21/2014  19:46:00     -144.044      -69.519        9.935      114.341       96.568       59.162    13073.908     9325.372     3500.135        2.579        1.295      159.943       56.315        0.124      339.951       13.635      857.438
03/21/2014  19:47:00     -279.164        0.090       -3.971      133.929      110.115       68.015    17936.907    12125.381     4626.102        5.631        1.734      279.164       56.057        0.040      340.011       13.733      857.445
03/21/2014  19:48:00     -147.359      -53.473       14.001      176.525       80.363       52.678    31161.178     6458.257     2775.017        3.258        2.020      156.761       61.496        0.154      339.916       13.576      857.448
03/21/2014  19:49:00     -149.797      -82.037       -8.460      134.226       84.347       52.849    18016.558     7114.371     2792.996        2.858        1.396      170.790       44.206        0.067      339.941       13.616      857.471
03/21/2014  19:50:00     -239.650      -95.809       -1.855      125.470      141.575       71.516    15742.786    20043.513     5114.542        5.375        2.045      258.092       75.848        0.086      339.875       13.503      857.492
03/21/2014  19:51:00     -379.255      -87.750      -19.188      169.367      131.594       71.831    28685.222    17316.992     5159.757       10.152        2.558      389.274       78.902        0.041      339.853       13.466      857.502
03/21/2014  19:52:00     -263.986      -96.225      -15.099      132.539      114.601       66.701    17566.560    13133.348     4449.035        5.716        1.757      280.976       71.232        0.064      339.875       13.505      857.525
03/21/2014  19:53:00     -277.666      -26.609        4.813      213.591      146.150       79.335    45621.098    21359.863     6294.093        7.554        3.664      278.938       84.650        0.092      339.860       13.480      857.545
03/21/2014  19:54:00     -334.170      -42.836       -8.613      149.800      136.773       78.386    22440.180    18706.893     6144.382        8.043        2.365      336.904       79.081        0.055      339.845       13.453      857.568
03/21/2014  19:55:00     -249.964       24.244       -1.418      152.672       86.525       73.679    23308.657     7486.506     5428.637        4.964        1.811      251.137       83.486        0.111      339.858       13.477      857.588
03/21/2014  19:56:00     -222.504      -67.817      -10.595      132.688      134.048       57.365    17606.096    17968.859     3290.722        4.654        1.943      232.609       57.305        0.061      339.819       13.411      857.614
03/21/2014  19:57:00     -225.397     -177.990        3.476      189.337      140.006       74.241    35848.583    19601.795     5511.676        7.172        3.048      287.201       78.181        0.074      339.812       13.398      857.618
03/21/2014  19:58:00     -299.445      -29.453      -10.960      201.112      145.232       72.426    40446.083    21092.411     5245.497        7.871        3.339      300.890       85.404        0.081      339.798       13.376      857.635
03/21/2014  19:59:00     -214.609      -77.930        1.973      186.822      118.365       61.907    34902.337    14010.206     3832.517        5.243        2.637      228.320       79.689        0.122      339.764       13.319      857.656
03/21/2014  20:00:00     -248.253      -42.835        5.972      124.170      105.606       61.262    15418.271    11152.650     3753.060        4.691        1.516      251.921       60.424        0.058      339.762       13.315      857.666
03/21/2014  20:01:00     -219.661      -77.601       25.190      226.604      117.688       83.650    51349.586    13850.401     6997.352        6.354        3.610      232.965      117.618        0.255      339.768       13.325      857.663
03/21/2014  20:02:00     -227.768      -60.636        7.539      130.571      127.561       64.512    17048.888    16271.698     4161.852        4.654        1.874      235.701       68.795        0.085      339.736       13.272      857.685
03/21/2014  20:03:00     -296.681     -217.632      -17.824      221.054      154.333       86.029    48864.945    23818.760     7401.035       10.788        4.004      367.944       93.649        0.065      339.728       13.258      857.692
03/21/2014  20:04:00     -368.254     -136.520      -12.179      187.809      114.999       79.207    35272.282    13224.873     6273.773       10.457        2.739      392.745       83.418        0.045      339.727       13.257      857.694
03/21/2014  20:05:00     -295.936      -73.972       -2.676      131.787      157.046       76.617    17367.879    24663.478     5870.174        7.047        2.395      305.041       78.406        0.066      339.743       13.283      857.712
03/21/2014  20:06:00     -369.962     -119.206       -1.345      156.817      140.256       75.709    24591.480    19671.640     5731.821       10.053        2.500      388.693       73.792        0.036      339.706       13.220      857.719
03/21/2014  20:07:00     -337.330      -66.353      -18.506      167.524      104.970       65.157    28064.215    11018.762     4245.429        8.093        2.166      343.794       63.735        0.034      339.689       13.192      857.733
03/21/2014  20:08:00     -401.757     -135.108      -13.162      121.600       96.825       55.608    14786.577     9374.991     3092.203       10.354        1.363      423.867       46.400        0.012      339.659       13.138      857.738
03/21/2014  20:09:00     -273.356     -209.562        3.692      174.366      128.527       82.215    30403.506    16519.149     6759.331        8.616        2.684      344.441       85.562        0.062      339.631       13.093      857.731
03/21/2014  20:10:00     -326.242      -49.655      -17.756      126.295      134.705       66.703    15950.389    18145.348     4449.263        7.387        1.927      329.999       60.223        0.033      339.702       13.212      857.747
03/21/2014  20:11:00     -273.290      -24.755      -13.430      124.277      101.781       68.582    15444.847    10359.302     4703.465        5.299        1.525      274.409       56.493        0.042      339.680       13.177      857.749
03/21/2014  20:12:00     -431.788     -116.811      -14.382      152.225      128.178       73.309    23172.543    16429.686     5374.157       12.263        2.249      447.309       77.706        0.030      339.604       13.048      857.774
03/21/2014  20:13:00     -454.359     -129.702      -23.321      164.678      166.909       77.790    27118.818    27858.465     6051.217       14.241        3.051      472.509       76.887        0.026      339.588       13.021      857.786
03/21/2014  20:14:00     -387.125       14.498       -9.634      142.807      112.482       70.256    20393.878    12652.141     4935.889        9.407        1.899      387.397       69.306        0.032      339.623       13.079      857.801
03/21/2014  20:15:00     -373.521      -54.981      -23.845      115.289      104.704       57.456    13291.537    10962.898     3301.163        8.533        1.378      377.546       60.716        0.026      339.589       13.022      857.831
03/21/2014  20:16:00     -344.757     -122.436      -18.099      188.732      102.922       68.428    35619.638    10592.957     4682.404        9.253        2.545      365.853       70.242        0.037      339.568       12.986      857.837
03/21/2014  20:17:00     -314.261     -113.766      -10.979      168.001      166.175       86.940    28224.295    27614.019     7558.624        8.760        3.170      334.220       92.688        0.077      339.537       12.933      857.859
03/21/2014  20:18:00     -287.846      -73.682       -2.198      192.601      119.204       74.257    37095.013    14209.512     5514.032        7.254        2.841      297.127       72.661        0.060      339.512       12.892      857.859
03/21/2014  20:19:00     -285.667      -23.973        6.644      138.375      124.099       59.174    19147.633    15400.559     3501.571        6.013        1.902      286.671       68.152        0.057      339.493       12.862      857.882
03/21/2014  20:20:00     -261.898      -64.851      -14.356      111.183      100.846       53.011    12361.699    10169.904     2810.144        4.917        1.267      269.807       49.167        0.033      339.513       12.893      857.892
03/21/2014  20:21:00     -365.729      -83.486       -0.372      148.383      118.284       72.183    22017.659    13991.018     5210.409        9.097        2.061      375.137       74.502        0.039      339.463       12.810      857.903
03/21/2014  20:22:00     -274.046       -7.688       -5.938      154.739      102.492       79.134    23944.161    10504.554     6262.156        5.795        2.036      274.153       87.072        0.101      339.493       12.861      857.923
03/21/2014  20:23:00     -309.343      -69.269      -12.275      150.743      119.115       69.010    22723.413    14188.334     4762.434        7.115        2.084      317.004       68.078        0.046      339.498       12.869      857.928
03/21/2014  20:24:00     -321.921      -56.999      -19.655      146.626      108.003       70.790    21499.059    11664.582     5011.186        7.272        1.909      326.928       76.931        0.055      339.501       12.874      857.945
03/21/2014  20:25:00     -354.603     -165.387      -21.420      123.468      144.461       74.452    15244.450    20869.028     5543.108        9.760        2.083      391.275       54.967        0.020      339.461       12.806      857.953
03/21/2014  20:26:00     -267.804      -58.047      -10.662      173.923      104.825       60.329    30249.194    10988.381     3639.631        6.003        2.244      274.023       70.881        0.067      339.426       12.749      857.970
03/21/2014  20:27:00     -298.337      -23.401      -19.258      155.609       97.149       74.341    24214.094     9437.924     5526.625        6.454        1.959      299.254       58.540        0.038      339.444       12.779      857.986
03/21/2014  20:28:00     -296.382      -16.588       -6.761      133.895      120.827       63.265    17927.787    14599.177     4002.444        6.234        1.826      296.846       71.310        0.058      339.441       12.774      857.991
03/21/2014  20:29:00     -408.515      -62.819      -21.977      142.837      103.022       50.025    20402.514    10613.564     2502.508       10.241        1.676      413.317       61.329        0.022      339.407       12.716      858.012
03/21/2014  20:30:00     -231.311      -42.589        4.331      136.742      106.374       58.126    18698.255    11315.421     3378.660        4.436        1.670      235.199       60.887        0.067      339.467       12.817      858.018
03/21/2014  20:31:00     -315.393      -82.175       -7.269      135.145      107.222       61.157    18264.084    11496.577     3740.181        6.988        1.675      325.923       67.375        0.043      339.401       12.705      858.038
03/21/2014  20:32:00     -271.409       -3.178       -5.750      127.318       81.140       70.245    16209.823     6583.761     4934.358        5.071        1.386      271.428       72.478        0.071      339.409       12.721      858.061
03/21/2014  20:33:00     -337.828       -5.513      -16.122      112.459       97.770       55.008    12647.066     9559.063     3025.924        6.982        1.262      337.873       54.660        0.026      339.393       12.690      858.078
03/21/2014  20:34:00     -320.413      -47.616       -7.814      148.070      114.402       67.819    21924.684    13087.828     4599.414        7.230        1.981      323.931       71.304        0.048      339.388       12.683      858.076
03/21/2014  20:35:00     -277.669      -12.538       -8.068      146.960      108.139       67.510    21597.261    11694.088     4557.590        5.758        1.892      277.952       65.134        0.055      339.367       12.647      858.083
03/21/2014  20:36:00     -259.706      -38.651       -7.586      119.531       82.478       52.805    14287.601     6802.579     2788.417        4.643        1.194      262.567       59.120        0.051      339.372       12.657      858.107
03/21/2014  20:37:00     -252.560      -27.825      -11.011      123.872      101.282       60.233    15344.228    10258.069     3628.013        4.695        1.462      254.088       59.091        0.054      339.403       12.709      858.116
03/21/2014  20:38:00     -405.115      -55.177       -6.133      200.261      134.549       89.779    40104.349    18103.539     8060.259       11.672        3.313      408.855      107.722        0.069      339.405       12.713      858.130
03/21/2014  20:39:00     -310.854     -101.475        8.510      206.696      145.523       78.082    42723.108    21176.951     6096.730        8.849        3.500      326.998       90.088        0.076      339.424       12.745      858.131
03/21/2014  20:40:00     -356.126     -149.269       -7.736      174.088      126.517       73.198    30306.655    16006.440     5358.019       10.041        2.584      386.143       68.744        0.032      339.373       12.660      858.148
03/21/2014  20:41:00     -327.954       20.967      -22.323      155.996      106.373       62.094    24334.816    11315.152     3855.657        7.399        1.975      328.624       74.072        0.051      339.386       12.680      858.163
03/21/2014  20:42:00     -315.941      -19.205      -10.902      136.716      124.878       62.642    18691.240    15594.562     3923.996        6.925        1.910      316.524       64.843        0.042      339.414       12.727      858.182
03/21/2014  20:43:00     -216.354      -16.968        2.636      109.161       85.884       54.227    11916.129     7376.013     2940.553        3.466        1.112      217.019       56.831        0.069      339.364       12.644      858.194
03/21/2014  20:44:00     -281.257      -36.857       11.415      178.042      113.386       62.240    31698.926    12856.447     3873.829        6.450        2.421      283.662       74.188        0.068      339.353       12.625      858.195
03/21/2014  20:45:00     -220.398      -72.152      -11.420       97.621       75.510       47.313     9529.806     5701.727     2238.551        3.569        0.874      231.908       41.221        0.032      339.269       12.483      858.204
03/21/2014  20:46:00     -299.266      -39.666      -10.853      135.652       96.604       65.544    18401.358     9332.351     4295.971        6.164        1.601      301.883       70.914        0.055      339.262       12.472      858.215
03/21/2014  20:47:00     -246.841      -46.180       -8.926      112.024       79.872       60.673    12549.307     6379.487     3681.169        4.287        1.130      251.124       46.465        0.034      339.223       12.406      858.230
03/21/2014  20:48:00     -282.680      -81.815      -10.749      155.603       95.371       49.206    24212.227     9095.623     2421.213        6.122        1.786      294.282       47.399        0.026      339.193       12.356      858.232
03/21/2014  20:49:00     -303.213      -97.369      -11.519      102.554      116.059       50.793    10517.367    13469.729     2579.924        6.405        1.328      318.464       54.967        0.030      339.225       12.409      858.252
03/21/2014  20:50:00     -360.944      -61.781      -14.373      110.682       89.999       60.910    12250.586     8099.739     3710.001        7.918        1.203      366.194       63.741        0.030      339.181       12.336      858.264
03/21/2014  20:51:00     -340.077      -52.808      -14.801      142.494      119.477       69.569    20304.682    14274.764     4839.856        7.903        1.971      344.153       76.207        0.049      339.181       12.334      858.260
03/21/2014  20:52:00     -229.058      -62.071      -11.349      103.801      114.931       56.294    10774.704    13209.127     3169.017        4.180        1.358      237.319       43.782        0.034      339.214       12.390      858.258
03/21/2014  20:53:00     -331.723      -54.059        2.649      158.862      130.199       65.227    25237.112    16951.753     4254.607        7.970        2.322      336.099       68.898        0.042      339.199       12.366      858.257
03/21/2014  20:54:00     -231.927      -78.330        1.112      137.837       87.087       59.047    18999.080     7584.168     3486.527        4.499        1.503      244.798       59.232        0.059      339.133       12.255      858.262
03/21/2014  20:55:00     -328.668     -124.773      -12.301      145.995      111.999       73.570    21314.538    12543.686     5412.533        8.150        1.964      351.555       77.148        0.048      339.136       12.259      858.270
03/21/2014  20:56:00     -343.301       18.580      -22.775      126.646      117.715       59.862    16039.271    13856.852     3583.487        7.609        1.674      343.803       50.249        0.021      339.193       12.356      858.301
03/21/2014  20:57:00     -372.337      -45.796      -20.867      126.732      120.767       66.378    16061.074    14584.740     4406.009        8.810        1.753      375.143       63.236        0.028      339.165       12.308      858.302
03/21/2014  20:58:00     -358.873     -113.549       -0.816      123.748      113.230       64.659    15313.464    12821.026     4180.722        8.699        1.616      376.409       67.353        0.032      339.135       12.257      858.313
03/21/2014  20:59:00     -425.074     -133.752      -18.102      156.958       98.776       65.080    24635.784     9756.675     4235.394       11.876        1.931      445.620       56.457        0.016      339.124       12.238      858.349
03/21/2014  21:00:00     -340.442     -120.591      -37.261      114.502      119.513       56.338    13110.789    14283.277     3173.981        8.119        1.528      361.169       28.562        0.006      339.160       12.301      858.358
03/21/2014  21:01:00     -327.479      -94.961      -10.651      131.782      108.374       66.599    17366.381    11744.949     4435.479        7.495        1.677      340.969       76.263        0.050      339.110       12.215      858.383
03/21/2014  21:02:00     -346.045      -93.458      -11.535      155.947      115.638       58.882    24319.569    13372.125     3467.102        8.488        2.058      358.443       67.133        0.035      339.108       12.213      858.407
03/21/2014  21:03:00     -258.716      -66.224      -33.237       93.933       96.030       52.985     8823.350     9221.760     2807.427        4.663        1.043      267.057       35.837        0.018      339.105       12.208      858.400
03/21/2014  21:04:00     -264.402      -21.391       -6.015      158.598       95.895       64.422    25153.371     9195.910     4150.170        5.444        1.925      265.266       81.193        0.094      339.125       12.242      858.417
03/21/2014  21:05:00     -327.347      -27.224      -27.009       92.381       73.416       51.452     8534.189     5389.902     2647.341        6.260        0.829      328.477       43.276        0.017      339.087       12.175      858.419
03/21/2014  21:06:00     -315.020      -96.837      -17.101      111.856       92.628       58.100    12511.688     8580.020     3375.620        6.668        1.223      329.568       61.326        0.035      339.055       12.125      858.424
03/21/2014  21:07:00     -413.089     -110.008      -23.060      148.158       87.525       63.690    21950.652     7660.575     4056.433       10.847        1.683      427.486       64.202        0.023      339.038       12.096      858.430
03/21/2014  21:08:00     -320.857      -91.454       -9.180      110.641       94.723       53.118    12241.442     8972.467     2821.493        6.771        1.202      333.636       45.837        0.019      339.037       12.093      858.457
03/21/2014  21:09:00     -322.031     -113.525       -9.790      162.808      101.687       65.820    26506.464    10340.184     4332.216        7.893        2.059      341.455       73.286        0.046      339.066       12.143      858.482
03/21/2014  21:10:00     -264.261      -75.756      -19.146       95.698       73.786       45.635     9158.125     5444.330     2082.546        4.631        0.834      274.905       41.087        0.022      339.083       12.169      858.483
03/21/2014  21:11:00     -339.639      -95.883      -28.402      103.585       81.869       49.214    10729.783     6702.482     2421.993        7.260        0.993      352.914       47.667        0.018      339.016       12.058      858.491
03/21/2014  21:12:00     -252.753      -83.379       -5.454      154.243      127.204       66.414    23790.807    16180.849     4410.798        5.762        2.219      266.151       69.517        0.068      338.990       12.016      858.505
03/21/2014  21:13:00     -328.381      -61.153      -39.287       93.443       94.291       56.559     8731.581     8890.732     3198.925        6.697        1.041      334.027       45.866        0.019      339.012       12.051      858.521
03/21/2014  21:14:00     -243.305      -82.770      -18.438      116.364       64.748       55.088    13540.470     4192.338     3034.687        4.357        1.038      256.998       35.324        0.019      338.985       12.005      858.518
03/21/2014  21:15:00     -314.223      -59.256      -10.887      101.647       88.952       49.307    10332.036     7912.404     2431.213        6.152        1.034      319.762       42.664        0.018      338.970       11.981      858.519
03/21/2014  21:16:00     -309.857     -121.234      -15.828      119.592       98.645       50.347    14302.235     9730.876     2534.871        6.876        1.328      332.730       40.341        0.015      338.941       11.932      858.522
03/21/2014  21:17:00     -413.864      -72.251      -36.092      179.551      106.575       74.888    32238.643    11358.146     5608.150       11.350        2.460      420.124       96.786        0.053      338.987       12.011      858.514
03/21/2014  21:18:00     -246.286      -67.422      -21.738      157.130       98.850       54.981    24689.721     9771.276     3022.900        5.157        1.874      255.348       68.321        0.072      338.947       11.942      858.499
03/21/2014  21:19:00     -346.755     -127.011      -25.983      119.093       91.054       50.755    14183.024     8290.834     2576.101        8.104        1.252      369.284       34.936        0.009      338.984       12.003      858.503
03/21/2014  21:20:00     -338.934     -107.269      -20.679       96.712       97.506       55.399     9353.246     9507.368     3069.103        7.437        1.096      355.504       46.875        0.017      338.963       11.969      858.517
03/21/2014  21:21:00     -301.523      -88.279      -27.198      138.927      103.565       55.374    19300.832    10725.678     3066.252        6.627        1.655      314.180       54.213        0.030      338.962       11.967      858.525
03/21/2014  21:22:00     -204.433      -82.287       -9.878       93.175       73.774       51.747     8681.541     5442.636     2677.765        3.273        0.840      220.372       43.358        0.039      338.970       11.982      858.520
03/21/2014  21:23:00     -296.639     -104.107      -10.221      124.352      102.994       55.910    15463.374    10607.768     3125.911        6.406        1.460      314.377       53.423        0.029      338.909       11.878      858.540
03/21/2014  21:24:00     -274.990      -32.175      -20.022      115.270       79.131       53.664    13287.156     6261.745     2879.839        4.974        1.121      276.866       60.243        0.047      338.904       11.869      858.568
03/21/2014  21:25:00     -269.181      -68.121       -4.653      160.890      114.662       63.602    25885.460    13147.307     4045.270        6.009        2.154      277.667       57.687        0.043      338.940       11.931      858.573
03/21/2014  21:26:00     -394.114      -73.250      -13.592      114.734      129.892       65.574    13163.992    16871.932     4299.895        9.760        1.717      400.863       62.383        0.024      338.915       11.888      858.599
03/21/2014  21:27:00     -295.173     -151.155       -1.189      131.533      123.455       70.838    17300.844    15241.087     5018.014        7.376        1.878      331.625       70.037        0.045      338.892       11.849      858.599
03/21/2014  21:28:00     -328.829      -59.490      -16.876      155.778      132.720       70.530    24266.849    17614.686     4974.449        7.940        2.343      334.167       79.307        0.056      338.933       11.918      858.596
03/21/2014  21:29:00     -365.551      -95.323      -29.139      135.440      125.882       78.412    18344.124    15846.299     6148.491        9.194        2.017      377.775       71.707        0.036      338.962       11.968      858.623
03/21/2014  21:30:00     -360.171     -133.951      -37.295      113.864      113.575       66.910    12964.916    12899.186     4476.946        8.969        1.517      384.273       54.618        0.020      338.913       11.883      858.638
03/21/2014  21:31:00     -263.786      -54.486       -6.320      113.059       85.798       58.904    12782.416     7361.252     3469.688        4.810        1.181      269.354       61.182        0.052      338.960       11.964      858.662
03/21/2014  21:32:00     -252.316      -89.087      -12.390      150.595      125.262       61.973    22678.981    15690.670     3840.688        5.697        2.111      267.582       73.356        0.075      338.925       11.905      858.685
03/21/2014  21:33:00     -289.411      -61.650       -0.808      165.059      115.386       67.053    27244.479    13313.956     4496.164        6.630        2.253      295.904       78.437        0.070      338.935       11.921      858.707
03/21/2014  21:34:00     -408.037      -46.035      -24.724      186.926      111.687       65.365    34941.210    12473.887     4272.601       11.045        2.584      410.626       75.935        0.034      338.970       11.981      858.714
03/21/2014  21:35:00     -385.263      -53.500      -30.366      102.491       91.917       53.608    10504.320     8448.657     2873.776        8.702        1.091      388.960       48.243        0.015      338.937       11.923      858.735
03/21/2014  21:36:00     -327.799      -33.886      -32.261      102.175       91.613       45.926    10439.650     8392.985     2109.205        6.529        1.047      329.545       50.973        0.024      338.932       11.917      858.753
03/21/2014  21:37:00     -237.290      -51.442      -21.605       90.224       82.584       46.245     8140.305     6820.195     2138.579        3.826        0.855      242.802       38.273        0.025      338.911       11.881      858.769
03/21/2014  21:38:00     -118.294      -22.362        3.476      144.518       87.711       54.396    20885.514     7693.290     2958.913        2.302        1.577      120.389       70.149        0.340      338.861       11.798      858.765
03/21/2014  21:39:00     -231.065      -96.468       -4.256      119.083       96.331       53.789    14180.737     9279.615     2893.300        4.453        1.318      250.394       59.644        0.057      338.814       11.718      858.763
03/21/2014  21:40:00     -290.510     -103.610      -27.314       96.485       77.483       54.590     9309.399     6003.620     2980.046        5.708        0.915      308.433       45.861        0.022      338.747       11.607      858.775
03/21/2014  21:41:00     -221.177      -36.038      -12.582       83.577       69.981       51.678     6985.102     4897.339     2670.601        3.246        0.728      224.094       40.184        0.032      338.718       11.556      858.798
03/21/2014  21:42:00     -227.191      -76.222      -32.631       67.826       68.654       37.426     4600.429     4713.351     1400.673        3.460        0.536      239.636       21.321        0.008      338.719       11.556      858.783
03/21/2014  21:43:00      -80.258      -33.696        9.916      111.425       66.721       49.741    12415.634     4451.720     2474.166        1.351        0.967       87.045       55.816        0.411      338.694       11.519      858.794
03/21/2014  21:44:00      -91.531      -17.594       13.570       73.120       46.163       38.473     5346.604     2131.017     1480.153        0.891        0.448       93.207       37.656        0.163      338.604       11.369      858.784
03/21/2014  21:45:00     -180.275      -89.146      -11.556       82.643       69.946       40.684     6829.856     4892.471     1655.217        2.698        0.669      201.112       33.603        0.028      338.600       11.358      858.781
03/21/2014  21:46:00     -151.189       -4.902        0.022       77.579      112.808       41.544     6018.477    12725.542     1725.875        2.167        1.023      151.269       45.824        0.092      338.646       11.436      858.791
03/21/2014  21:47:00     -221.211      -64.525      -33.317      114.768      109.443       49.121    13171.593    11977.792     2412.904        4.088        1.378      230.430       30.521        0.018      338.703       11.533      858.797
03/21/2014  21:48:00      -89.307        9.577      -17.269       77.952       86.381       47.730     6076.485     7461.668     2278.120        1.209        0.791       89.819       40.209        0.200      338.725       11.572      858.803
03/21/2014  21:49:00      -55.270       58.613       15.481      110.637      162.055       61.798    12240.590    26261.809     3818.975        2.452        2.116       80.562       61.330        0.580      338.712       11.548      858.809
03/21/2014  21:50:00     -115.744      -84.358        1.005       98.216       57.681       47.113     9646.390     3327.051     2219.673        1.785        0.760      143.223       48.338        0.114      338.599       11.358      858.817
03/21/2014  21:51:00     -238.809      -69.773      -14.634       79.363       65.070       39.874     6298.492     4234.077     1589.930        3.712        0.606      248.794       38.582        0.024      338.631       11.410      858.843
03/21/2014  21:52:00     -233.732      -92.261      -20.599      112.127       73.681       59.561    12572.410     5428.919     3547.530        4.255        1.077      251.283       42.844        0.029      338.659       11.457      858.844
03/21/2014  21:53:00     -150.400      -65.502      -16.907       97.834       57.286       43.437     9571.438     3281.667     1886.736        2.097        0.737      164.045       39.407        0.058      338.684       11.501      858.855
03/21/2014  21:54:00     -213.493      -76.800      -12.628       97.000       69.637       39.721     9408.958     4849.334     1577.732        3.373        0.792      226.886       40.593        0.032      338.664       11.464      858.863
03/21/2014  21:55:00     -199.901      -62.128      -12.984       95.672       92.036       52.722     9153.097     8470.652     2779.627        3.219        1.020      209.333       37.024        0.031      338.739       11.594      858.871
03/21/2014  21:56:00     -302.440     -116.295      -32.828       67.068       67.118       55.292     4498.083     4504.883     3057.185        5.906        0.603      324.028       38.295        0.014      338.719       11.558      858.884
03/21/2014  21:57:00     -218.667      -30.934      -34.003       95.876       88.798       49.156     9192.159     7885.038     2416.291        3.471        0.975      220.845       28.247        0.016      338.774       11.651      858.888
03/21/2014  21:58:00     -263.708      -43.120      -23.283       91.981      109.068       54.392     8460.484    11895.880     2958.503        4.763        1.166      267.210       26.269        0.010      338.792       11.682      858.888
03/21/2014  21:59:00     -287.505      -88.608      -25.669       89.648       75.283       52.892     8036.774     5667.580     2797.568        5.383        0.825      300.849       26.710        0.008      338.730       11.577      858.884
03/21/2014  22:00:00     -217.746      -67.526      -23.355       78.315       62.812       39.929     6133.257     3945.297     1594.318        3.209        0.584      227.976       34.398        0.023      338.705       11.535      858.910
03/21/2014  22:01:00     -155.893      -55.600        3.371      100.076       83.322       62.681    10015.128     6942.593     3928.915        2.414        1.044      165.512       65.761        0.158      338.678       11.490      858.921
03/21/2014  22:02:00     -134.911       38.621      -19.765       80.586       68.245       51.737     6494.170     4657.443     2676.740        1.695        0.691      140.330       43.832        0.098      338.696       11.521      858.938
03/21/2014  22:03:00      -85.089        5.351       -5.696       67.785       64.103       32.444     4594.821     4109.177     1052.587        0.853        0.488       85.257       23.351        0.075      338.699       11.528      858.947
03/21/2014  22:04:00      -59.812       24.447       13.261       72.222       39.779       41.135     5216.028     1582.357     1692.113        0.642        0.425       64.616       38.521        0.355      338.605       11.370      858.940
03/21/2014  22:05:00     -171.027      -29.887       -1.586       91.600       91.722       44.314     8390.552     8412.859     1963.718        2.445        0.938      173.618       46.227        0.071      338.618       11.389      858.948
03/21/2014  22:06:00     -102.587       -8.235        6.123       83.543       77.488       39.419     6979.455     6004.423     1553.831        1.258        0.727      102.917       47.101        0.209      338.533       11.247      858.945
03/21/2014  22:07:00     -101.900       -7.604      -12.575       67.686       64.722       32.573     4581.397     4188.994     1060.990        1.021        0.492      102.183       12.336        0.015      338.630       11.411      858.947
03/21/2014  22:08:00     -218.759      -49.279      -22.890       68.669       87.288       39.552     4715.375     7619.177     1564.362        3.235        0.695      224.240       33.504        0.022      338.574       11.315      858.944
03/21/2014  22:09:00     -169.015      -60.152      -15.004       63.985       58.479       37.050     4094.079     3419.841     1372.680        2.065        0.444      179.400        8.742        0.002      338.536       11.253      858.940
03/21/2014  22:10:00     -199.464      -90.314      -21.776       58.824       61.468       26.099     3460.257     3778.266      681.143        2.817        0.396      218.958       20.801        0.009      338.507       11.202      858.931
03/21/2014  22:11:00     -174.966      -71.441      -16.343       67.180       50.706       32.246     4513.109     2571.074     1039.818        2.205        0.406      188.989       23.444        0.015      338.530       11.243      858.940
03/21/2014  22:12:00     -178.417      -64.742        0.549       70.781       93.740       53.036     5009.895     8787.225     2812.867        2.631        0.830      189.800       39.986        0.044      338.527       11.236      858.956
03/21/2014  22:13:00     -294.016      -87.457      -20.004      100.231       72.375       48.593    10046.341     5238.178     2361.252        5.607        0.882      306.748       47.469        0.024      338.627       11.404      858.969
03/21/2014  22:14:00     -216.597      -93.423      -15.166       79.972       55.235       36.493     6395.528     3050.934     1331.724        3.332        0.539      235.886       31.156        0.017      338.583       11.329      858.977
03/21/2014  22:15:00     -158.299      -49.008       -8.207      109.344       61.078       40.770    11956.121     3730.582     1662.163        2.244        0.867      165.712       39.197        0.056      338.586       11.336      858.981
03/21/2014  22:16:00     -154.345      -43.006      -15.808       66.199       47.412       36.185     4382.302     2247.901     1309.339        1.693        0.397      160.225       29.044        0.033      338.576       11.322      858.987
03/21/2014  22:17:00     -171.044      -38.349      -24.198       48.794       43.568       30.380     2380.857     1898.187      922.960        1.826        0.260      175.290       24.439        0.019      338.549       11.276      858.986
03/21/2014  22:18:00     -206.804      -74.229      -22.211       56.883       61.063       34.000     3235.639     3728.741     1155.998        2.844        0.406      219.722       24.458        0.012      338.551       11.276      858.993
03/21/2014  22:19:00     -111.420      -36.766      -19.461       80.664       37.048       32.743     6506.622     1372.542     1072.080        1.155        0.448      117.329       28.318        0.058      338.523       11.232      859.000
03/21/2014  22:20:00      -98.180      -29.127       -0.898       65.636       44.519       30.439     4308.079     1981.956      926.554        0.885        0.361      102.409       26.887        0.069      338.571       11.313      859.025
03/21/2014  22:21:00      -67.613      -35.487       -1.028       63.077       32.141       25.072     3978.651     1033.071      628.589        0.574        0.282       76.360       32.739        0.184      338.475       11.151      859.041
03/21/2014  22:22:00      -30.024       -9.751       -6.127       21.274       53.839       19.675      452.563     2898.667      387.117        0.239        0.187       31.568       10.555        0.112      338.549       11.277      859.048
03/21/2014  22:23:00      -41.055       -8.722        7.625       98.266       40.275       38.282     9656.227     1622.085     1465.534        0.728        0.637       41.972       49.889        1.413      338.511       11.210      859.057
03/21/2014  22:24:00     -130.805      -63.175       -6.110       71.566       44.966       33.733     5121.682     2021.906     1137.904        1.471        0.414      145.262       40.272        0.077      338.519       11.225      859.062
03/21/2014  22:25:00      -10.348        3.236       14.826       38.716       35.803       26.426     1498.906     1281.838      698.338        0.191        0.174       10.843       27.575        6.468      338.408       11.041      859.061
03/21/2014  22:26:00      -31.575      -11.567       17.565       49.904       77.549       31.970     2490.453     6013.861     1022.062        0.548        0.476       33.627       18.858        0.314      338.434       11.084      859.070
03/21/2014  22:27:00      -11.932       42.951       -3.149       39.449       37.405       18.679     1556.248     1399.147      348.921        0.265        0.165       44.578       25.756        0.334      338.505       11.203      859.088
03/21/2014  22:28:00      -34.140      -28.062        9.995       54.341       41.848       21.425     2952.979     1751.216      459.025        0.361        0.258       44.193       25.889        0.343      338.513       11.216      859.095
03/21/2014  22:29:00       29.683        1.131       33.570       25.502       15.205       21.284      650.350      231.202      452.990        0.167        0.067       29.705       15.478        0.272      338.351       10.945      859.115
03/21/2014  22:30:00       31.820       32.540       30.874       16.797       20.192       20.298      282.153      407.718      412.018        0.206        0.055       45.512       13.318        0.086      338.185       10.666      859.142
03/21/2014  22:31:00       55.487       46.385        8.443       29.081       25.474       34.439      845.687      648.910     1186.020        0.399        0.134       72.321       20.454        0.080      338.208       10.704      859.162
03/21/2014  22:32:00      -65.313       17.616      -16.562       49.905       29.847       18.570     2490.473      890.822      344.840        0.429        0.186       67.647       10.599        0.025      338.501       11.196      859.195
03/21/2014  22:33:00       35.214       42.653       12.051       46.739       32.585       24.086     2184.567     1061.764      580.138        0.351        0.191       55.311       23.592        0.182      338.328       10.906      859.226
03/21/2014  22:34:00      -61.504       63.918       -1.534       84.657       82.376       41.168     7166.862     6785.883     1694.788        1.176        0.782       88.703       24.090        0.074      338.535       11.252      859.243
03/21/2014  22:35:00      -66.796      -64.543        3.871       74.870       50.508       30.489     5605.495     2551.077      929.588        0.886        0.454       92.885       36.683        0.156      338.540       11.260      859.241
03/21/2014  22:36:00       50.235       10.850       24.634       36.014       52.710       27.393     1297.010     2778.348      750.392        0.404        0.241       51.393       31.142        0.367      338.198       10.687      859.252
03/21/2014  22:37:00       23.075        8.772       37.062       32.120       67.964       39.196     1031.696     4619.094     1536.337        0.458        0.359       24.686       40.986        2.757      338.066       10.464      859.259
03/21/2014  22:38:00       58.197       87.512       68.777       71.130       42.025       46.552     5059.518     1766.117     2167.123        1.238        0.450      105.096       47.230        0.202      338.069       10.470      859.249
03/21/2014  22:39:00       90.417       55.881       27.413       52.415       31.568       26.199     2747.352      996.560      686.378        0.824        0.222      106.291       23.015        0.047      338.003       10.360      859.267
03/21/2014  22:40:00       26.652       33.066       35.989       26.683       27.371       30.045      711.991      749.184      902.684        0.273        0.118       42.470       24.919        0.344      337.968       10.300      859.274
03/21/2014  22:41:00       67.470       12.061       -0.016       29.869       21.125       22.575      892.166      446.270      509.624        0.327        0.092       68.540       14.122        0.042      337.962       10.290      859.285
03/21/2014  22:42:00       35.303       18.718        1.168       23.275       15.303       11.958      541.723      234.173      142.984        0.126        0.046       39.958       10.623        0.071      337.900       10.187      859.304
03/21/2014  22:43:00       43.406       19.754       -3.785       17.459       15.351       12.789      304.800      235.642      163.546        0.150        0.035       47.690        5.614        0.014      337.895       10.178      859.303
03/21/2014  22:44:00       48.985       25.761        0.544       13.690       16.576       11.859      187.403      274.765      140.644        0.183        0.030       55.346        8.938        0.026      337.859       10.118      859.313
03/21/2014  22:45:00       30.415       13.476        3.822       15.566       10.668       12.733      242.293      113.813      162.125        0.082        0.026       33.266        2.979        0.008      337.866       10.128      859.319
03/21/2014  22:46:00       23.188      -12.994       14.934       23.402       41.187       21.112      547.654     1696.372      445.708        0.181        0.134       26.581       15.655        0.347      338.034       10.411      859.324
03/21/2014  22:47:00      -23.571      -13.858        9.894       15.856       16.133       14.224      251.411      260.264      202.332        0.078        0.036       27.343       10.010        0.134      338.086       10.500      859.333
03/21/2014  22:48:00      -16.347        2.879        3.159        7.681        7.974        8.652       58.992       63.588       74.850        0.024        0.010       16.599        4.268        0.066      337.966       10.299      859.345
03/21/2014  22:49:00       22.114       12.010       10.834        9.075        7.219        8.520       82.358       52.112       72.583        0.048        0.010       25.165        6.000        0.057      337.925       10.228      859.351
03/21/2014  22:50:00       35.619       27.137       -2.962       10.793        8.012        9.071      116.494       64.198       82.287        0.114        0.013       44.779        5.984        0.018      337.885       10.161      859.349
03/21/2014  22:51:00       67.236       19.018       -3.076       20.738       15.559       11.566      430.075      242.086      133.767        0.285        0.040       69.874        8.040        0.013      338.380       10.993      859.363
03/21/2014  22:52:00       59.516       38.041        7.094       29.709       24.112       14.740      882.633      581.403      217.273        0.336        0.084       70.635       10.959        0.024      338.015       10.379      859.360
03/21/2014  22:53:00       87.592       40.278       -2.523       34.421       30.966       18.982     1184.809      958.916      360.311        0.590        0.125       96.409       10.881        0.013      337.700        9.850      859.366
03/21/2014  22:54:00      109.547       41.587       15.373       50.287       30.282       31.310     2528.787      916.972      980.303        0.920        0.221      117.175       29.212        0.062      337.865       10.127      859.373
03/21/2014  22:55:00       18.245        3.533       13.778       33.691       25.606       16.492     1135.107      655.646      272.002        0.130        0.103       18.584       14.253        0.588      337.730        9.900      859.394
03/21/2014  22:56:00       46.352       29.052        6.069       27.326       17.044       14.847      746.687      290.514      220.437        0.214        0.063       54.704       13.965        0.065      337.692        9.838      859.415
03/21/2014  22:57:00       34.615        9.386        1.752       15.475       12.754       13.251      239.470      162.669      175.587        0.093        0.029       35.865        7.666        0.046      337.983       10.325      859.432
03/21/2014  22:58:00       17.098       65.034        6.045       46.966       31.681       18.202     2205.808     1003.714      331.313        0.405        0.177       67.244       23.584        0.123      338.385       10.999      859.435
03/21/2014  22:59:00      -22.986       21.954       -7.516       53.313       48.809       23.378     2842.273     2382.277      546.521        0.342        0.289       31.786       22.810        0.515      338.709       11.543      859.431
03/21/2014  23:00:00      -37.885       -3.627       -1.697       43.719       23.319       18.511     1911.368      543.780      342.673        0.212        0.140       38.058       24.553        0.416      338.403       11.033      859.445
03/21/2014  23:01:00      -60.877      -18.733      -14.593       18.854       17.356       11.037      355.465      301.239      121.813        0.252        0.039       63.694        9.772        0.024      338.339       10.923      859.463
03/21/2014  23:02:00      -33.676      -39.384        6.400       16.283       17.738       13.949      265.126      314.619      194.581        0.175        0.039       51.819        9.294        0.032      338.064       10.461      859.489
03/21/2014  23:03:00      -62.186      -32.411       -4.188       19.518       17.652        9.578      380.961      311.605       91.729        0.286        0.039       70.125        8.683        0.015      338.292       10.843      859.487
03/21/2014  23:04:00      -51.964      -75.727       -6.417       29.707       34.098       19.152      882.520     1162.651      366.795        0.544        0.121       91.841       15.498        0.028      338.454       11.115      859.495
03/21/2014  23:05:00      -85.534     -119.435       -6.588       77.500       61.107       35.884     6006.268     3734.071     1287.694        1.632        0.551      146.903       30.247        0.042      338.653       11.450      859.510
03/21/2014  23:06:00      -66.578      -80.650        3.764       77.931       44.515       36.319     6073.218     1981.559     1319.093        1.016        0.469      104.581       37.941        0.132      338.620       11.396      859.526
03/21/2014  23:07:00     -159.689      -57.233        2.494       49.598       40.610       27.361     2460.009     1649.178      748.618        1.682        0.243      169.636       25.649        0.023      338.379       10.990      859.546
03/21/2014  23:08:00     -137.488      -31.186       -6.808       48.995       45.621       26.687     2400.536     2081.245      712.218        1.256        0.260      140.981       22.766        0.026      338.376       10.985      859.588
03/21/2014  23:09:00      -21.593      118.553      -23.950       70.043       69.542       26.878     4905.969     4836.038      722.424        1.278        0.523      120.503       32.858        0.074      338.449       11.108      859.628
03/21/2014  23:10:00       40.745      128.940      -31.590       31.573       69.928       19.141      996.848     4889.994      366.362        1.277        0.313      135.225       24.165        0.032      338.521       11.228      859.645
03/21/2014  23:11:00       38.601       19.842       -1.692       13.493       14.958       12.069      182.048      223.727      145.662        0.122        0.028       43.402        7.309        0.028      338.412       11.044      859.659
03/21/2014  23:12:00       14.867       -5.671      -10.039       16.920       12.856        7.144      286.277      165.275       51.038        0.043        0.025       15.912        6.369        0.160      338.560       11.295      859.682
03/21/2014  23:13:00      -45.037       21.033      -11.876       45.177       23.427       14.167     2040.975      548.847      200.697        0.270        0.140       49.707       17.298        0.121      338.629       11.411      859.722
03/21/2014  23:14:00     -106.850      115.771      -30.752       23.695       52.895       18.601      561.442     2797.891      345.991        1.473        0.185      157.543       21.404        0.018      338.656       11.455      859.768
03/21/2014  23:15:00      -91.214      219.481      -41.871       65.172      101.402       41.874     4247.330    10282.455     1753.472        3.726        0.814      237.680       38.312        0.026      338.648       11.441      859.784
03/21/2014  23:16:00       11.276       -6.710      -47.827       61.806      121.558       44.591     3820.015    14776.422     1988.336        1.152        1.029       13.122       29.681        5.117      338.668       11.474      859.741
03/21/2014  23:17:00      -91.710      -16.802      -14.784       76.746       51.572       27.097     5889.905     2659.721      734.244        0.910        0.464       93.236       14.292        0.023      338.691       11.514      859.724
03/21/2014  23:18:00     -130.392       10.834      -19.745       50.339       39.506       31.705     2534.064     1560.722     1005.212        1.130        0.255      130.841       29.827        0.052      338.865       11.807      859.754
03/21/2014  23:19:00     -181.405       -8.521      -14.297       46.079       52.829       29.419     2123.275     2790.912      865.503        1.948        0.289      181.605       27.701        0.023      338.442       11.094      859.777
03/21/2014  23:20:00     -137.228      -27.249      -15.136       63.746       61.840       27.766     4063.570     3824.210      770.960        1.423        0.433      139.907       26.328        0.035      338.324       10.896      859.801
03/21/2014  23:21:00      -86.285       12.076      -14.686       63.844       39.384       27.458     4076.046     1551.132      753.951        0.709        0.319       87.126       29.353        0.114      338.413       11.046      859.819
03/21/2014  23:22:00      -52.436      -10.907       -0.099       57.915       32.042       21.986     3354.119     1026.695      483.390        0.387        0.243       53.558       23.696        0.196      338.367       10.971      859.815
03/21/2014  23:23:00      -72.328      -21.040       -2.367       67.074       35.509       23.737     4498.868     1260.901      563.449        0.600        0.316       75.326       24.200        0.103      338.352       10.945      859.789
03/21/2014  23:24:00     -102.364      -62.396      -12.102       69.839       67.785       26.844     4877.493     4594.759      720.618        1.235        0.510      119.881       22.140        0.034      338.449       11.107      859.780
03/21/2014  23:25:00      -67.270      -88.177       25.383      112.600       75.393       61.796    12678.807     5684.117     3818.726        1.756        1.109      110.907       70.623        0.405      338.445       11.100      859.768
03/21/2014  23:26:00     -241.844     -125.983       -6.431      138.787       94.480       54.821    19261.714     8926.402     3005.377        5.279        1.560      272.690       50.553        0.034      338.443       11.095      859.763
03/21/2014  23:27:00     -121.082      -29.187       -2.317      123.388       85.306       52.216    15224.634     7277.114     2726.502        2.037        1.261      124.550       49.480        0.158      338.423       11.062      859.768
03/21/2014  23:28:00      -18.740       47.797       51.657       90.575       67.482       53.979     8203.847     4553.789     2913.772        1.049        0.784       51.340       37.317        0.528      338.387       11.003      859.760
03/21/2014  23:29:00      -27.244       26.580       25.197       40.588       33.637       29.401     1647.373     1131.441      864.408        0.286        0.182       38.063       18.975        0.249      338.377       10.987      859.786
03/21/2014  23:30:00      -90.864       -8.856       -9.300       35.777       69.052       20.223     1280.005     4768.169      408.985        0.744        0.323       91.295       11.255        0.015      338.395       11.017      859.798
03/21/2014  23:31:00     -220.976      -54.662       -9.113       65.439       52.150       29.709     4282.220     2719.579      882.639        2.989        0.394      227.636       26.455        0.014      338.295       10.847      859.811
03/21/2014  23:32:00     -218.101      -77.319       -1.009       53.251       50.468       31.025     2835.632     2547.020      962.560        2.995        0.317      231.401       30.508        0.017      338.295       10.846      859.813
03/21/2014  23:33:00     -175.028      -64.665       10.614       81.987       57.845       40.171     6721.841     3346.006     1613.703        2.330        0.584      186.592       44.415        0.057      338.196       10.681      859.842
03/21/2014  23:34:00     -159.471     -122.858       12.493      128.645       67.723       54.552    16549.439     4586.446     2975.927        3.239        1.206      201.309       70.661        0.123      338.166       10.630      859.865
03/21/2014  23:35:00     -195.027     -123.862       -7.171       50.350       71.596       35.990     2535.074     5125.981     1295.311        3.119        0.448      231.035       32.644        0.020      338.104       10.525      859.888
03/21/2014  23:36:00     -194.743      -58.621       -4.144       67.303       51.514       33.340     4529.651     2653.678     1111.583        2.484        0.415      203.375       29.580        0.021      338.030       10.402      859.915
03/21/2014  23:37:00     -179.720      -36.189      -10.529       50.033       63.006       27.375     2503.342     3969.739      749.398        2.047        0.361      183.327       21.361        0.014      338.012       10.372      859.931
03/21/2014  23:38:00     -162.266      -93.227      -11.222      109.087       63.209       48.598    11900.029     3995.381     2361.774        2.670        0.913      187.140       50.208        0.072      337.990       10.335      859.941
03/21/2014  23:39:00     -147.522      -55.096        2.572       86.656       60.463       38.324     7509.344     3655.722     1468.767        1.872        0.632      157.475       43.986        0.078      338.102       10.525      859.924
03/21/2014  23:40:00     -143.327      -67.494       -8.640       50.642       42.487       26.164     2564.657     1805.163      684.551        1.511        0.253      158.424        5.115        0.001      338.018       10.384      859.917
03/21/2014  23:41:00     -234.786       28.407      -17.111       86.405       50.443       32.382     7465.828     2544.452     1048.565        3.364        0.553      236.498       33.493        0.020      338.243       10.759      859.893
03/21/2014  23:42:00     -170.685      -17.107      -15.926       61.227       62.575       30.532     3748.692     3915.616      932.193        1.914        0.430      171.540       31.612        0.034      338.189       10.669      859.868
03/21/2014  23:43:00     -260.566      -73.711      -21.392       96.973       64.642       37.720     9403.839     4178.572     1422.827        4.439        0.750      270.791       30.451        0.013      338.106       10.529      859.857
03/21/2014  23:44:00     -262.566      -39.628      -18.481       80.239       74.978       51.198     6438.243     5621.744     2621.200        4.276        0.734      265.539       43.722        0.027      338.034       10.407      859.856
03/21/2014  23:45:00     -172.879      -71.111      -26.339       71.513       64.728       46.470     5114.068     4189.678     2159.426        2.355        0.573      186.933       38.447        0.042      338.044       10.426      859.846
03/21/2014  23:46:00     -199.566     -103.350        1.532      103.686       75.918       45.735    10750.720     5763.591     2091.679        3.455        0.930      224.740       52.152        0.054      338.064       10.459      859.848
03/21/2014  23:47:00     -350.049      -74.616      -21.904      146.584       74.421       57.376    21486.944     5538.470     3292.033        7.944        1.516      357.913       63.627        0.032      338.195       10.678      859.859
03/21/2014  23:48:00     -225.469      -91.419       -5.103      129.693       68.796       49.232    16820.255     4732.927     2423.758        4.159        1.199      243.297       58.846        0.059      338.074       10.477      859.857
03/21/2014  23:49:00     -181.989      -90.927        0.451      112.444       72.957       42.871    12643.664     5322.685     1837.918        3.059        0.990      203.439       54.114        0.071      338.091       10.503      859.858
03/21/2014  23:50:00     -104.717       -0.925       20.309      126.116       68.275       47.999    15905.269     4661.465     2303.946        1.712        1.144      104.721       62.494        0.356      338.056       10.447      859.869
03/21/2014  23:51:00     -115.982       67.108      -15.542       63.571       34.035       27.138     4041.248     1158.360      736.459        1.207        0.297      133.998       28.814        0.046      338.139       10.587      859.895
03/21/2014  23:52:00     -116.271      -15.193       -1.671       46.761       54.361       35.078     2186.546     2955.104     1230.482        1.006        0.319      117.260       29.824        0.065      338.133       10.578      859.888
03/21/2014  23:53:00     -125.573       -3.462       -4.830       51.169       74.670       36.682     2618.259     5575.602     1345.558        1.267        0.477      125.621       27.443        0.048      338.094       10.512      859.907
03/21/2014  23:54:00      -93.143       14.714      -11.197       61.727       67.632       34.405     3810.251     4574.131     1183.679        0.929        0.478       94.298       33.301        0.125      338.172       10.643      859.926
03/21/2014  23:55:00     -107.878       10.370       -4.837       47.841       51.929       37.556     2288.796     2696.664     1410.486        0.908        0.320      108.376       24.904        0.053      338.127       10.566      859.929
03/21/2014  23:56:00     -143.633       44.901      -21.194       67.287       54.816       37.636     4527.544     3004.845     1416.434        1.602        0.447      150.487       43.329        0.083      338.066       10.464      859.919
03/21/2014  23:57:00     -144.109        7.353      -25.799       37.267       41.133       23.812     1388.842     1691.940      567.025        1.257        0.182      144.297       20.041        0.019      338.044       10.427      859.921
03/21/2014  23:58:00      -93.788        2.924      -13.451       28.253       42.643       23.427      798.227     1818.446      548.835        0.608        0.158       93.833        7.649        0.007      338.115       10.547      859.931
03/21/2014  23:59:00      -90.226      -26.793       -9.475       41.694       29.284       22.599     1738.429      857.524      510.701        0.603        0.155       94.121       14.118        0.022      337.934       10.242      859.934
